[[{"header":{"parameterUnit":"m.s-1","parameterCategory":1,"la1":31.0,"la2":29.5877,"lo1":-88.7671,"lo2":-86.6584,"dy":0.0162,"dx":0.0185,"nx":115,"ny":88,"refTime":"2024-03-27T12:00:00:Z","depth":0,"parameterNumber":2,"parameterNumberName":"U-component_of_WINDS"},"data":[0.0,0.0,0.0,0.0,0.0,0.0,0.0,0.0,0.0,0.0,0.0,0.0,0.0,0.0,0.0,0.0,0.0,0.0,0.0,0.0,0.0,0.0,0.0,0.0,0.0,0.0,0.0,0.0,0.0,0.0,0.0,0.0,0.0,0.0,0.0,0.0,0.0,0.0,0.0,0.0,0.0,0.0,0.0,0.0,0.0,0.0,0.0,0.0,0.0,0.0,0.0,0.0,0.0,0.0,0.0,0.0,0.0,0.0,0.0,0.0,0.0,0.0,0.0,0.0,0.0,0.0,0.0,0.0,0.0,0.0,0.0,0.0,0.0,0.0,0.0,0.0,0.0,0.0,0.0,0.0,0.0,0.0,0.0,0.0,0.0,0.0,0.0,0.0,0.0,0.0,0.0,0.0,0.0,0.0,0.0,0.0,0.0,0.0,0.0,0.0,0.0,0.0,0.0,0.0,0.0,0.0,0.0,0.0,0.0,0.0,0.0,0.0,0.0,0.0,0.0,0.0,0.0,0.0,0.0,0.0,0.0,0.0,0.0,0.0,0.0,0.0,0.0,0.0,0.0,0.0,0.0,0.0,0.0,0.0,0.0,0.0,0.0,0.0,0.0,0.0,0.0,0.0,0.0,0.0,0.0,0.0,0.0,0.0,0.0,0.0,0.0,0.0,0.0,0.0,0.0,0.0,0.0,0.0,0.0,0.0,0.0,0.0,0.0,0.0,0.0,0.0,0.0,0.0,0.0,0.0,0.0,0.0,0.0,0.0,0.0,0.0,0.0,0.0,0.0,0.0,0.0,0.0,0.0,0.0,0.0,0.0,0.0,0.0,0.0,0.0,0.0,0.0,0.0,0.0,0.0,0.0,0.0,0.0,0.0,0.0,0.0,0.0,0.0,0.0,0.0,0.0,0.0,0.0,0.0,0.0,0.0,0.0,0.0,0.0,0.0,0.0,0.0,0.0,0.0,0.0,0.0,0.0,0.0,0.0,0.0,0.0,0.0,0.0,0.0,0.0,0.0,0.0,0.0,0.0,0.0,0.0,0.0,0.0,0.0,0.0,0.0,0.0,0.0,0.0,0.0,0.0,0.0,0.0,0.0,0.0,0.0,0.0,0.0,0.0,0.0,0.0,0.0,0.0,0.0,0.0,0.0,0.0,0.0,0.0,0.0,0.0,0.0,0.0,0.0,0.0,0.0,0.0,0.0,0.0,0.0,0.0,0.0,0.0,0.0,0.0,0.0,0.0,0.0,0.0,0.0,0.0,0.0,0.0,0.0,0.0,0.0,0.0,0.0,0.0,0.0,0.0,0.0,0.0,0.0,0.0,0.0,0.0,0.0,0.0,0.0,0.0,0.0,0.0,0.0,0.0,0.0,0.0,0.0,0.0,0.0,0.0,0.0,0.0,0.0,0.0,0.0,0.0,0.0,0.0,0.0,0.0,0.0,0.0,0.0,0.0,0.0,0.0,0.0,0.0,0.0,0.0,0.0,0.0,0.0,0.0,0.0,0.0,0.0,0.0,0.0,0.0,0.0,0.0,0.0,0.0,0.0,0.0,0.0,0.0,0.0,0.0,0.0,0.0,0.0,0.0,0.0,0.0,0.0,0.0,0.0,0.0,0.0,0.0,0.0,0.0,0.0,0.0,0.0,0.0,0.0,0.0,0.0,0.0,0.0,0.0,0.0,0.0,0.0,0.0,0.0,0.0,0.0,0.0,0.0,0.0,0.0,0.0,0.0,0.0,0.0,0.0,0.0,0.0,0.0,0.0,0.0,0.0,0.0,0.0,0.0,0.0,0.0,0.0,0.0,0.0,0.0,0.0,0.0,0.0,0.0,0.0,0.0,0.0,0.0,0.0,0.0,0.0,0.0,0.0,0.0,0.0,0.0,0.0,0.0,0.0,0.0,0.0,0.0,0.0,0.0,0.0,0.0,0.0,0.0,0.0,0.0,0.0,0.0,0.0,0.0,0.0,0.0,0.0,0.0,0.0,0.0,0.0,0.0,0.0,0.0,0.0,0.0,0.0,0.0,0.0,0.0,0.0,0.0,0.0,0.0,0.0,0.0,0.0,0.0,0.0,0.0,0.0,0.0,0.0,0.0,0.0,0.0,0.0,0.0,0.0,0.0,0.0,0.0,0.0,0.0,0.0,0.0,0.0,0.0,0.0,0.0,0.0,0.0,0.0,0.0,0.0,0.0,0.0,0.0,0.0,0.0,0.0,0.0,0.0,0.0,0.0,0.0,0.0,0.0,0.0,0.0,0.0,0.0,0.0,0.0,0.0,0.0,0.0,0.0,0.0,0.0,0.0,0.0,0.0,0.0,0.0,0.0,0.0,0.0,0.0,0.0,0.0,0.0,0.0,0.0,0.0,0.0,0.0,0.0,0.0,0.0,0.0,0.0,0.0,0.0,0.0,0.0,0.0,0.0,0.0,0.0,0.0,0.0,0.0,0.0,0.0,0.0,0.0,0.0,0.0,0.0,0.0,0.0,0.0,0.0,0.0,0.0,0.0,0.0,0.0,0.0,0.0,0.0,0.0,0.0,0.0,0.0,0.0,0.0,0.0,0.0,0.0,0.0,0.0,0.0,0.0,0.0,0.0,0.0,0.0,0.0,0.0,0.0,0.0,0.0,0.0,0.0,0.0,0.0,0.0,0.0,0.0,0.0,0.0,0.0,0.0,0.0,0.0,0.0,0.0,0.0,0.0,0.0,0.0,0.0,0.0,0.0,0.0,0.0,0.0,0.0,0.0,0.0,0.0,0.0,0.0,0.0,0.0,0.0,0.0,0.0,0.0,0.0,0.0,0.0,0.0,0.0,0.0,0.0,0.0,0.0,0.0,0.0,0.0,0.0,0.0,0.0,0.0,0.0,0.0,0.0,0.0,0.0,0.0,0.0,0.0,0.0,0.0,0.0,0.0,0.0,0.0,0.0,0.0,0.0,0.0,0.0,0.0,0.0,0.0,0.0,0.0,0.0,0.0,0.0,0.0,0.0,0.0,0.0,0.0,0.0,0.0,0.0,0.0,0.0,0.0,0.0,0.0,0.0,0.0,0.0,0.0,0.0,0.0,0.0,0.0,0.0,0.0,0.0,0.0,0.0,0.0,0.0,0.0,0.0,0.0,0.0,0.0,0.0,0.0,0.0,0.0,0.0,0.0,0.0,0.0,0.0,0.0,0.0,0.0,0.0,0.0,0.0,0.0,0.0,0.0,0.0,0.0,0.0,0.0,0.0,0.0,0.0,0.0,0.0,0.0,0.0,0.0,0.0,0.0,0.0,0.0,0.0,0.0,0.0,0.0,0.0,0.0,0.0,0.0,0.0,0.0,0.0,0.0,0.0,0.0,0.0,0.0,0.0,0.0,0.0,0.0,0.0,0.0,0.0,0.0,0.0,0.0,0.0,0.0,0.0,0.0,0.0,0.0,0.0,0.0,0.0,0.0,0.0,0.0,0.0,0.0,0.0,0.0,0.0,0.0,0.0,0.0,0.0,0.0,0.0,0.0,0.0,0.0,0.0,0.0,0.0,0.0,0.0,0.0,0.0,0.0,0.0,0.0,0.0,0.0,0.0,0.0,0.0,0.0,0.0,0.0,0.0,0.0,0.0,0.0,0.0,0.0,0.0,0.0,0.0,0.0,0.0,0.0,0.0,0.0,0.0,0.0,0.0,0.0,0.0,0.0,0.0,0.0,0.0,0.0,0.0,0.0,0.0,0.0,0.0,0.0,0.0,0.0,0.0,0.0,0.0,0.0,0.0,0.0,0.0,0.0,0.0,0.0,0.0,0.0,0.0,0.0,0.0,0.0,0.0,0.0,0.0,0.0,0.0,0.0,0.0,0.0,0.0,0.0,0.0,0.0,0.0,0.0,0.0,0.0,0.0,0.0,0.0,0.0,0.0,0.0,0.0,0.0,0.0,0.0,0.0,0.0,0.0,0.0,0.0,0.0,0.0,0.0,0.0,0.0,0.0,0.0,0.0,0.0,0.0,0.0,0.0,0.0,0.0,0.0,0.0,0.0,0.0,0.0,0.0,0.0,0.0,0.0,0.0,0.0,0.0,0.0,0.0,0.0,0.0,0.0,0.0,0.0,0.0,0.0,0.0,0.0,0.0,0.0,0.0,0.0,0.0,0.0,0.0,0.0,0.0,0.0,0.0,0.0,0.0,0.0,0.0,0.0,0.0,0.0,0.0,0.0,0.0,0.0,0.0,0.0,0.0,0.0,0.0,0.0,0.0,0.0,0.0,0.0,0.0,0.0,0.0,0.0,0.0,0.0,3.3623,0.0,0.0,0.0,0.0,0.0,0.0,0.0,0.0,0.0,0.0,0.0,0.0,0.0,0.0,0.0,0.0,0.0,0.0,0.0,0.0,0.0,0.0,0.0,0.0,0.0,0.0,0.0,0.0,0.0,0.0,0.0,0.0,0.0,0.0,0.0,0.0,0.0,0.0,0.0,0.0,0.0,0.0,0.0,0.0,0.0,0.0,0.0,0.0,0.0,0.0,0.0,0.0,0.0,0.0,0.0,0.0,0.0,0.0,0.0,0.0,0.0,0.0,0.0,0.0,0.0,0.0,0.0,0.0,0.0,0.0,0.0,0.0,0.0,0.0,0.0,0.0,0.0,0.0,0.0,0.0,0.0,0.0,0.0,0.0,0.0,0.0,0.0,0.0,0.0,0.0,0.0,0.0,0.0,0.0,0.0,0.0,0.0,0.0,0.0,0.0,0.0,0.0,0.0,0.0,0.0,0.0,0.0,0.0,0.0,0.0,3.3807,3.3807,3.3807,3.3807,3.3807,0.0,0.0,0.0,0.0,0.0,0.0,0.0,0.0,0.0,0.0,0.0,0.0,0.0,0.0,0.0,0.0,0.0,0.0,0.0,0.0,0.0,0.0,0.0,0.0,0.0,0.0,0.0,0.0,0.0,0.0,0.0,0.0,0.0,0.0,0.0,0.0,0.0,0.0,0.0,0.0,0.0,0.0,0.0,0.0,0.0,0.0,0.0,0.0,0.0,0.0,0.0,0.0,0.0,0.0,0.0,0.0,0.0,0.0,0.0,0.0,0.0,0.0,0.0,0.0,0.0,0.0,0.0,0.0,0.0,0.0,0.0,0.0,0.0,0.0,0.0,0.0,0.0,0.0,0.0,0.0,0.0,0.0,0.0,0.0,0.0,0.0,0.0,0.0,0.0,0.0,0.0,0.0,0.0,0.0,0.0,0.0,0.0,0.0,0.0,0.0,0.0,0.0,0.0,0.0,0.0,0.0,0.0,0.0,0.0,0.0,0.0,0.0,3.4357,3.4284,3.4064,0.0,0.0,0.0,0.0,0.0,0.0,0.0,0.0,0.0,0.0,0.0,0.0,0.0,0.0,0.0,0.0,0.0,0.0,0.0,0.0,0.0,0.0,0.0,0.0,0.0,0.0,0.0,0.0,0.0,0.0,0.0,0.0,0.0,0.0,0.0,0.0,0.0,0.0,0.0,0.0,0.0,0.0,0.0,0.0,0.0,0.0,0.0,0.0,0.0,0.0,0.0,0.0,0.0,0.0,0.0,0.0,0.0,0.0,0.0,0.0,0.0,0.0,0.0,0.0,0.0,0.0,0.0,0.0,0.0,0.0,0.0,0.0,0.0,0.0,0.0,0.0,0.0,0.0,0.0,0.0,0.0,0.0,0.0,0.0,0.0,0.0,0.0,0.0,0.0,0.0,0.0,0.0,0.0,0.0,0.0,0.0,0.0,0.0,0.0,0.0,0.0,0.0,0.0,0.0,0.0,0.0,0.0,0.0,0.0,0.0,3.5275,3.6046,3.6046,0.0,3.4917,0.0,0.0,0.0,0.0,0.0,0.0,0.0,0.0,0.0,0.0,0.0,0.0,0.0,0.0,0.0,0.0,0.0,0.0,0.0,0.0,0.0,0.0,0.0,0.0,0.0,0.0,0.0,0.0,0.0,0.0,0.0,0.0,0.0,0.0,0.0,0.0,0.0,0.0,0.0,0.0,0.0,0.0,0.0,0.0,0.0,0.0,0.0,0.0,0.0,0.0,0.0,0.0,0.0,0.0,0.0,0.0,0.0,0.0,0.0,0.0,0.0,0.0,0.0,0.0,0.0,0.0,0.0,0.0,0.0,0.0,0.0,0.0,0.0,0.0,0.0,0.0,0.0,0.0,0.0,0.0,0.0,0.0,0.0,0.0,0.0,0.0,0.0,0.0,0.0,0.0,0.0,0.0,0.0,0.0,0.0,0.0,0.0,0.0,0.0,0.0,0.0,0.0,0.0,0.0,0.0,0.0,0.0,0.0,0.0,0.0,3.5422,3.6266,3.5789,3.5357,0.0,0.0,0.0,0.0,0.0,0.0,0.0,0.0,0.0,0.0,0.0,0.0,0.0,0.0,0.0,0.0,0.0,0.0,0.0,0.0,0.0,0.0,0.0,0.0,0.0,0.0,0.0,0.0,0.0,0.0,0.0,0.0,0.0,0.0,0.0,0.0,0.0,0.0,0.0,0.0,0.0,0.0,0.0,0.0,0.0,0.0,0.0,0.0,0.0,0.0,0.0,0.0,0.0,0.0,0.0,0.0,0.0,0.0,0.0,0.0,0.0,0.0,0.0,0.0,0.0,0.0,0.0,0.0,0.0,0.0,0.0,0.0,0.0,0.0,0.0,0.0,0.0,0.0,0.0,0.0,0.0,0.0,0.0,0.0,0.0,0.0,0.0,0.0,0.0,0.0,0.0,0.0,0.0,0.0,0.0,0.0,0.0,0.0,0.0,0.0,0.0,0.0,0.0,0.0,0.0,0.0,0.0,0.0,0.0,0.0,3.521,3.5789,3.6523,3.5826,3.5275,3.499,0.0,0.0,0.0,0.0,0.0,0.0,0.0,0.0,0.0,0.0,0.0,0.0,0.0,0.0,0.0,0.0,0.0,0.0,0.0,0.0,0.0,0.0,0.0,0.0,0.0,0.0,0.0,0.0,0.0,0.0,0.0,0.0,0.0,0.0,0.0,0.0,0.0,0.0,0.0,0.0,0.0,0.0,0.0,0.0,0.0,0.0,0.0,0.0,0.0,0.0,0.0,0.0,0.0,0.0,0.0,0.0,0.0,0.0,0.0,0.0,0.0,0.0,0.0,0.0,0.0,0.0,0.0,0.0,0.0,0.0,0.0,0.0,0.0,0.0,0.0,0.0,0.0,0.0,0.0,0.0,0.0,0.0,0.0,0.0,0.0,0.0,0.0,0.0,0.0,0.0,0.0,0.0,0.0,0.0,0.0,0.0,0.0,0.0,0.0,0.0,0.0,0.0,0.0,0.0,0.0,0.0,0.0,0.0,3.4954,3.5826,3.6633,3.7397,3.667,3.5862,0.0,0.0,0.0,0.0,0.0,0.0,0.0,0.0,0.0,0.0,0.0,0.0,0.0,0.0,0.0,0.0,0.0,0.0,0.0,0.0,0.0,0.0,0.0,0.0,0.0,0.0,0.0,0.0,0.0,0.0,0.0,0.0,0.0,0.0,0.0,0.0,0.0,0.0,0.0,0.0,0.0,0.0,0.0,0.0,0.0,0.0,0.0,0.0,0.0,0.0,0.0,0.0,0.0,0.0,0.0,0.0,0.0,0.0,0.0,0.0,0.0,0.0,0.0,0.0,0.0,0.0,0.0,0.0,0.0,0.0,0.0,0.0,0.0,0.0,0.0,0.0,0.0,0.0,0.0,0.0,0.0,0.0,0.0,0.0,0.0,0.0,0.0,0.0,0.0,0.0,0.0,0.0,0.0,0.0,0.0,0.0,0.0,0.0,0.0,0.0,0.0,0.0,0.0,0.0,0.0,0.0,0.0,0.0,0.0,3.4321,3.6083,3.7301,3.7692,3.6822,3.5642,0.0,0.0,0.0,0.0,0.0,0.0,0.0,0.0,0.0,0.0,0.0,0.0,0.0,0.0,0.0,0.0,0.0,0.0,0.0,0.0,0.0,0.0,0.0,0.0,0.0,0.0,0.0,0.0,0.0,0.0,0.0,0.0,0.0,0.0,0.0,0.0,0.0,0.0,0.0,0.0,0.0,0.0,0.0,0.0,0.0,0.0,0.0,0.0,0.0,0.0,0.0,0.0,0.0,0.0,0.0,0.0,0.0,0.0,0.0,0.0,0.0,0.0,0.0,0.0,0.0,0.0,0.0,0.0,0.0,0.0,0.0,0.0,0.0,0.0,0.0,0.0,0.0,0.0,0.0,0.0,0.0,0.0,0.0,0.0,0.0,0.0,0.0,0.0,0.0,0.0,0.0,0.0,0.0,0.0,0.0,0.0,0.0,0.0,0.0,0.0,0.0,0.0,0.0,0.0,0.0,0.0,0.0,0.0,0.0,3.4776,0.0,3.7757,3.7988,3.698,3.5772,0.0,0.0,0.0,0.0,0.0,0.0,0.0,0.0,0.0,0.0,0.0,0.0,0.0,0.0,0.0,0.0,0.0,0.0,0.0,0.0,0.0,0.0,0.0,0.0,0.0,0.0,0.0,0.0,0.0,0.0,0.0,0.0,0.0,0.0,0.0,0.0,0.0,0.0,0.0,0.0,0.0,0.0,0.0,0.0,0.0,0.0,0.0,0.0,0.0,0.0,0.0,0.0,0.0,0.0,0.0,0.0,0.0,0.0,0.0,0.0,0.0,0.0,0.0,0.0,0.0,0.0,0.0,0.0,0.0,0.0,0.0,0.0,0.0,0.0,0.0,0.0,0.0,0.0,0.0,0.0,0.0,0.0,0.0,0.0,0.0,0.0,0.0,0.0,0.0,0.0,0.0,0.0,0.0,0.0,0.0,0.0,0.0,0.0,0.0,0.0,0.0,0.0,0.0,0.0,0.0,0.0,0.0,0.0,3.4877,3.6694,3.7586,3.8201,3.83,3.7405,3.6359,0.0,0.0,0.0,0.0,0.0,0.0,0.0,0.0,0.0,0.0,0.0,0.0,0.0,0.0,0.0,0.0,0.0,0.0,0.0,0.0,0.0,0.0,0.0,0.0,0.0,0.0,0.0,0.0,0.0,0.0,0.0,0.0,0.0,0.0,0.0,0.0,0.0,0.0,0.0,0.0,0.0,0.0,0.0,0.0,0.0,0.0,0.0,0.0,0.0,0.0,0.0,0.0,0.0,0.0,0.0,0.0,0.0,0.0,0.0,0.0,0.0,0.0,0.0,0.0,0.0,0.0,0.0,0.0,0.0,0.0,0.0,0.0,0.0,0.0,0.0,0.0,0.0,0.0,0.0,0.0,0.0,0.0,0.0,0.0,0.0,0.0,0.0,0.0,0.0,0.0,0.0,0.0,0.0,0.0,0.0,0.0,0.0,0.0,0.0,0.0,0.0,0.0,0.0,0.0,0.0,0.0,0.0,0.0,0.0,3.9527,4.0314,4.0854,4.1094,4.0088,3.8253,0.0,0.0,0.0,0.0,0.0,0.0,0.0,0.0,0.0,0.0,0.0,0.0,0.0,0.0,0.0,0.0,0.0,0.0,0.0,0.0,0.0,0.0,0.0,0.0,0.0,0.0,0.0,0.0,0.0,0.0,0.0,0.0,0.0,0.0,0.0,0.0,0.0,0.0,0.0,0.0,0.0,0.0,0.0,0.0,0.0,0.0,0.0,0.0,0.0,0.0,0.0,0.0,0.0,0.0,0.0,0.0,0.0,0.0,0.0,0.0,0.0,0.0,0.0,0.0,0.0,0.0,0.0,0.0,0.0,0.0,0.0,0.0,0.0,0.0,0.0,0.0,0.0,0.0,0.0,0.0,0.0,0.0,0.0,0.0,0.0,0.0,0.0,0.0,0.0,0.0,0.0,0.0,0.0,0.0,0.0,0.0,0.0,0.0,0.0,0.0,0.0,0.0,0.0,0.0,0.0,0.0,0.0,0.0,0.0,4.5028,4.4688,4.4638,4.4912,4.3246,4.0966,3.8028,0.0,0.0,0.0,0.0,0.0,0.0,0.0,0.0,0.0,0.0,0.0,0.0,0.0,0.0,0.0,0.0,0.0,0.0,0.0,0.0,0.0,0.0,0.0,0.0,0.0,0.0,0.0,0.0,0.0,0.0,0.0,0.0,0.0,0.0,0.0,0.0,0.0,0.0,0.0,0.0,0.0,0.0,0.0,0.0,0.0,0.0,0.0,0.0,0.0,0.0,0.0,0.0,0.0,0.0,0.0,0.0,0.0,0.0,0.0,0.0,0.0,0.0,0.0,0.0,0.0,0.0,0.0,0.0,0.0,0.0,0.0,0.0,0.0,0.0,0.0,0.0,0.0,0.0,0.0,0.0,0.0,0.0,0.0,0.0,0.0,0.0,0.0,0.0,0.0,0.0,0.0,0.0,0.0,0.0,0.0,0.0,0.0,0.0,0.0,0.0,0.0,0.0,0.0,0.0,0.0,0.0,0.0,0.0,5.2683,5.0707,4.967,4.948,4.6885,4.4417,0.0,0.0,0.0,0.0,0.0,0.0,0.0,0.0,0.0,0.0,0.0,0.0,0.0,0.0,0.0,0.0,0.0,0.0,0.0,0.0,0.0,0.0,0.0,0.0,0.0,0.0,0.0,0.0,0.0,0.0,0.0,0.0,0.0,0.0,0.0,0.0,0.0,0.0,0.0,0.0,0.0,0.0,0.0,0.0,0.0,0.0,0.0,0.0,0.0,0.0,0.0,0.0,0.0,0.0,0.0,0.0,0.0,0.0,0.0,0.0,0.0,0.0,0.0,0.0,0.0,0.0,0.0,0.0,0.0,0.0,0.0,0.0,0.0,0.0,0.0,0.0,0.0,0.0,0.0,0.0,0.0,0.0,0.0,0.0,0.0,0.0,0.0,0.0,0.0,0.0,0.0,0.0,0.0,0.0,0.0,0.0,0.0,0.0,0.0,0.0,0.0,0.0,0.0,0.0,0.0,0.0,0.0,0.0,0.0,5.6861,5.9625,5.8977,5.4791,5.2131,4.8653,0.0,0.0,0.0,0.0,0.0,0.0,0.0,0.0,0.0,0.0,0.0,0.0,0.0,0.0,0.0,0.0,0.0,0.0,0.0,0.0,0.0,0.0,0.0,0.0,0.0,0.0,0.0,0.0,0.0,0.0,0.0,0.0,0.0,0.0,0.0,0.0,0.0,0.0,0.0,0.0,0.0,0.0,0.0,0.0,0.0,0.0,0.0,0.0,0.0,0.0,0.0,0.0,0.0,0.0,0.0,0.0,0.0,0.0,0.0,0.0,0.0,0.0,0.0,0.0,0.0,0.0,0.0,0.0,0.0,0.0,0.0,0.0,0.0,0.0,0.0,0.0,0.0,0.0,0.0,0.0,0.0,0.0,0.0,0.0,0.0,0.0,0.0,0.0,0.0,0.0,0.0,0.0,0.0,0.0,0.0,0.0,0.0,0.0,0.0,0.0,0.0,0.0,0.0,0.0,0.0,0.0,0.0,0.0,5.5733,6.1424,6.6154,6.6789,6.3006,5.8104,5.3175,0.0,0.0,0.0,0.0,0.0,0.0,0.0,0.0,0.0,0.0,0.0,0.0,0.0,0.0,0.0,0.0,0.0,0.0,0.0,0.0,0.0,0.0,0.0,0.0,0.0,0.0,0.0,0.0,0.0,0.0,0.0,0.0,0.0,0.0,0.0,0.0,0.0,0.0,0.0,0.0,0.0,0.0,0.0,0.0,0.0,0.0,0.0,0.0,0.0,0.0,0.0,0.0,0.0,0.0,0.0,0.0,0.0,0.0,0.0,0.0,0.0,0.0,0.0,0.0,0.0,0.0,0.0,0.0,0.0,0.0,0.0,0.0,0.0,0.0,0.0,0.0,0.0,0.0,0.0,0.0,0.0,0.0,0.0,0.0,0.0,0.0,0.0,0.0,0.0,0.0,0.0,0.0,0.0,0.0,0.0,0.0,0.0,0.0,0.0,0.0,0.0,0.0,0.0,0.0,0.0,0.0,0.0,0.0,5.9873,6.5796,7.0877,7.3132,7.2138,6.425,5.7668,0.0,0.0,0.0,0.0,0.0,0.0,0.0,0.0,0.0,0.0,0.0,0.0,0.0,0.0,0.0,0.0,0.0,0.0,0.0,0.0,0.0,0.0,0.0,0.0,0.0,0.0,0.0,0.0,0.0,0.0,0.0,0.0,0.0,0.0,0.0,0.0,0.0,0.0,0.0,0.0,0.0,0.0,0.0,0.0,0.0,0.0,0.0,0.0,0.0,0.0,0.0,0.0,0.0,0.0,0.0,0.0,0.0,0.0,0.0,0.0,0.0,0.0,0.0,0.0,0.0,0.0,0.0,0.0,0.0,0.0,0.0,0.0,0.0,0.0,0.0,0.0,0.0,0.0,0.0,0.0,0.0,0.0,0.0,0.0,0.0,0.0,0.0,0.0,0.0,0.0,0.0,0.0,0.0,0.0,0.0,0.0,0.0,0.0,0.0,0.0,0.0,0.0,0.0,0.0,0.0,0.0,0.0,0.0,6.2739,6.9234,7.4316,7.6838,7.6609,6.847,6.144,0.0,0.0,0.0,0.0,0.0,0.0,0.0,0.0,0.0,0.0,0.0,0.0,0.0,0.0,0.0,0.0,0.0,0.0,0.0,0.0,0.0,0.0,0.0,0.0,0.0,0.0,0.0,0.0,0.0,0.0,0.0,0.0,0.0,0.0,0.0,0.0,0.0,0.0,0.0,0.0,0.0,0.0,0.0,0.0,0.0,0.0,0.0,0.0,3.7256,0.0,0.0,0.0,0.0,0.0,0.0,0.0,0.0,0.0,0.0,0.0,0.0,0.0,0.0,0.0,0.0,0.0,0.0,0.0,0.0,0.0,0.0,0.0,0.0,0.0,0.0,0.0,0.0,0.0,0.0,0.0,0.0,0.0,0.0,0.0,0.0,0.0,0.0,0.0,0.0,0.0,0.0,0.0,0.0,0.0,0.0,0.0,0.0,0.0,0.0,0.0,0.0,0.0,0.0,0.0,0.0,0.0,0.0,0.0,6.5413,7.2024,7.6761,7.9169,7.8939,7.2936,6.6246,0.0,0.0,0.0,0.0,0.0,0.0,0.0,0.0,0.0,0.0,0.0,0.0,0.0,0.0,0.0,0.0,0.0,0.0,0.0,0.0,0.0,0.0,0.0,0.0,0.0,0.0,0.0,0.0,0.0,0.0,0.0,0.0,0.0,0.0,0.0,0.0,0.0,0.0,0.0,0.0,0.0,0.0,0.0,0.0,0.0,0.0,0.0,0.0,0.0,0.0,0.0,0.0,0.0,0.0,0.0,0.0,0.0,0.0,0.0,0.0,0.0,0.0,0.0,0.0,0.0,0.0,0.0,0.0,0.0,0.0,0.0,0.0,0.0,0.0,0.0,0.0,0.0,0.0,0.0,0.0,0.0,0.0,0.0,0.0,0.0,0.0,0.0,0.0,0.0,0.0,0.0,0.0,0.0,0.0,0.0,0.0,0.0,0.0,0.0,0.0,0.0,0.0,0.0,0.0,0.0,0.0,0.0,6.0552,6.8126,7.4622,7.9016,8.1156,8.0812,7.6832,7.0751,6.2433,0.0,0.0,0.0,0.0,0.0,0.0,0.0,0.0,0.0,0.0,0.0,0.0,0.0,0.0,0.0,0.0,0.0,0.0,0.0,0.0,0.0,0.0,0.0,0.0,0.0,0.0,0.0,0.0,0.0,0.0,0.0,0.0,0.0,0.0,0.0,0.0,0.0,0.0,3.733,4.1629,0.0,0.0,0.0,0.0,0.0,0.0,0.0,0.0,4.3257,0.0,0.0,0.0,0.0,0.0,0.0,0.0,0.0,0.0,0.0,0.0,0.0,0.0,0.0,0.0,0.0,0.0,0.0,0.0,0.0,0.0,0.0,0.0,0.0,0.0,0.0,0.0,0.0,0.0,0.0,0.0,0.0,0.0,0.0,0.0,0.0,0.0,0.0,0.0,0.0,0.0,0.0,0.0,0.0,0.0,0.0,0.0,0.0,0.0,0.0,0.0,0.0,0.0,0.0,0.0,0.0,5.5312,6.3955,7.1298,7.7258,8.2149,8.4021,8.2531,7.8481,7.2673,6.4993,0.0,0.0,0.0,0.0,0.0,0.0,0.0,0.0,0.0,0.0,0.0,0.0,0.0,0.0,0.0,0.0,0.0,0.0,0.0,0.0,0.0,0.0,0.0,0.0,0.0,0.0,0.0,0.0,0.0,0.0,0.0,0.0,0.0,0.0,0.0,0.0,0.0,0.0,0.0,4.4965,4.7497,0.0,0.0,0.0,0.0,0.0,0.0,0.0,0.0,4.5557,0.0,0.0,0.0,0.0,0.0,0.0,0.0,0.0,0.0,0.0,0.0,0.0,0.0,0.0,0.0,0.0,0.0,0.0,0.0,0.0,0.0,0.0,0.0,0.0,0.0,0.0,0.0,0.0,0.0,0.0,0.0,0.0,0.0,0.0,0.0,0.0,0.0,0.0,0.0,0.0,0.0,0.0,0.0,0.0,0.0,0.0,0.0,0.0,0.0,0.0,0.0,0.0,0.0,0.0,0.0,5.689,6.5442,7.275,7.8557,8.3142,8.4709,8.299,7.9358,7.3466,0.0,0.0,0.0,0.0,0.0,0.0,0.0,0.0,0.0,0.0,0.0,0.0,0.0,0.0,0.0,0.0,0.0,0.0,0.0,0.0,0.0,0.0,0.0,0.0,0.0,0.0,0.0,0.0,0.0,0.0,0.0,0.0,0.0,0.0,0.0,0.0,0.0,0.0,0.0,0.0,4.7571,5.0265,4.9896,0.0,0.0,0.0,0.0,0.0,0.0,5.0518,4.9591,0.0,0.0,0.0,0.0,0.0,0.0,0.0,0.0,0.0,0.0,0.0,0.0,0.0,0.0,0.0,0.0,0.0,0.0,0.0,0.0,0.0,0.0,0.0,0.0,0.0,0.0,0.0,0.0,0.0,0.0,0.0,0.0,0.0,0.0,0.0,0.0,0.0,0.0,0.0,0.0,0.0,0.0,0.0,0.0,0.0,0.0,0.0,0.0,0.0,0.0,0.0,0.0,0.0,0.0,0.0,5.8486,6.6924,7.401,7.9665,8.3868,8.5053,8.3028,7.9815,7.3729,0.0,0.0,0.0,0.0,0.0,0.0,0.0,0.0,0.0,0.0,0.0,0.0,0.0,0.0,0.0,0.0,0.0,0.0,0.0,0.0,0.0,0.0,0.0,0.0,0.0,0.0,0.0,0.0,0.0,0.0,0.0,0.0,0.0,0.0,0.0,0.0,0.0,0.0,0.0,0.0,0.0,5.3027,5.3322,5.3034,0.0,0.0,0.0,0.0,5.5328,5.4931,0.0,0.0,0.0,0.0,0.0,0.0,0.0,0.0,0.0,0.0,0.0,0.0,0.0,0.0,0.0,0.0,0.0,0.0,0.0,0.0,0.0,0.0,0.0,0.0,0.0,0.0,0.0,0.0,0.0,0.0,0.0,0.0,0.0,0.0,0.0,0.0,0.0,0.0,0.0,0.0,0.0,0.0,0.0,0.0,0.0,0.0,0.0,0.0,0.0,0.0,0.0,0.0,0.0,0.0,0.0,0.0,6.1793,6.9713,7.6265,8.1385,8.5626,8.6275,8.3066,7.9742,7.3662,0.0,0.0,0.0,0.0,0.0,0.0,0.0,0.0,0.0,0.0,0.0,0.0,0.0,0.0,0.0,0.0,0.0,0.0,0.0,0.0,0.0,0.0,0.0,0.0,0.0,0.0,0.0,0.0,0.0,0.0,0.0,0.0,0.0,0.0,0.0,0.0,0.0,0.0,0.0,0.0,0.0,5.6066,5.747,5.8295,5.8529,0.0,0.0,5.8684,5.9062,5.8907,0.0,0.0,0.0,0.0,0.0,0.0,0.0,0.0,0.0,0.0,0.0,0.0,0.0,0.0,0.0,0.0,0.0,0.0,0.0,0.0,0.0,0.0,0.0,0.0,0.0,0.0,0.0,0.0,0.0,0.0,0.0,0.0,0.0,0.0,0.0,0.0,0.0,0.0,0.0,0.0,0.0,0.0,0.0,0.0,0.0,0.0,0.0,0.0,0.0,0.0,0.0,0.0,0.0,0.0,0.0,5.3595,6.259,7.0276,7.6876,8.234,8.6161,8.6696,8.3792,8.0009,7.3662,0.0,0.0,0.0,0.0,0.0,0.0,0.0,0.0,0.0,0.0,0.0,0.0,0.0,0.0,0.0,0.0,0.0,0.0,0.0,0.0,0.0,0.0,0.0,0.0,0.0,0.0,0.0,0.0,0.0,0.0,0.0,0.0,0.0,0.0,0.0,0.0,0.0,0.0,0.0,0.0,0.0,0.0,6.1251,6.2748,0.0,0.0,0.0,6.382,6.5498,0.0,0.0,0.0,0.0,0.0,0.0,0.0,0.0,0.0,0.0,0.0,0.0,0.0,0.0,0.0,0.0,0.0,0.0,0.0,0.0,0.0,0.0,0.0,0.0,0.0,0.0,0.0,0.0,0.0,0.0,0.0,0.0,0.0,0.0,0.0,0.0,0.0,0.0,0.0,0.0,0.0,0.0,0.0,0.0,0.0,0.0,0.0,0.0,0.0,0.0,0.0,0.0,0.0,0.0,0.0,0.0,0.0,6.3427,7.0763,7.7373,8.3142,8.6428,8.6963,8.4594,8.0543,0.0,0.0,0.0,0.0,0.0,0.0,0.0,0.0,0.0,0.0,0.0,0.0,0.0,0.0,0.0,0.0,0.0,0.0,0.0,0.0,0.0,0.0,0.0,0.0,0.0,0.0,0.0,2.6612,0.0,0.0,0.0,0.0,0.0,0.0,0.0,0.0,0.0,0.0,0.0,0.0,0.0,0.0,6.1197,6.4803,6.6842,6.8103,0.0,0.0,6.8396,7.0413,6.8733,6.6295,0.0,0.0,0.0,0.0,0.0,0.0,0.0,0.0,0.0,0.0,0.0,0.0,0.0,0.0,0.0,0.0,0.0,0.0,0.0,0.0,0.0,0.0,0.0,0.0,0.0,0.0,0.0,0.0,0.0,0.0,0.0,0.0,0.0,0.0,0.0,0.0,0.0,0.0,0.0,0.0,0.0,0.0,0.0,0.0,0.0,0.0,0.0,0.0,0.0,0.0,0.0,0.0,0.0,0.0,0.0,6.507,7.1947,7.8252,8.4021,8.6772,8.7231,8.5435,8.1421,7.5298,0.0,0.0,0.0,0.0,0.0,0.0,0.0,0.0,0.0,0.0,0.0,0.0,0.0,0.0,0.0,0.0,0.0,0.0,0.0,0.0,0.0,0.0,0.0,0.0,0.0,0.0,0.0,0.0,0.0,0.0,0.0,0.0,0.0,0.0,0.0,0.0,0.0,0.0,0.0,0.0,0.0,6.4053,6.8147,7.0523,7.1901,0.0,0.0,7.221,7.1598,7.1036,6.9206,6.5166,0.0,0.0,0.0,0.0,0.0,0.0,0.0,0.0,0.0,0.0,0.0,0.0,0.0,0.0,0.0,0.0,0.0,0.0,0.0,0.0,0.0,0.0,0.0,0.0,0.0,0.0,0.0,0.0,0.0,0.0,0.0,0.0,0.0,0.0,0.0,0.0,0.0,0.0,0.0,0.0,0.0,0.0,0.0,0.0,0.0,0.0,0.0,0.0,0.0,0.0,0.0,0.0,0.0,5.5288,6.5261,7.2062,7.8596,8.4785,8.704,8.7498,8.6352,8.2263,7.6373,0.0,0.0,0.0,0.0,0.0,0.0,0.0,0.0,0.0,0.0,0.0,0.0,0.0,0.0,0.0,0.0,0.0,0.0,0.0,0.0,0.0,0.0,0.0,0.0,0.0,0.0,0.0,0.0,3.4079,3.5459,3.5395,0.0,0.0,0.0,0.0,0.0,0.0,0.0,0.0,0.0,0.0,6.6812,7.1521,7.4257,0.0,0.0,7.526,7.5145,7.5104,7.3649,7.1151,6.7199,6.2107,0.0,0.0,0.0,0.0,0.0,0.0,0.0,0.0,0.0,0.0,0.0,0.0,0.0,0.0,0.0,0.0,0.0,0.0,0.0,0.0,0.0,0.0,0.0,0.0,0.0,0.0,0.0,0.0,0.0,0.0,0.0,0.0,0.0,0.0,0.0,0.0,0.0,0.0,0.0,0.0,0.0,0.0,0.0,0.0,0.0,0.0,0.0,0.0,0.0,0.0,0.0,0.0,5.5785,6.5299,7.2291,7.8978,8.5358,8.7192,8.7918,8.746,8.3487,7.8097,0.0,0.0,0.0,0.0,0.0,0.0,0.0,0.0,0.0,0.0,0.0,0.0,0.0,0.0,0.0,0.0,0.0,0.0,0.0,0.0,0.0,0.0,0.0,0.0,0.0,0.0,0.0,0.0,3.5762,3.675,3.6445,0.0,0.0,0.0,0.0,0.0,0.0,0.0,0.0,0.0,0.0,6.9419,7.4231,7.6748,7.7993,7.7716,7.7176,7.6766,7.6562,7.5014,7.2506,6.8625,0.0,0.0,0.0,0.0,0.0,0.0,0.0,0.0,0.0,0.0,0.0,0.0,0.0,0.0,0.0,0.0,0.0,0.0,0.0,0.0,0.0,0.0,0.0,0.0,0.0,0.0,0.0,0.0,0.0,0.0,2.8911,0.0,0.0,0.0,0.0,0.0,0.0,0.0,0.0,0.0,0.0,0.0,0.0,0.0,0.0,0.0,0.0,0.0,0.0,0.0,0.0,0.0,0.0,5.6931,6.5337,7.2864,7.9551,8.532,8.7192,8.8453,8.9065,8.5207,8.058,7.5306,0.0,0.0,0.0,0.0,0.0,0.0,0.0,0.0,0.0,0.0,0.0,0.0,0.0,0.0,0.0,0.0,0.0,0.0,0.0,0.0,0.0,0.0,0.0,0.0,0.0,0.0,3.6559,3.7392,3.7448,0.0,0.0,0.0,0.0,0.0,0.0,0.0,0.0,0.0,0.0,6.5759,7.1789,7.5994,7.7713,7.8515,7.8438,7.7784,7.6707,7.5091,7.4745,7.3245,0.0,0.0,0.0,0.0,0.0,0.0,0.0,0.0,0.0,0.0,0.0,0.0,0.0,0.0,0.0,0.0,0.0,0.0,0.0,0.0,0.0,0.0,0.0,0.0,0.0,0.0,0.0,3.8108,3.7003,0.0,0.0,0.0,0.0,0.0,0.0,0.0,0.0,0.0,0.0,0.0,5.0344,5.0941,0.0,0.0,0.0,0.0,0.0,0.0,0.0,0.0,0.0,0.0,0.0,0.0,5.7504,6.6865,7.3972,8.043,8.6199,8.8033,8.9027,8.9256,8.6315,8.0505,7.1625,0.0,0.0,0.0,0.0,0.0,0.0,0.0,0.0,0.0,0.0,0.0,0.0,0.0,0.0,0.0,0.0,0.0,0.0,0.0,0.0,0.0,0.0,0.0,0.0,0.0,3.7592,0.0,0.0,0.0,0.0,0.0,0.0,0.0,0.0,0.0,0.0,0.0,5.6814,6.349,6.854,7.2908,7.6593,7.8377,7.8977,0.0,0.0,0.0,0.0,0.0,0.0,0.0,0.0,0.0,0.0,0.0,0.0,0.0,0.0,5.6923,5.3647,5.2604,5.2303,5.2342,0.0,0.0,0.0,0.0,0.0,0.0,0.0,0.0,0.0,0.0,0.0,0.0,0.0,0.0,0.0,0.0,4.2082,0.0,0.0,0.0,0.0,0.0,0.0,0.0,0.0,5.2211,5.5121,5.7289,5.7838,5.808,0.0,5.5798,5.1905,0.0,0.0,0.0,0.0,0.0,0.0,0.0,0.0,5.9415,6.8203,7.5271,8.1461,8.6581,8.8453,8.9447,8.9676,8.6428,8.0467,7.1803,6.5685,5.9446,0.0,0.0,0.0,0.0,0.0,0.0,0.0,0.0,0.0,0.0,0.0,0.0,0.0,0.0,0.0,0.0,0.0,0.0,0.0,0.0,0.0,0.0,0.0,4.05,0.0,0.0,0.0,0.0,0.0,0.0,0.0,0.0,0.0,5.0534,5.5503,6.1201,6.696,7.0815,7.4207,7.7284,0.0,0.0,0.0,0.0,0.0,0.0,0.0,7.584,7.3929,7.274,7.156,7.0151,6.8937,6.8267,6.8464,0.0,0.0,5.9775,5.8603,5.8467,5.8554,5.8868,5.9171,5.9287,6.0395,6.149,0.0,0.0,0.0,0.0,0.0,0.0,0.0,0.0,5.1348,5.1665,0.0,4.9196,0.0,0.0,0.0,0.0,0.0,0.0,0.0,0.0,5.8732,6.167,6.3463,6.489,6.4795,6.3378,6.3102,6.1371,5.7901,4.9255,0.0,0.0,0.0,0.0,0.0,0.0,6.2548,6.9387,7.68,8.2607,8.6734,8.8492,8.9752,9.0402,8.5779,8.0886,7.6043,7.0984,6.5701,5.9988,5.4809,0.0,0.0,0.0,0.0,0.0,0.0,0.0,0.0,0.0,0.0,0.0,0.0,0.0,0.0,0.0,0.0,0.0,0.0,0.0,0.0,4.3521,0.0,0.0,0.0,0.0,0.0,0.0,0.0,0.0,0.0,0.0,5.5899,6.0665,6.5571,6.9371,0.0,0.0,0.0,0.0,7.9208,8.0862,8.0439,7.9939,7.9939,7.99,7.9361,7.7746,0.0,0.0,7.623,7.5304,7.4635,7.471,7.393,7.1616,6.5596,6.4138,6.3752,6.3696,6.4325,6.5027,6.5938,6.6926,6.8296,6.1429,0.0,0.0,0.0,0.0,5.3772,5.5193,5.6675,5.785,5.795,5.7112,5.5376,0.0,0.0,0.0,0.0,0.0,0.0,5.7134,6.0687,6.3691,6.6576,6.9306,6.9199,6.9475,7.0157,6.8395,6.6461,6.4346,6.0633,5.5807,5.0172,0.0,0.0,0.0,0.0,6.5413,7.2635,7.9054,8.4059,8.7651,8.937,9.0058,8.9676,8.7116,8.3945,8.0298,7.589,7.1189,6.6026,6.0339,0.0,0.0,0.0,0.0,0.0,0.0,0.0,0.0,0.0,0.0,0.0,0.0,0.0,0.0,0.0,0.0,0.0,0.0,0.0,4.7034,4.8936,4.9007,0.0,0.0,0.0,0.0,0.0,0.0,0.0,0.0,0.0,6.5114,6.6957,6.9299,0.0,0.0,7.7246,7.9169,7.9939,8.0746,8.1785,0.0,0.0,0.0,8.2516,8.2362,8.1862,8.1228,8.0725,8.0434,7.9129,7.809,7.809,7.7422,7.625,7.4592,7.2021,7.0509,7.0522,7.062,7.0791,7.105,7.1547,7.2118,7.0602,6.4804,6.0934,5.9244,5.935,6.081,6.2271,6.3603,6.4591,6.4754,6.4193,6.2198,6.0339,5.8565,5.5805,0.0,0.0,0.0,6.2746,6.5805,6.8618,7.1189,7.3384,7.3622,7.4044,7.458,7.2778,7.1083,6.9481,6.7845,6.4552,5.9599,0.0,0.0,5.9163,6.3618,6.912,7.5615,8.1156,8.5473,8.853,8.9905,9.002,8.8835,8.7539,8.5322,8.2099,7.8607,7.4827,7.0563,6.4987,5.9344,0.0,0.0,0.0,0.0,0.0,0.0,0.0,0.0,0.0,0.0,0.0,3.3658,3.4835,0.0,0.0,0.0,4.4903,4.9058,5.2564,5.3503,0.0,0.0,0.0,0.0,0.0,0.0,0.0,5.9519,6.3447,6.7467,7.164,7.3063,7.4293,7.5976,7.7707,7.94,8.1093,0.0,8.2593,8.4093,8.4786,8.5209,8.5555,8.5593,8.5632,8.5593,8.4978,8.4453,8.441,8.2869,8.1604,8.1454,8.0615,7.9777,7.9605,7.7856,7.6058,7.5097,7.4805,7.4826,7.5123,7.5288,7.5692,7.8269,7.6715,7.0021,6.6537,6.5678,6.7859,6.9321,7.0271,7.1139,7.1601,7.1446,6.9204,6.7131,6.518,6.2606,0.0,6.3924,6.5575,6.7686,7.0239,7.3351,7.534,7.6331,7.7693,7.8007,7.7239,7.637,7.5142,7.359,7.2054,7.0825,6.9893,6.4523,6.241,6.3886,6.8425,7.3284,7.8252,8.3181,8.6963,8.9447,9.0287,8.9905,8.8262,8.7349,8.5398,8.2249,7.9709,7.6893,7.364,6.8646,6.3602,5.8577,0.0,0.0,0.0,0.0,0.0,0.0,0.0,0.0,0.0,0.0,0.0,0.0,0.0,0.0,0.0,5.0772,0.0,5.7434,5.7588,0.0,0.0,0.0,5.5738,5.6835,5.9397,6.2289,6.5474,0.0,0.0,7.587,0.0,7.9939,7.9208,8.0439,8.2016,8.367,8.3901,8.4786,8.7132,8.7555,8.7902,8.8556,8.8748,8.8709,8.8709,8.8385,8.7842,8.7565,8.5963,8.4825,8.4542,8.3377,8.2132,8.1733,8.1468,8.075,7.8014,7.7422,7.7608,7.8165,7.8351,7.8888,8.213,8.0331,7.781,7.5121,7.2538,7.2353,7.3129,7.4476,7.4753,7.505,7.5216,7.3839,7.1998,6.9817,6.8354,6.8287,6.9385,7.094,7.2678,7.4524,7.5985,7.7416,7.8807,7.8545,7.8622,7.9006,7.8168,7.7309,7.637,7.5848,7.4888,7.3524,7.2472,7.1267,6.9896,7.2811,7.6526,8.085,8.5244,8.8683,9.109,9.1395,9.0708,8.9065,8.7575,8.5628,8.3058,7.988,7.6996,7.4388,6.9979,6.5513,6.1107,5.5033,0.0,0.0,0.0,0.0,0.0,0.0,0.0,0.0,0.0,3.9674,4.22,0.0,4.796,0.0,5.6472,6.0839,6.2627,6.2781,0.0,0.0,6.2142,6.2771,6.4346,6.6254,6.8279,7.0315,7.3581,7.6494,7.8669,8.1708,8.3862,8.4209,8.4093,8.4593,8.6209,8.6478,8.7132,8.8863,8.9286,8.9633,9.0402,9.0594,9.0556,9.0594,8.9688,8.8752,8.8364,8.6528,8.5033,8.4943,8.3913,8.3114,8.3284,8.3077,8.237,8.112,8.0282,7.9874,8.0097,8.0097,8.0563,8.5242,8.4026,8.1848,8.0067,7.8515,7.6958,7.7053,7.8246,7.8353,7.8708,7.9192,7.7563,7.5682,7.3767,7.3159,7.3315,7.4099,7.4938,7.6002,7.713,7.8015,7.9062,8.0299,8.0184,8.0382,8.0773,7.9998,7.9184,7.8377,7.7916,7.7293,7.6399,7.7124,7.7144,7.6536,7.7705,8.0237,8.4021,8.7804,9.0249,9.1204,9.0899,8.9523,8.7154,8.5857,8.3715,8.0566,7.7888,7.5577,7.3552,7.0026,6.6528,6.3006,5.7939,5.2996,0.0,0.0,0.0,0.0,0.0,0.0,0.0,0.0,0.0,0.0,0.0,5.3454,5.7781,6.1887,6.4987,6.6705,6.6859,6.6859,6.6859,6.7205,6.809,6.9783,7.1475,7.3168,7.4822,7.7361,7.9631,8.1323,8.3785,8.5901,8.7055,8.7171,8.7478,8.8286,8.8517,8.8979,9.0248,9.0787,9.121,9.171,9.1441,9.121,9.1136,9.0568,8.9955,8.9634,8.8352,8.7186,8.6723,8.5819,8.495,8.4656,8.4193,8.3613,8.3004,8.2276,8.1694,8.136,8.1438,8.1954,8.7612,8.7,8.3858,8.283,8.3081,8.113,8.07,8.1338,8.1501,8.2058,8.2661,8.0572,7.8847,7.7486,7.7204,7.7467,7.8131,7.8099,7.8386,7.9015,7.9862,8.0669,8.1439,8.2131,8.2446,8.2342,8.1715,8.0984,8.019,7.9485,7.9131,7.9169,7.9869,8.1068,8.2583,8.2528,8.4098,8.7422,9.044,9.1586,9.0784,8.9791,8.773,8.4519,8.3408,8.1026,7.7061,7.5142,7.3445,7.1824,6.9442,6.7055,6.469,6.0884,5.6855,0.0,5.0397,0.0,0.0,0.0,0.0,0.0,0.0,0.0,0.0,5.5415,5.9115,6.491,6.6936,6.859,7.0167,7.0437,7.0552,7.0667,7.1283,7.2399,7.413,7.5707,7.7246,7.8784,8.0516,8.2208,8.3708,8.5401,8.7094,8.8517,8.9402,8.9863,9.0056,9.0056,9.0287,9.1133,9.1941,9.2364,9.2518,9.2056,9.1556,9.1441,9.1367,9.129,9.0951,9.0221,8.9489,8.8762,8.7693,8.6661,8.5664,8.5013,8.439,8.3779,8.334,8.2846,8.2347,8.2408,8.32,8.8818,8.656,8.5894,8.4779,8.3519,8.3072,8.267,8.2328,8.2931,8.3436,8.3834,8.3064,8.2491,8.2084,8.045,8.0126,8.0883,8.0601,8.0846,8.1593,8.2477,8.2978,8.3131,8.3285,8.3362,8.3362,8.3208,8.3054,8.283,8.2644,8.2567,8.2631,8.2655,8.3435,8.5049,0.0,0.0,0.0,9.216,9.2427,9.1586,9.0096,8.781,8.4694,8.249,0.0,7.6398,7.3933,7.1838,7.0057,6.8819,0.0,0.0,0.0,0.0,0.0,0.0,0.0,0.0,0.0,0.0,0.0,6.1272,6.1057,5.8577,6.226,6.6192,6.9436,7.1283,7.2668,7.3668,7.4399,7.5091,7.5784,7.5976,7.6746,7.8438,7.9515,8.0516,8.1477,8.3093,8.4516,8.5517,8.7132,8.8556,8.9479,9.0402,9.0941,9.0941,9.0902,9.1018,9.1248,9.2018,9.2749,9.3364,9.3287,9.2864,9.2479,9.2249,9.1833,9.0837,8.9954,8.9341,8.9035,8.7447,8.6203,8.5842,8.4892,8.4012,8.3433,8.3297,8.3143,8.2994,8.3037,8.3433,8.9951,0.0,8.7696,8.6842,0.0,8.5956,8.5751,8.5408,8.4688,8.4621,8.5004,8.4854,8.4558,8.4083,8.3059,8.2766,8.3081,8.2883,8.2941,8.3244,8.367,8.4095,8.4521,8.4521,8.4521,8.4468,8.4435,8.4185,8.3702,8.3587,8.3561,8.3632,8.4335,8.5305,8.6611,8.8537,9.03,9.1778,9.2656,9.2274,9.0631,8.9332,8.7045,8.3599,0.0,0.0,0.0,0.0,0.0,0.0,0.0,0.0,0.0,0.0,0.0,6.3045,6.2471,6.186,6.1134,6.2959,6.4767,6.6116,6.8618,6.851,6.4808,6.8025,7.0975,7.2629,7.4361,7.5707,7.6476,7.6976,7.7592,7.84,7.8938,7.9669,8.0862,8.1823,8.2631,8.3516,8.4709,8.5824,8.6671,8.8248,8.9363,8.9863,9.0671,9.121,9.121,9.121,9.1441,9.2249,9.2364,9.2941,9.4018,9.3941,9.3595,9.3172,9.2749,9.2254,9.1567,9.0724,9.0033,8.9535,8.8536,8.7725,8.6894,8.5763,8.4745,8.4199,8.3636,8.3217,8.318,8.3376,8.3747,9.1326,9.0732,8.9519,8.8842,8.8569,8.853,8.8598,8.852,0.0,0.0,0.0,8.655,8.6158,8.5456,8.5129,8.4971,8.4961,8.4935,8.4926,8.4903,8.5058,8.5486,8.6185,8.6185,8.6107,8.6105,8.5971,8.5475,8.475,8.4588,8.4504,8.4632,8.5901,8.6978,8.7944,9.0759,9.2066,9.1709,9.247,9.1778,8.96,8.8606,8.6393,8.2771,8.1008,7.871,7.576,7.3909,7.2481,7.1428,7.1329,7.093,7.0145,7.026,6.9649,6.8165,6.8165,6.8234,6.8119,6.9705,7.1068,7.2003,7.4081,7.4168,7.1245,7.2976,7.4514,7.5322,7.6938,7.8246,7.89,7.9246,7.9669,8.04,8.1131,8.19,8.2862,8.3593,8.4439,8.5401,8.6209,8.6901,8.7786,8.9017,9.0017,9.021,9.0787,9.121,9.121,9.121,9.1787,9.3172,9.3133,9.3326,9.4672,9.4711,9.4134,9.3941,9.3249,9.271,9.2402,9.1787,9.0979,9.029,9.0056,8.934,8.8303,8.7002,8.5971,8.5418,8.4292,8.3403,8.3425,8.3583,8.3922,9.3272,9.1703,9.149,9.0538,8.9178,8.9178,8.9307,8.9469,8.9192,8.909,8.9131,8.8579,8.8266,8.8064,8.6395,8.6065,8.6702,8.6527,8.6865,0.0,8.8245,8.8672,8.875,8.875,8.8789,8.873,8.8709,8.8561,8.83,8.8207,8.8142,8.7974,8.8209,8.8714,8.953,9.1184,9.1719,9.1068,9.1793,9.1594,9.044,8.8912,8.7003,8.4772,8.2883,8.0845,7.8585,7.673,7.5195,7.4128,7.4059,7.389,7.3614,7.4265,7.4231,7.3284,7.3887,7.4068,7.3418,7.4938,7.6338,7.7239,7.7724,7.7476,7.6361,7.6553,7.7092,7.7938,7.9477,8.0592,8.0823,8.1939,8.2747,8.2978,8.317,8.3862,8.5324,8.567,8.6324,8.7786,8.8248,8.8594,8.9286,8.9748,9.0248,9.0825,9.1095,9.121,9.1287,9.121,9.1902,9.3249,9.3633,9.4249,9.5557,9.6019,9.5518,9.4903,9.4095,9.3326,9.2672,9.1902,9.1248,9.1018,9.0441,8.976,8.907,8.7883,8.6879,8.6245,8.5171,8.4317,8.422,8.3876,8.3712,9.4223,9.3317,9.3414,9.2749,9.1559,9.1222,9.1131,9.1213,9.1213,9.0706,8.9847,8.954,8.9398,8.932,8.8462,8.8287,8.8677,8.8584,8.8755,8.9144,8.9534,8.969,8.9651,8.969,8.9651,8.9651,8.9567,8.9391,8.9159,8.9049,8.8905,8.8743,8.9133,8.9752,9.0562,9.1719,9.1797,9.0992,9.1602,9.125,9.0026,8.9182,8.8037,8.6517,8.5187,8.3683,8.1924,8.06,7.9301,7.8046,7.8046,7.7943,7.7883,7.8194,7.8003,7.7165,7.7467,7.7385,7.6547,7.7719,7.9044,8.0376,8.0523,8.0631,8.0708,7.9438,7.9015,7.9862,8.1054,8.1939,8.2401,8.3131,8.3939,8.4863,8.4978,8.567,8.7171,8.7517,8.7825,8.8594,8.9094,8.9517,8.9863,9.0325,9.071,9.1133,9.121,9.1364,9.1825,9.1941,9.2326,9.348,9.4095,9.4903,9.6057,9.6288,9.6134,9.5749,9.498,9.4134,9.3287,9.2441,9.1787,9.1287,9.0825,9.0452,8.9952,8.8759,8.775,8.7072,8.5993,8.5172,8.5023,8.4797,8.4896,9.5236,9.489,9.5055,9.455,9.3548,9.3006,9.2678,9.2522,9.2678,9.2053,9.0921,9.0492,9.0296,9.0257,9.0101,9.0101,9.0296,9.0296,9.0374,9.057,9.057,9.0648,9.0843,9.0843,9.096,9.1109,9.1008,9.0765,9.0558,9.0128,8.9813,8.9662,9.0171,9.0902,9.1748,9.2405,9.2369,9.1681,9.1987,9.1406,8.9839,8.9641,8.915,8.8295,8.7505,8.6583,8.5374,8.4413,8.3448,8.2381,8.1963,8.1738,8.1598,8.1444,8.1061,8.0447,8.0404,8.0169,7.9632,8.0158,8.1145,8.2439,8.2593,8.2862,8.3324,8.2016,8.1131,8.167,8.2631,8.3478,8.4093,8.4632,8.5286,8.6517,8.6671,8.7286,8.8671,8.8979,8.9056,8.9286,8.9825,9.021,9.0325,9.0787,9.1248,9.1479,9.1518,9.1864,9.2595,9.2903,9.3364,9.3864,9.4557,9.5288,9.6095,9.6288,9.6288,9.6288,9.5557,9.4749,9.398,9.321,9.2364,9.1672,9.1325,9.1026,9.0568,8.9697,8.8739,8.8164,8.7061,8.6021,8.5581,8.5712,8.5885,9.6917,9.6284,9.6254,9.5278,9.3873,9.3724,9.3263,9.2717,9.3341,9.3615,9.3224,9.1858,9.1194,9.1077,9.0413,9.0492,9.1155,9.1194,9.1546,9.217,9.2248,9.2678,9.3302,9.338,9.3849,9.4434,9.4427,9.4167,9.392,9.3143,9.2522,9.2203,9.2249,9.2633,9.3364,9.3484,9.3484,9.3441,9.3294,9.237,9.0719,9.052,9.0338,8.9991,8.9542,8.9183,8.8732,8.763,8.6935,8.6607,8.5151,8.4276,8.4056,8.3441,8.3019,8.2871,8.2975,8.3111,8.3061,8.3208,8.3285,8.3439,8.3555,8.3632,8.3785,8.417,8.4093,8.3862,8.4863,8.5632,8.5978,8.7132,8.7979,8.8209,8.8363,8.8825,8.9594,8.9787,9.0094,9.0902,9.0902,9.1095,9.1095,9.1287,9.1595,9.2287,9.2364,9.2672,9.348,9.4095,9.4595,9.4788,9.5018,9.5365,9.6095,9.6288,9.6288,9.6249,9.5595,9.5057,9.4557,9.3633,9.2441,9.221,9.1748,9.129,9.0989,9.0607,8.9996,8.9161,8.8119,8.7024,8.6058,8.6125,8.6327,9.7479,9.7167,9.7167,9.6464,9.5325,9.4646,9.4266,9.4076,9.4256,9.4461,9.4434,9.3302,9.2756,9.2717,9.1858,9.1702,9.2014,9.2014,9.217,9.2522,9.3029,9.3458,9.381,9.4317,9.4786,9.5059,9.5098,9.5017,9.4715,9.4069,9.3543,9.3243,9.321,9.3364,9.371,9.4174,9.4212,9.3749,9.4024,9.3521,9.2446,9.2253,9.2219,9.2151,9.2122,9.1842,9.1233,9.0304,8.953,8.8829,8.7714,8.6991,8.6811,8.6576,8.5996,8.4969,8.4498,8.433,8.4401,8.4824,8.5286,8.5786,8.5824,8.6055,8.6555,8.694,8.6978,8.6748,8.6786,8.7055,8.7632,8.8286,8.8863,8.9286,8.9402,8.9748,9.0556,9.0671,9.0864,9.1171,9.121,9.1441,9.1902,9.2402,9.2787,9.3133,9.321,9.3557,9.4326,9.4788,9.5172,9.5634,9.5788,9.5903,9.6249,9.6288,9.6288,9.6249,9.6019,9.5711,9.498,9.4595,9.3749,9.2749,9.221,9.171,9.1248,9.0762,9.0236,8.9621,8.8746,8.7571,8.651,8.6949,8.721,9.7675,9.7675,9.7675,9.7206,9.634,9.5485,9.5096,9.5046,9.5083,9.5212,9.529,9.4731,9.4512,9.4317,9.3107,9.2482,9.2522,9.2756,9.2834,9.2951,9.3732,9.4278,9.4552,9.5137,9.5567,9.5762,9.584,9.5602,9.5197,9.4746,9.4394,9.4189,9.409,9.4172,9.4441,9.5057,9.5057,9.4557,9.4907,9.4829,9.4175,9.4138,9.3985,9.3595,9.3666,9.35,9.3013,9.2434,9.1644,9.0633,8.9825,8.9213,8.8877,8.879,8.8098,8.6876,8.6252,8.594,8.594,8.6478,8.7094,8.7671,8.7748,8.8017,8.8594,8.8902,8.9133,8.9325,8.9017,8.9094,8.9248,8.9594,9.0017,9.0517,9.0594,9.0902,9.1441,9.1556,9.1633,9.1825,9.2056,9.2095,9.2749,9.3287,9.3672,9.398,9.4057,9.4364,9.5095,9.5403,9.5595,9.6211,9.6288,9.6288,9.6288,9.6288,9.6288,9.6288,9.6249,9.6019,9.5403,9.5249,9.4903,9.371,9.3018,9.2364,9.1825,9.1184,9.036,8.9649,8.8877,8.8153,8.7556,8.8103,8.8305,9.7675,9.7675,9.7675,9.7245,9.6379,9.607,9.5548,9.5055,9.5611,9.5937,9.6005,9.6119,9.623,9.5996,9.3693,9.2561,9.2678,9.338,9.3732,9.381,9.463,9.5488,9.6269,9.6347,9.6738,9.7323,9.7323,9.6929,9.6054,9.5788,9.5505,9.5206,9.5041,9.5326,9.5942,9.6095,9.6211,9.6019,9.6058,9.6021,9.5787,9.5983,9.5249,9.3897,9.3524,9.3713,9.3792,9.3697,9.3172,9.2402,9.1518,9.0675,8.9835,8.9098,8.8671,8.8556,8.8517,8.8517,8.8479,8.8632,8.8748,8.8748,8.8979,8.8786,8.9171,8.9748,9.0402,9.1018,9.1633,9.1748,9.1364,9.171,9.2095,9.2249,9.2326,9.2364,9.2402,9.2441,9.2826,9.3287,9.3441,9.3518,9.3633,9.3672,9.421,9.4711,9.4941,9.5211,9.5865,9.6134,9.6211,9.6249,9.6288,9.6288,9.6288,9.6288,9.6288,9.6288,9.6288,9.6249,9.598,9.5634,9.5172,9.4518,9.348,9.2749,9.2402,9.1682,9.0717,8.9969,8.93,8.8671,8.841,8.8636,8.8909,9.7675,9.7675,9.7675,9.7518,9.719,9.6826,9.6524,9.639,9.6545,9.6737,9.6731,9.6539,9.6425,9.6308,9.4825,9.4161,9.42,9.4512,9.463,9.4747,9.5527,9.6113,9.6425,9.6933,9.7362,9.7636,9.7675,9.7436,9.6912,9.6604,9.6422,9.6125,9.5928,9.6019,9.6249,9.6288,9.6288,9.6288,9.6213,9.6098,9.5941,9.5981,9.5752,9.5247,9.5176,9.5137,9.5174,9.4675,9.4291,9.4095,9.2787,9.1867,9.1372,9.0142,8.9409,8.9517,8.9979,9.0287,9.0402,9.1287,9.1902,9.1902,9.1902,9.1787,9.1941,9.2172,9.2479,9.2787,9.3018,9.3249,9.3557,9.3441,9.3249,9.3287,9.3249,9.3287,9.3249,9.3249,9.3364,9.371,9.4134,9.4518,9.4634,9.5018,9.548,9.5749,9.5826,9.5942,9.6172,9.6288,9.6288,9.6288,9.6288,9.6288,9.6288,9.6288,9.6288,9.6288,9.6288,9.6288,9.6095,9.6057,9.5711,9.5057,9.398,9.3095,9.271,9.1567,9.0679,9.0236,8.9601,8.9352,8.93,8.9402,8.9792,9.7611,9.7675,9.7675,9.7675,9.7659,9.7294,9.7186,9.7286,9.7168,9.7186,9.7199,9.6968,9.6816,9.6738,9.6191,9.5957,9.5918,9.5645,9.5527,9.5606,9.6425,9.6816,9.6933,9.7401,9.7675,9.7675,9.7675,9.7602,9.7396,9.7149,9.6873,9.6732,9.642,9.6288,9.6288,9.6288,9.6288,9.6288,9.6213,9.6098,9.5981,9.6019,9.6059,9.6132,9.6171,9.6207,9.6168,9.563,9.5241,9.4964,9.3936,9.3136,9.2676,9.1679,9.11,9.121,9.1672,9.2018,9.2133,9.3095,9.3672,9.3672,9.3672,9.3672,9.3672,9.3672,9.3826,9.4018,9.4134,9.448,9.5057,9.4903,9.4441,9.421,9.4095,9.4095,9.4095,9.4095,9.4249,9.4634,9.5095,9.5365,9.548,9.5942,9.6172,9.6288,9.6288,9.6288,9.6288,9.6288,9.6288,9.6288,9.6288,9.6288,9.6288,9.6288,9.6288,9.6288,9.6288,9.6288,9.6288,9.6288,9.6095,9.5441,9.4634,9.371,9.2676,9.1491,9.0836,9.0482,9.0193,8.9885,8.9931,9.0105,9.0402,9.7472,9.7667,9.7675,9.7675,9.7659,9.7383,9.7301,9.7301,9.7286,9.7286,9.7316,9.7515,9.7558,9.7597,9.744,9.7558,9.7323,9.6699,9.6425,9.6503,9.7245,9.7597,9.7597,9.7636,9.7792,9.7831,9.7792,9.7831,9.7893,9.7533,9.7215,9.6989,9.6635,9.6403,9.6288,9.6288,9.6288,9.6288,9.6288,9.6213,9.6136,9.6213,9.6248,9.6236,9.6442,9.659,9.6812,9.6609,9.6104,9.5447,9.5041,9.4518,9.371,9.3403,9.3518,9.3403,9.3595,9.3672,9.3672,9.3787,9.398,9.398,9.3826,9.398,9.4057,9.398,9.4249,9.4826,9.5018,9.5326,9.6019,9.6095,9.5749,9.5172,9.5018,9.5018,9.5018,9.5018,9.5288,9.5903,9.6134,9.6249,9.6249,9.6249,9.6288,9.6288,9.6288,9.6288,9.6288,9.6288,9.6288,9.6288,9.6288,9.6288,9.6288,9.6288,9.6288,9.6288,9.6288,9.6288,9.6288,9.6288,9.6288,9.5749,9.4826,9.3864,9.2749,9.1642,9.1068,9.0684,9.0485,9.0402,9.0485,9.0605,9.0722,9.7611,9.7675,9.7675,9.7675,9.7667,9.7409,9.7301,9.7301,9.7301,9.7301,9.733,9.7593,9.7675,9.7675,9.7675,9.7675,9.7675,9.7401,9.7284,9.7323,9.7558,9.7714,9.7714,9.7714,9.8026,9.8612,9.9197,9.947,9.9358,9.8917,9.8481,9.7882,9.7401,9.6825,9.6365,9.6288,9.6288,9.6288,9.6288,9.6251,9.6098,9.6251,9.639,9.6619,9.6747,9.7027,9.7271,9.6824,9.6444,9.6164,9.5422,9.4595,9.3903,9.3672,9.3672,9.3749,9.4287,9.4595,9.4672,9.5134,9.5441,9.548,9.548,9.548,9.548,9.5441,9.5557,9.5865,9.5903,9.6057,9.6211,9.6288,9.6134,9.5942,9.5903,9.5826,9.5826,9.5865,9.6019,9.6211,9.6288,9.6288,9.6288,9.6288,9.6288,9.6288,9.6288,9.6288,9.6288,9.6288,9.6288,9.6288,9.6288,9.6288,9.6288,9.6288,9.6288,9.6288,9.6288,9.6288,9.6288,9.6288,9.6288,9.5942,9.5018,9.4018,9.2864,9.1982,9.141,9.1028,9.0915,9.0876,9.0952,9.0989,9.1064,9.7602,9.7675,9.7675,9.7675,9.7667,9.7533,9.746,9.746,9.746,9.746,9.7483,9.7611,9.7675,9.7675,9.7675,9.7675,9.7675,9.7675,9.7675,9.7675,9.7675,9.7831,9.8182,9.8533,9.8924,9.947,10.0056,10.0329,10.0282,9.9752,9.9258,9.8721,9.8251,9.7557,9.6826,9.6749,9.6634,9.6365,9.6288,9.6251,9.6251,9.6558,9.6733,9.6831,9.7159,9.746,9.7461,9.703,9.6773,9.6627,9.5914,9.5211,9.4711,9.4711,9.4672,9.4788,9.5134,9.548,9.5557,9.5942,9.648,9.6634,9.6749,9.6903,9.7057,9.7019,9.6749,9.6749,9.6442,9.6288,9.6288,9.6288,9.6288,9.6288,9.6249,9.6288,9.6288,9.6288,9.6288,9.6288,9.6288,9.6288,9.6288,9.6288,9.6288,9.6288,9.6288,9.6288,9.6288,9.6288,9.6288,9.6288,9.6288,9.6288,9.6288,9.6288,9.6288,9.6288,9.6288,9.6288,9.6288,9.6288,9.6288,9.6019,9.5288,9.4403,9.3287,9.2441,9.179,9.1556,9.121,9.1136,9.11,9.11,9.1136,9.7538,9.7792,9.7831,9.7909,9.7831,9.7823,9.7784,9.7706,9.7667,9.7667,9.7667,9.7675,9.7675,9.7675,9.7675,9.7675,9.7714,9.787,9.7909,9.7948,9.8026,9.8455,9.908,9.9822,10.0251,10.0368,10.0524,10.0563,10.0673,10.0201,9.9607,9.9561,9.9062,9.8404,9.775,9.7596,9.7211,9.6557,9.6442,9.6442,9.648,9.7057,9.7318,9.6924,9.7768,9.8101,9.7783,9.7683,9.7362,9.6998,9.6474,9.6168,9.6211,9.6288,9.6134,9.6057,9.6249,9.6211,9.6249,9.6249,9.6596,9.725,9.7403,9.7865,9.8288,9.7942,9.748,9.7326,9.6826,9.6403,9.6365,9.6288,9.6288,9.6288,9.6288,9.6288,9.6288,9.6288,9.6288,9.6288,9.6288,9.6288,9.6288,9.6288,9.6288,9.6288,9.6288,9.6288,9.6288,9.6288,9.6288,9.6288,9.6288,9.6288,9.6288,9.6288,9.6288,9.6288,9.6288,9.6288,9.6288,9.6288,9.6288,9.6019,9.5595,9.4711,9.3787,9.2826,9.1979,9.1441,9.121,9.121,9.121,9.121,9.121,9.8396,9.8729,9.9353,9.9236,9.8729,9.8651,9.8299,9.7753,9.7714,9.7831,9.7714,9.7675,9.7753,9.7714,9.7714,9.7675,9.787,9.8377,9.8651,9.8768,9.9392,9.9705,10.0095,10.0798,10.1188,10.1266,10.1774,10.2125,10.2069,10.1582,10.1107,10.0439,10.0022,9.9327,9.8596,9.8481,9.8019,9.7326,9.7173,9.7173,9.7211,9.7403,9.7816,9.8493,9.8919,9.9171,9.9163,9.9211,9.8355,9.6837,9.6628,9.6454,9.6363,9.6326,9.6288,9.6288,9.6326,9.6326,9.6326,9.6365,9.6711,9.7365,9.7673,9.7904,9.8673,9.8596,9.8134,9.7673,9.725,9.6903,9.6442,9.6288,9.6288,9.6288,9.6288,9.6288,9.6288,9.6288,9.6288,9.6288,9.6288,9.6288,9.6288,9.6288,9.6288,9.6288,9.6288,9.6288,9.6288,9.6288,9.6288,9.6288,9.6288,9.6288,9.6288,9.6288,9.6288,9.6288,9.6288,9.6326,9.6326,9.6288,9.6288,9.6211,9.5711,9.4941,9.398,9.2979,9.221,9.1556,9.1248,9.121,9.121,9.121,9.121,9.8831,9.908,9.9939,10.0017,9.9588,9.9548,9.9236,9.8846,9.8807,9.8807,9.8729,9.8377,9.826,9.8221,9.826,9.826,9.8377,9.9158,9.9509,9.9705,10.0407,10.0759,10.0993,10.1657,10.2047,10.2164,10.2945,10.3296,10.327,10.2974,10.2459,10.1852,10.1123,10.0283,9.9404,9.9327,9.8904,9.8211,9.8057,9.8019,9.8057,9.8404,9.8661,9.9297,9.9656,10.0086,10.0086,10.0046,9.9319,9.8052,9.7451,9.7054,9.6786,9.6442,9.6288,9.6326,9.6596,9.6826,9.6865,9.7096,9.775,9.8404,9.8596,9.9019,9.9519,9.9327,9.8481,9.8173,9.748,9.6826,9.6442,9.6288,9.6288,9.6288,9.6288,9.6288,9.6288,9.6288,9.6288,9.6288,9.6288,9.6288,9.6288,9.6288,9.6288,9.6288,9.6288,9.6288,9.6288,9.6288,9.6326,9.6403,9.6403,9.6442,9.648,9.6519,9.6596,9.6596,9.6865,9.6788,9.6557,9.648,9.6326,9.6211,9.5788,9.5211,9.4326,9.348,9.2826,9.221,9.1672,9.1248,9.121,9.1556,9.1518,9.9111,9.9236,10.0173,10.0524,10.0446,10.0407,10.029,10.0251,10.0134,10.0134,10.0017,9.9431,9.9158,9.9119,9.9119,9.9158,9.9197,10.0017,10.0446,10.0798,10.1305,10.1657,10.1735,10.2515,10.3023,10.3257,10.3921,10.4194,10.409,10.3882,10.3549,10.2948,10.2117,10.123,10.0365,10.0212,9.975,9.9096,9.8942,9.8942,9.9019,9.9442,9.9707,9.979,10.0509,10.0863,10.076,10.0616,10.0306,9.9802,9.8685,9.8006,9.7629,9.6903,9.6673,9.6788,9.7326,9.7634,9.7711,9.825,9.9058,9.9673,9.9904,10.0442,10.0673,10.0019,9.925,9.8942,9.748,9.6826,9.6326,9.6288,9.6288,9.6288,9.6288,9.6288,9.6288,9.6288,9.6288,9.6288,9.6288,9.6288,9.6288,9.6288,9.6288,9.6288,9.6288,9.6288,9.6288,9.6288,9.6442,9.6673,9.6634,9.6596,9.6673,9.6788,9.6903,9.7019,9.748,9.7557,9.7173,9.6942,9.6557,9.6249,9.598,9.5557,9.4903,9.4134,9.3364,9.2672,9.1979,9.1556,9.1325,9.1941,9.2172,9.9824,10.0134,10.1618,10.1852,10.1305,10.1227,10.0915,10.0368,10.0368,10.0446,10.029,10.0095,10.0017,10.0017,10.0017,10.0017,10.0134,10.0915,10.1578,10.2281,10.2398,10.2515,10.2711,10.3413,10.4116,10.4545,10.4936,10.5092,10.491,10.4285,10.3607,10.3337,10.2522,10.1534,10.1173,10.0943,10.0635,9.9942,9.9788,9.9827,9.9827,10.0019,10.0365,10.0775,10.1437,10.1932,10.2176,10.2086,10.1851,10.1268,10.0056,9.9009,9.8551,9.825,9.8096,9.8134,9.8327,9.8519,9.8557,9.8788,9.9211,10.0019,10.025,10.0442,10.1173,10.0943,10.0366,9.9827,9.8865,9.7634,9.6596,9.6326,9.6288,9.6288,9.6288,9.6288,9.6288,9.6288,9.6288,9.6288,9.6288,9.6288,9.6288,9.6288,9.6288,9.6288,9.6288,9.6288,9.6365,9.6403,9.6749,9.7134,9.7288,9.7365,9.7557,9.7673,9.775,9.7904,9.8288,9.8481,9.8096,9.7519,9.7173,9.6749,9.6288,9.5826,9.548,9.448,9.3633,9.2979,9.2441,9.2095,9.2056,9.2518,9.2787,10.0046,10.0485,10.2086,10.2515,10.2164,10.2086,10.1852,10.1539,10.1461,10.1461,10.1383,10.1071,10.0876,10.0876,10.0876,10.0876,10.1188,10.2164,10.2945,10.3335,10.3413,10.3648,10.4038,10.4311,10.4702,10.4506,10.5053,10.5365,10.527,10.523,10.5017,10.4448,10.3186,10.2399,10.1828,10.152,10.1096,10.0789,10.0673,10.0673,10.0673,10.0673,10.0971,10.1587,10.207,10.2484,10.2685,10.2608,10.2361,10.1906,10.1117,10.0179,9.9437,9.9019,9.8827,9.8827,9.925,9.9365,9.9442,9.9788,10.0212,10.0596,10.0673,10.0866,10.1058,10.0981,10.0596,10.0019,9.925,9.8211,9.7019,9.6442,9.6365,9.6288,9.6326,9.6288,9.6288,9.6288,9.6288,9.6288,9.6288,9.6288,9.6288,9.6288,9.6326,9.6365,9.6365,9.6403,9.698,9.7096,9.748,9.7827,9.8019,9.8211,9.8481,9.8673,9.8788,9.8981,9.9288,9.9404,9.925,9.8557,9.7865,9.725,9.6596,9.6596,9.6172,9.5057,9.4364,9.4441,9.4057,9.3172,9.2826,9.3287,9.3364,10.0046,10.0446,10.2086,10.2789,10.2789,10.275,10.2711,10.275,10.2789,10.2593,10.2672,10.1969,10.1696,10.1696,10.1696,10.1696,10.2086,10.2906,10.3608,10.3921,10.396,10.4389,10.4975,10.5092,10.478,10.3491,10.517,10.5912,10.6146,10.6294,10.6052,10.5644,10.4347,10.3327,10.2712,10.1981,10.1558,10.152,10.1289,10.1173,10.1212,10.1212,10.1466,10.1891,10.2183,10.2484,10.2659,10.267,10.2557,10.2288,10.2126,10.15,10.0595,9.9712,9.9173,9.925,9.9942,10.0212,10.0366,10.0789,10.1173,10.1289,10.1289,10.125,10.1135,10.0866,10.0558,10.0173,9.9596,9.875,9.7788,9.7326,9.6903,9.6788,9.6749,9.6673,9.6673,9.6673,9.6749,9.6288,9.6288,9.6288,9.6288,9.6288,9.6365,9.6442,9.648,9.6749,9.7365,9.7827,9.825,9.8673,9.8904,9.9327,9.9635,9.975,9.9865,10.0019,10.0327,10.0442,10.0442,10.025,9.9481,9.7673,9.7019,9.6942,9.6519,9.548,9.5211,9.5788,9.548,9.4441,9.4134,9.4134,9.421,10.0073,10.0446,10.2086,10.2789,10.2789,10.2789,10.2789,10.2789,10.2789,10.2789,10.275,10.2633,10.2515,10.2554,10.2554,10.2554,10.2593,10.314,10.353,10.4038,10.4194,10.4663,10.5248,10.5521,10.5209,10.556,10.6536,10.7278,10.7122,10.7035,10.6597,10.586,10.493,10.417,10.3596,10.2866,10.2366,10.2289,10.1904,10.1597,10.1558,10.1597,10.1745,10.2088,10.2381,10.2557,10.2724,10.2985,10.3127,10.3133,10.3378,10.2982,10.2213,10.1327,10.0904,10.0712,10.0827,10.0943,10.1019,10.1173,10.1289,10.1289,10.1289,10.1289,10.125,10.1135,10.0981,10.0789,10.025,9.9481,9.8673,9.825,9.8327,9.8327,9.8211,9.8173,9.8211,9.8096,9.7673,9.6865,9.6557,9.648,9.6711,9.6903,9.7019,9.7211,9.7326,9.775,9.8365,9.8711,9.8981,9.9442,9.9865,10.0366,10.0866,10.0904,10.1019,10.1058,10.1327,10.1673,10.1789,10.2058,10.1212,9.9365,9.7711,9.6942,9.6365,9.5826,9.5672,9.5903,9.5749,9.5557,9.5557,9.5518,9.5942,9.9942,10.0446,10.2086,10.2789,10.2789,10.2789,10.2789,10.2789,10.2789,10.2789,10.2789,10.2789,10.2789,10.2789,10.2789,10.2789,10.2867,10.3335,10.3687,10.4155,10.4545,10.4936,10.5482,10.5795,10.6029,10.638,10.7356,10.7747,10.7395,10.7434,10.6987,10.6483,10.5707,10.5022,10.4445,10.3712,10.3328,10.3135,10.2828,10.2597,10.2597,10.2597,10.2748,10.2972,10.3186,10.3527,10.3741,10.3799,10.3958,10.3976,10.389,10.3637,10.3251,10.2866,10.2251,10.1558,10.1366,10.1327,10.1289,10.1289,10.1289,10.1289,10.1289,10.1289,10.1289,10.1289,10.1289,10.1135,10.0596,9.9942,9.9519,9.9135,9.8827,9.8788,9.8827,9.8865,9.8827,9.8827,9.8327,9.7711,9.7788,9.7827,9.775,9.7865,9.7865,9.798,9.8134,9.8673,9.9365,9.9558,9.975,10.025,10.0673,10.1058,10.1481,10.1481,10.152,10.1712,10.1981,10.2327,10.2558,10.2597,10.2174,10.1019,9.9404,9.8019,9.7173,9.698,9.6519,9.6134,9.6365,9.6596,9.6749,9.698,9.7288,9.9702,10.0446,10.1891,10.2624,10.2724,10.2781,10.2772,10.2763,10.2781,10.2789,10.2789,10.2789,10.2789,10.2789,10.2789,10.2789,10.2867,10.353,10.3804,10.4194,10.4663,10.5131,10.5599,10.6185,10.6614,10.6693,10.7512,10.7629,10.7387,10.7564,10.7566,10.7044,10.6381,10.5844,10.5293,10.4559,10.4251,10.4097,10.3943,10.3905,10.3905,10.3906,10.3984,10.4073,10.4284,10.4322,10.427,10.4439,10.4463,10.4505,10.4498,10.4366,10.4212,10.4135,10.3405,10.2135,10.1673,10.152,10.1327,10.1289,10.1289,10.1289,10.1289,10.1289,10.1289,10.1289,10.1289,10.1173,10.0827,10.0404,10.025,9.975,9.9442,9.9404,9.9442,9.9365,9.9481,9.9558,9.9635,9.9327,9.9288,9.8981,9.8673,9.8481,9.8442,9.8904,9.9058,9.9519,10.0096,10.0289,10.0558,10.1058,10.1481,10.175,10.1904,10.1789,10.175,10.1712,10.202,10.2404,10.2635,10.2789,10.2481,10.2481,10.1597,10.025,9.9211,9.8019,9.7403,9.7173,9.7403,9.7596,9.7711,9.7942,9.8211,9.9319,10.0368,10.1266,10.2002,10.2504,10.2704,10.2694,10.2582,10.2714,10.2789,10.2789,10.2789,10.2789,10.2789,10.2789,10.2789,10.2867,10.2984,10.3413,10.3921,10.4272,10.4741,10.5404,10.6302,10.6614,10.6693,10.7434,10.7903,10.7738,10.7704,10.7537,10.7129,10.6854,10.6473,10.6024,10.5328,10.4982,10.4828,10.4289,10.3943,10.3943,10.3943,10.3906,10.3864,10.3762,10.3686,10.395,10.4332,10.458,10.47,10.555,10.5599,10.5136,10.4943,10.4482,10.3674,10.2904,10.2135,10.1558,10.1327,10.1289,10.1289,10.1289,10.1289,10.1289,10.1289,10.1289,10.1289,10.1135,10.1058,10.1019,10.0981,10.0943,10.0827,10.0635,10.0712,10.0789,10.0327,10.0404,10.0481,10.0327,9.9712,9.925,9.9096,9.9019,9.9558,10.0058,10.0442,10.0712,10.0827,10.0904,10.1289,10.175,10.2097,10.2212,10.2097,10.202,10.1827,10.1943,10.2366,10.2751,10.3174,10.4212,10.3982,10.3174,10.2289,10.1058,9.9827,9.8596,9.8173,9.8404,9.8481,9.8557,9.8865,9.925,9.8435,9.9461,10.0629,10.1249,10.1604,10.2145,10.2429,10.2538,10.2595,10.2694,10.2781,10.2789,10.2789,10.2789,10.2789,10.2789,10.2789,10.2789,10.2945,10.3491,10.3843,10.4272,10.4741,10.556,10.6107,10.6575,10.6693,10.7122,10.7534,10.7844,10.7605,10.7246,10.7026,10.6796,10.6372,10.602,10.5867,10.5597,10.5097,10.4636,10.4482,10.4135,10.3905,10.3906,10.383,10.3857,10.4051,10.4347,10.4619,10.4739,10.5487,10.5639,10.5408,10.5443,10.5482,10.4597,10.3789,10.2981,10.2174,10.1597,10.1366,10.1289,10.1289,10.1289,10.1289,10.1289,10.1289,10.1289,10.1289,10.1289,10.1289,10.1289,10.1289,10.1289,10.1289,10.1289,10.1289,10.1289,10.1135,10.125,10.1327,10.0827,10.0442,10.0442,10.0366,10.0481,10.0789,10.0981,10.1096,10.1135,10.1173,10.125,10.175,10.2251,10.2327,10.2327,10.2289,10.2097,10.1558,10.2058,10.2866,10.3558,10.4443,10.5213,10.4905,10.3943,10.2828,10.1481,10.0135,9.9673,9.9365,9.9481,9.9635,10.0058,10.0289,9.7572,9.8218,9.9635,10.04,10.074,10.1487,10.201,10.2361,10.2468,10.2608,10.2733,10.2789,10.2789,10.2789,10.2789,10.2789,10.2789,10.2789,10.2789,10.3062,10.3374,10.3687,10.4155,10.478,10.5756,10.638,10.6614,10.7005,10.7669,10.7915,10.7689,10.7207,10.6743,10.651,10.6176,10.5676,10.5443,10.5366,10.4905,10.4674,10.4559,10.4174,10.3943,10.3906,10.3962,10.4101,10.4284,10.4322,10.4322,10.4821,10.5245,10.555,10.5678,10.5986,10.5828,10.5059,10.4212,10.3405,10.252,10.1827,10.1404,10.1289,10.1289,10.1289,10.1289,10.1289,10.1289,10.1289,10.1289,10.1289,10.1289,10.1289,10.1289,10.1289,10.1289,10.1289,10.1366,10.1558,10.1789,10.1981,10.2097,10.2289,10.202,10.1981,10.1866,10.1635,10.1597,10.1597,10.1558,10.152,10.1404,10.1404,10.152,10.1943,10.202,10.2135,10.2251,10.2212,10.1673,10.1789,10.2597,10.3405,10.4251,10.502,10.579,10.5597,10.452,10.3097,10.1712,10.1173,10.0712,10.0596,10.075,10.1135,10.1135,9.6926,9.6831,9.7999,9.9229,10.0441,10.0754,10.1356,10.2162,10.2379,10.2595,10.2781,10.2789,10.2789,10.2789,10.2789,10.2789,10.2789,10.2789,10.2789,10.2828,10.2906,10.3023,10.3491,10.4428,10.5404,10.5834,10.638,10.7278,10.7903,10.7786,10.7597,10.7192,10.6641,10.5922,10.5469,10.5214,10.4754,10.4599,10.4174,10.3982,10.3943,10.3751,10.3674,10.3674,10.3499,10.3391,10.3415,10.3627,10.3936,10.4598,10.5127,10.5434,10.5725,10.6174,10.5832,10.5024,10.4215,10.3368,10.2636,10.1827,10.1404,10.1289,10.1289,10.1289,10.1289,10.1289,10.1289,10.1289,10.1289,10.1289,10.1289,10.1289,10.1289,10.1289,10.1366,10.1481,10.1712,10.2135,10.2366,10.2635,10.2828,10.2981,10.3097,10.2943,10.2789,10.2558,10.2135,10.2097,10.2097,10.202,10.1712,10.1558,10.1366,10.1443,10.1404,10.1558,10.175,10.1789,10.1481,10.175,10.2327,10.3174,10.4135,10.4828,10.5559,10.5944,10.6136,10.4674,10.3405,10.2558,10.2097,10.1981,10.1481,10.1327,10.1366,9.6863,9.6628,9.6955,9.7987,9.9506,10.0105,10.1003,10.2016,10.2205,10.2484,10.2789,10.2789,10.2789,10.2789,10.2789,10.2789,10.2789,10.2789,10.2789,10.2789,10.2789,10.2789,10.3296,10.3999,10.4858,10.5482,10.6263,10.7161,10.7903,10.7629,10.7469,10.7168,10.691,10.6794,10.6261,10.5299,10.4751,10.4214,10.3635,10.3135,10.2981,10.252,10.2366,10.2499,10.2444,10.2512,10.2751,10.2902,10.3169,10.3698,10.4637,10.4968,10.5203,10.5651,10.5493,10.4666,10.382,10.3172,10.2559,10.1827,10.1327,10.1289,10.1289,10.1289,10.1289,10.1289,10.1289,10.1289,10.1289,10.1289,10.1289,10.1289,10.1289,10.1289,10.1443,10.1635,10.2058,10.2558,10.3058,10.3405,10.352,10.3635,10.3712,10.3751,10.3597,10.3443,10.2981,10.2635,10.2712,10.2597,10.2327,10.1904,10.1712,10.1481,10.1481,10.1404,10.1327,10.1327,10.1327,10.1673,10.2174,10.3212,10.4097,10.4751,10.5328,10.579,10.5982,10.5751,10.5059,10.4059,10.3597,10.3405,10.2712,10.175,10.1443,9.6732,9.6513,9.6358,9.7288,9.8788,9.9442,10.0573,10.1828,10.207,10.2379,10.2789,10.2789,10.2789,10.2789,10.2789,10.2789,10.2789,10.2789,10.2789,10.2906,10.3062,10.314,10.3569,10.435,10.5482,10.5756,10.6185,10.7083,10.7903,10.7356,10.7426,10.7652,10.765,10.7399,10.6616,10.5824,10.4957,10.4099,10.3405,10.2597,10.252,10.2135,10.2248,10.256,10.2823,10.2847,10.3079,10.3152,10.3193,10.3517,10.3965,10.423,10.4443,10.458,10.4776,10.4063,10.3327,10.2808,10.2174,10.175,10.1327,10.1289,10.1289,10.1289,10.1289,10.1289,10.1289,10.1289,10.1289,10.1289,10.1289,10.1289,10.1289,10.1327,10.1827,10.2097,10.2635,10.3135,10.3712,10.4174,10.4405,10.4828,10.4866,10.4943,10.4597,10.4559,10.4597,10.4135,10.3751,10.352,10.3058,10.2597,10.2135,10.1943,10.175,10.1866,10.1904,10.1481,10.1481,10.152,10.2058,10.3058,10.3789,10.4251,10.4866,10.5597,10.5597,10.5174,10.5328,10.5482,10.4751,10.3828,10.3251,10.2289,10.152,9.6481,9.6325,9.6326,9.7288,9.875,9.8788,9.993,10.1555,10.1982,10.2396,10.2781,10.2789,10.2789,10.2789,10.2789,10.2789,10.2789,10.2789,10.2867,10.3101,10.353,10.3921,10.4623,10.5443,10.6185,10.6771,10.7161,10.7629,10.802,10.7825,10.7894,10.7924,10.7866,10.7508,10.6364,10.5238,10.4015,10.2943,10.2906,10.2829,10.279,10.2713,10.3164,10.3744,10.4014,10.3919,10.3863,10.3697,10.3729,10.3885,10.3817,10.4112,10.4432,10.4483,10.4206,10.3142,10.3034,10.2456,10.1481,10.1366,10.1327,10.1289,10.1289,10.1289,10.1289,10.1289,10.1289,10.1289,10.1289,10.1289,10.1289,10.1289,10.1289,10.1481,10.1943,10.2597,10.3097,10.3789,10.4366,10.4943,10.5713,10.629,10.6251,10.6136,10.5713,10.5674,10.602,10.5674,10.4866,10.4174,10.3558,10.3289,10.2789,10.2712,10.2558,10.2558,10.2443,10.1943,10.1712,10.1827,10.1943,10.2558,10.3174,10.3674,10.4212,10.4828,10.4713,10.4482,10.4751,10.4943,10.452,10.3789,10.3328,10.2674,10.1789,9.6519,9.6365,9.6865,9.775,9.8711,9.8788,9.9586,10.0867,10.1851,10.2529,10.2733,10.2789,10.2789,10.2789,10.2789,10.2789,10.2789,10.2828,10.2945,10.3687,10.4077,10.4467,10.5209,10.6068,10.6732,10.6927,10.7512,10.802,10.802,10.802,10.802,10.802,10.7972,10.7688,10.7075,10.6196,10.5303,10.4603,10.4121,10.3735,10.3735,10.3769,10.411,10.4805,10.495,10.4923,10.4778,10.4576,10.4311,10.4233,10.4059,10.4009,10.4048,10.401,10.3762,10.2808,10.241,10.2105,10.1514,10.1327,10.1289,10.1327,10.1327,10.1327,10.1289,10.1289,10.1289,10.1289,10.1289,10.1289,10.1289,10.1289,10.1327,10.1481,10.1981,10.2828,10.352,10.4366,10.5097,10.5674,10.6367,10.6405,10.6405,10.6405,10.6097,10.5867,10.602,10.579,10.5097,10.4405,10.3789,10.3751,10.352,10.3482,10.3443,10.3443,10.3328,10.2943,10.2558,10.2327,10.2443,10.252,10.2712,10.3328,10.3635,10.3943,10.3828,10.3789,10.4135,10.4174,10.3789,10.3443,10.2981,10.2366,10.1597,9.6579,9.6749,9.7288,9.8019,9.8788,9.9135,9.9856,10.0906,10.1928,10.2484,10.2683,10.2733,10.2789,10.2789,10.2789,10.2789,10.2828,10.3179,10.3374,10.4194,10.4858,10.5365,10.6029,10.6653,10.72,10.7317,10.759,10.802,10.802,10.802,10.802,10.802,10.802,10.7866,10.7483,10.702,10.6312,10.563,10.5013,10.4858,10.4858,10.4954,10.523,10.5768,10.5968,10.5948,10.5729,10.5326,10.4819,10.4663,10.4467,10.4272,10.4038,10.3982,10.3843,10.2985,10.199,10.1748,10.1365,10.1289,10.1443,10.1827,10.152,10.1327,10.1289,10.1289,10.1289,10.1289,10.1327,10.1327,10.1366,10.1366,10.1558,10.1712,10.2558,10.3405,10.4174,10.502,10.5636,10.6251,10.6405,10.6405,10.6405,10.6405,10.629,10.6097,10.5982,10.5674,10.5482,10.4982,10.452,10.452,10.4405,10.4289,10.4289,10.4289,10.4135,10.3905,10.3597,10.3212,10.2866,10.2943,10.2904,10.2789,10.2866,10.2943,10.2981,10.3097,10.3289,10.3328,10.3174,10.2866,10.2597,10.202,10.1366,9.6788,9.7442,9.7519,9.8057,9.8942,9.9788,10.0704,10.1688,10.1932,10.2225,10.2499,10.2704,10.2781,10.2789,10.2789,10.2789,10.2945,10.3608,10.4077,10.4663,10.5638,10.6263,10.6888,10.7473,10.7669,10.7864,10.802,10.802,10.802,10.802,10.802,10.802,10.802,10.7963,10.7816,10.7561,10.6953,10.6344,10.608,10.5964,10.5964,10.5964,10.6429,10.6926,10.7221,10.7001,10.6783,10.6419,10.599,10.5678,10.5326,10.5326,10.5326,10.5365,10.4556,10.3539,10.2251,10.1899,10.1751,10.1789,10.202,10.2481,10.202,10.1597,10.1558,10.1712,10.1635,10.152,10.1481,10.1443,10.1443,10.1673,10.1866,10.2558,10.3405,10.4174,10.4905,10.5559,10.6059,10.6405,10.6405,10.6405,10.6405,10.6405,10.6405,10.6328,10.6174,10.6174,10.602,10.6059,10.5674,10.5674,10.552,10.5174,10.5136,10.5136,10.5059,10.4866,10.4674,10.4328,10.3866,10.3405,10.3328,10.302,10.2135,10.1943,10.2174,10.2251,10.2251,10.2289,10.2404,10.2366,10.2097,10.1789,10.1289,9.6788,9.7557,9.8173,9.8942,9.9788,10.0596,10.1244,10.1696,10.1817,10.2046,10.2523,10.2568,10.2644,10.2789,10.2789,10.2789,10.3101,10.3687,10.4467,10.5248,10.599,10.6888,10.7434,10.7747,10.7942,10.7981,10.7981,10.802,10.802,10.802,10.802,10.802,10.802,10.802,10.7972,10.7915,10.7494,10.7165,10.7013,10.7013,10.7013,10.7013,10.7426,10.7691,10.7844,10.7642,10.7543,10.7005,10.6575,10.6419,10.5756,10.5443,10.5404,10.5396,10.4961,10.4355,10.3723,10.3395,10.3214,10.3135,10.3212,10.3405,10.3212,10.3251,10.302,10.2635,10.2327,10.2135,10.1904,10.1904,10.2135,10.2327,10.2712,10.3405,10.4174,10.4713,10.5366,10.5828,10.6328,10.6405,10.6405,10.6405,10.6405,10.6405,10.6405,10.6405,10.6405,10.6444,10.6405,10.6405,10.6405,10.6328,10.6213,10.579,10.5867,10.5905,10.5867,10.579,10.552,10.5213,10.4751,10.4289,10.3905,10.3289,10.2481,10.1866,10.1481,10.1673,10.2058,10.1712,10.1789,10.1712,10.1635,10.1481,10.1327,9.698,9.8019,9.8557,9.9481,10.0558,10.1096,10.1402,10.1577,10.1632,10.1891,10.2201,10.2417,10.2582,10.2683,10.2763,10.2828,10.2906,10.3687,10.435,10.478,10.5873,10.6263,10.6849,10.7356,10.7434,10.7551,10.7825,10.802,10.802,10.802,10.802,10.802,10.802,10.802,10.8011,10.7972,10.7905,10.7782,10.7717,10.7756,10.7756,10.7756,10.7894,10.7963,10.802,10.802,10.7981,10.7356,10.7239,10.72,10.6575,10.6458,10.6333,10.611,10.5662,10.507,10.4432,10.4044,10.3753,10.3751,10.402,10.4289,10.4405,10.4597,10.4328,10.3905,10.3443,10.3058,10.2751,10.2558,10.2866,10.3174,10.3712,10.4289,10.4751,10.5213,10.5674,10.6097,10.629,10.6367,10.6405,10.6405,10.6405,10.6405,10.6444,10.6521,10.6636,10.6751,10.6597,10.6405,10.6405,10.6367,10.6367,10.6251,10.6405,10.6405,10.6251,10.6136,10.602,10.5713,10.5443,10.4943,10.4289,10.3597,10.2866,10.2327,10.1904,10.1904,10.2097,10.1943,10.2058,10.2289,10.2174,10.1558,10.1443,9.7288,9.8788,9.8942,9.9942,10.1173,10.1289,10.1289,10.1328,10.1538,10.1696,10.1846,10.2264,10.2468,10.2582,10.2704,10.2945,10.3296,10.3999,10.4623,10.435,10.5482,10.6068,10.6185,10.6224,10.6693,10.7005,10.7356,10.7747,10.7981,10.802,10.802,10.802,10.802,10.802,10.802,10.802,10.7963,10.7963,10.7915,10.7954,10.7963,10.7972,10.802,10.802,10.802,10.802,10.802,10.7981,10.802,10.7981,10.7942,10.7825,10.7446,10.7052,10.6442,10.6037,10.5412,10.5016,10.471,10.46,10.4793,10.5062,10.5253,10.5562,10.5409,10.4714,10.4097,10.3866,10.3558,10.352,10.3751,10.3982,10.4405,10.4943,10.5405,10.5751,10.602,10.629,10.6328,10.6405,10.6405,10.6405,10.6405,10.6405,10.6674,10.6713,10.6905,10.7098,10.6982,10.6674,10.6559,10.6559,10.6405,10.6405,10.6405,10.6405,10.6405,10.6328,10.629,10.6251,10.5944,10.5328,10.4597,10.3982,10.3366,10.2943,10.2597,10.2635,10.2828,10.3135,10.3212,10.3251,10.2866,10.2212,10.1827,9.7288,9.8904,10.0173,10.0981,10.1289,10.1289,10.1289,10.1289,10.1366,10.1508,10.1727,10.2046,10.2324,10.2484,10.2704,10.3023,10.3726,10.4155,10.5326,10.556,10.599,10.5717,10.6068,10.5756,10.6107,10.6575,10.7005,10.7512,10.7903,10.802,10.802,10.802,10.802,10.802,10.802,10.802,10.802,10.802,10.802,10.802,10.802,10.802,10.802,10.802,10.802,10.802,10.802,10.802,10.802,10.802,10.802,10.7981,10.7933,10.7681,10.7457,10.7165,10.674,10.633,10.5944,10.5817,10.5936,10.6058,10.6253,10.6408,10.6178,10.5332,10.483,10.4636,10.4559,10.4559,10.4674,10.4828,10.5059,10.5597,10.602,10.6213,10.6405,10.6405,10.6405,10.6405,10.6405,10.6405,10.6405,10.6521,10.679,10.7098,10.7367,10.7559,10.7521,10.7328,10.7098,10.6944,10.6482,10.6405,10.6482,10.6405,10.6405,10.6405,10.6328,10.6367,10.6444,10.6251,10.5867,10.4713,10.3943,10.3712,10.352,10.3405,10.3635,10.4135,10.4212,10.4174,10.3905,10.3328,10.2866,9.7288,9.8942,10.0596,10.1289,10.1289,10.1289,10.1289,10.1289,10.1289,10.1404,10.1572,10.1891,10.2222,10.2379,10.2683,10.3023,10.3648,10.3921,10.4467,10.5131,10.556,10.5131,10.5092,10.5248,10.5482,10.5951,10.7005,10.7669,10.7942,10.802,10.802,10.802,10.802,10.802,10.802,10.802,10.802,10.802,10.802,10.802,10.802,10.802,10.802,10.802,10.802,10.802,10.802,10.802,10.802,10.802,10.802,10.802,10.802,10.7933,10.7805,10.7636,10.7459,10.7422,10.7119,10.689,10.6929,10.6866,10.6701,10.6701,10.682,10.6111,10.5833,10.5679,10.552,10.5559,10.5597,10.5751,10.579,10.6136,10.6251,10.6328,10.6405,10.6405,10.6405,10.6405,10.6405,10.6405,10.6405,10.6405,10.6674,10.679,10.7213,10.7752,10.779,10.8136,10.7867,10.7482,10.7098,10.6944,10.7098,10.679,10.6405,10.6405,10.6405,10.6713,10.6944,10.7328,10.7175,10.5828,10.4982,10.4866,10.4674,10.4328,10.4674,10.5251,10.5174,10.502,10.4713,10.4405,10.3905,9.7288,9.8942,10.0481,10.1212,10.1289,10.1289,10.1289,10.1289,10.1289,10.1289,10.1402,10.1902,10.2109,10.2285,10.2595,10.2792,10.3218,10.3921,10.4116,10.4467,10.4194,10.4897,10.5014,10.4623,10.5209,10.6107,10.7161,10.7669,10.802,10.802,10.802,10.802,10.802,10.802,10.802,10.802,10.802,10.802,10.802,10.802,10.802,10.802,10.802,10.802,10.802,10.802,10.802,10.802,10.802,10.802,10.802,10.802,10.802,10.802,10.7905,10.7756,10.7742,10.7555,10.7277,10.708,10.7146,10.7107,10.695,10.695,10.7119,10.697,10.6697,10.6486,10.6411,10.629,10.6328,10.6328,10.6367,10.6405,10.6405,10.6405,10.6405,10.6405,10.6405,10.6405,10.6405,10.6405,10.6405,10.6405,10.6521,10.6674,10.7059,10.7521,10.8059,10.8713,10.8906,10.8444,10.7982,10.7867,10.7675,10.729,10.6751,10.6405,10.6482,10.6944,10.7367,10.7559,10.7405,10.6713,10.6059,10.5867,10.5482,10.5097,10.5636,10.6059,10.5905,10.5636,10.552,10.5174,10.4789,9.7288,9.8865,9.9904,10.0673,10.125,10.1289,10.1289,10.1289,10.1289,10.1289,10.1439,10.1846,10.2094,10.2117,10.2569,10.2984,10.353,10.4038,10.5248,10.6029,10.5209,10.5678,10.5834,10.5326,10.5756,10.6536,10.7356,10.7864,10.802,10.802,10.802,10.802,10.802,10.802,10.802,10.802,10.802,10.802,10.802,10.802,10.802,10.802,10.802,10.802,10.802,10.802,10.802,10.802,10.802,10.802,10.802,10.802,10.802,10.802,10.7954,10.7905,10.7883,10.7756,10.7555,10.7402,10.7422,10.7461,10.7338,10.727,10.7338,10.7254,10.6998,10.6763,10.6632,10.6409,10.6407,10.6367,10.6405,10.6405,10.6405,10.6405,10.6405,10.6405,10.6405,10.6405,10.6405,10.6405,10.6405,10.6482,10.6713,10.7059,10.779,10.8213,10.8521,10.9175,10.9867,10.9483,10.8944,10.8252,10.7829,10.7675,10.7213,10.679,10.6597,10.7175,10.7559,10.7636,10.7405,10.7175,10.6944,10.679,10.6367,10.5676,10.5984,10.6292,10.629,10.6213,10.6097,10.5867,10.5405]},{"header":{"parameterUnit":"m.s-1","parameterCategory":1,"la1":31.0,"la2":29.5877,"lo1":-88.7671,"lo2":-86.6584,"dy":0.0162,"dx":0.0185,"nx":115,"ny":88,"refTime":"2024-03-27T12:00:00:Z","depth":0,"parameterNumber":3,"parameterNumberName":"V-component_of_WINDS"},"data":[0.0,0.0,0.0,0.0,0.0,0.0,0.0,0.0,0.0,0.0,0.0,0.0,0.0,0.0,0.0,0.0,0.0,0.0,0.0,0.0,0.0,0.0,0.0,0.0,0.0,0.0,0.0,0.0,0.0,0.0,0.0,0.0,0.0,0.0,0.0,0.0,0.0,0.0,0.0,0.0,0.0,0.0,0.0,0.0,0.0,0.0,0.0,0.0,0.0,0.0,0.0,0.0,0.0,0.0,0.0,0.0,0.0,0.0,0.0,0.0,0.0,0.0,0.0,0.0,0.0,0.0,0.0,0.0,0.0,0.0,0.0,0.0,0.0,0.0,0.0,0.0,0.0,0.0,0.0,0.0,0.0,0.0,0.0,0.0,0.0,0.0,0.0,0.0,0.0,0.0,0.0,0.0,0.0,0.0,0.0,0.0,0.0,0.0,0.0,0.0,0.0,0.0,0.0,0.0,0.0,0.0,0.0,0.0,0.0,0.0,0.0,0.0,0.0,0.0,0.0,0.0,0.0,0.0,0.0,0.0,0.0,0.0,0.0,0.0,0.0,0.0,0.0,0.0,0.0,0.0,0.0,0.0,0.0,0.0,0.0,0.0,0.0,0.0,0.0,0.0,0.0,0.0,0.0,0.0,0.0,0.0,0.0,0.0,0.0,0.0,0.0,0.0,0.0,0.0,0.0,0.0,0.0,0.0,0.0,0.0,0.0,0.0,0.0,0.0,0.0,0.0,0.0,0.0,0.0,0.0,0.0,0.0,0.0,0.0,0.0,0.0,0.0,0.0,0.0,0.0,0.0,0.0,0.0,0.0,0.0,0.0,0.0,0.0,0.0,0.0,0.0,0.0,0.0,0.0,0.0,0.0,0.0,0.0,0.0,0.0,0.0,0.0,0.0,0.0,0.0,0.0,0.0,0.0,0.0,0.0,0.0,0.0,0.0,0.0,0.0,0.0,0.0,0.0,0.0,0.0,0.0,0.0,0.0,0.0,0.0,0.0,0.0,0.0,0.0,0.0,0.0,0.0,0.0,0.0,0.0,0.0,0.0,0.0,0.0,0.0,0.0,0.0,0.0,0.0,0.0,0.0,0.0,0.0,0.0,0.0,0.0,0.0,0.0,0.0,0.0,0.0,0.0,0.0,0.0,0.0,0.0,0.0,0.0,0.0,0.0,0.0,0.0,0.0,0.0,0.0,0.0,0.0,0.0,0.0,0.0,0.0,0.0,0.0,0.0,0.0,0.0,0.0,0.0,0.0,0.0,0.0,0.0,0.0,0.0,0.0,0.0,0.0,0.0,0.0,0.0,0.0,0.0,0.0,0.0,0.0,0.0,0.0,0.0,0.0,0.0,0.0,0.0,0.0,0.0,0.0,0.0,0.0,0.0,0.0,0.0,0.0,0.0,0.0,0.0,0.0,0.0,0.0,0.0,0.0,0.0,0.0,0.0,0.0,0.0,0.0,0.0,0.0,0.0,0.0,0.0,0.0,0.0,0.0,0.0,0.0,0.0,0.0,0.0,0.0,0.0,0.0,0.0,0.0,0.0,0.0,0.0,0.0,0.0,0.0,0.0,0.0,0.0,0.0,0.0,0.0,0.0,0.0,0.0,0.0,0.0,0.0,0.0,0.0,0.0,0.0,0.0,0.0,0.0,0.0,0.0,0.0,0.0,0.0,0.0,0.0,0.0,0.0,0.0,0.0,0.0,0.0,0.0,0.0,0.0,0.0,0.0,0.0,0.0,0.0,0.0,0.0,0.0,0.0,0.0,0.0,0.0,0.0,0.0,0.0,0.0,0.0,0.0,0.0,0.0,0.0,0.0,0.0,0.0,0.0,0.0,0.0,0.0,0.0,0.0,0.0,0.0,0.0,0.0,0.0,0.0,0.0,0.0,0.0,0.0,0.0,0.0,0.0,0.0,0.0,0.0,0.0,0.0,0.0,0.0,0.0,0.0,0.0,0.0,0.0,0.0,0.0,0.0,0.0,0.0,0.0,0.0,0.0,0.0,0.0,0.0,0.0,0.0,0.0,0.0,0.0,0.0,0.0,0.0,0.0,0.0,0.0,0.0,0.0,0.0,0.0,0.0,0.0,0.0,0.0,0.0,0.0,0.0,0.0,0.0,0.0,0.0,0.0,0.0,0.0,0.0,0.0,0.0,0.0,0.0,0.0,0.0,0.0,0.0,0.0,0.0,0.0,0.0,0.0,0.0,0.0,0.0,0.0,0.0,0.0,0.0,0.0,0.0,0.0,0.0,0.0,0.0,0.0,0.0,0.0,0.0,0.0,0.0,0.0,0.0,0.0,0.0,0.0,0.0,0.0,0.0,0.0,0.0,0.0,0.0,0.0,0.0,0.0,0.0,0.0,0.0,0.0,0.0,0.0,0.0,0.0,0.0,0.0,0.0,0.0,0.0,0.0,0.0,0.0,0.0,0.0,0.0,0.0,0.0,0.0,0.0,0.0,0.0,0.0,0.0,0.0,0.0,0.0,0.0,0.0,0.0,0.0,0.0,0.0,0.0,0.0,0.0,0.0,0.0,0.0,0.0,0.0,0.0,0.0,0.0,0.0,0.0,0.0,0.0,0.0,0.0,0.0,0.0,0.0,0.0,0.0,0.0,0.0,0.0,0.0,0.0,0.0,0.0,0.0,0.0,0.0,0.0,0.0,0.0,0.0,0.0,0.0,0.0,0.0,0.0,0.0,0.0,0.0,0.0,0.0,0.0,0.0,0.0,0.0,0.0,0.0,0.0,0.0,0.0,0.0,0.0,0.0,0.0,0.0,0.0,0.0,0.0,0.0,0.0,0.0,0.0,0.0,0.0,0.0,0.0,0.0,0.0,0.0,0.0,0.0,0.0,0.0,0.0,0.0,0.0,0.0,0.0,0.0,0.0,0.0,0.0,0.0,0.0,0.0,0.0,0.0,0.0,0.0,0.0,0.0,0.0,0.0,0.0,0.0,0.0,0.0,0.0,0.0,0.0,0.0,0.0,0.0,0.0,0.0,0.0,0.0,0.0,0.0,0.0,0.0,0.0,0.0,0.0,0.0,0.0,0.0,0.0,0.0,0.0,0.0,0.0,0.0,0.0,0.0,0.0,0.0,0.0,0.0,0.0,0.0,0.0,0.0,0.0,0.0,0.0,0.0,0.0,0.0,0.0,0.0,0.0,0.0,0.0,0.0,0.0,0.0,0.0,0.0,0.0,0.0,0.0,0.0,0.0,0.0,0.0,0.0,0.0,0.0,0.0,0.0,0.0,0.0,0.0,0.0,0.0,0.0,0.0,0.0,0.0,0.0,0.0,0.0,0.0,0.0,0.0,0.0,0.0,0.0,0.0,0.0,0.0,0.0,0.0,0.0,0.0,0.0,0.0,0.0,0.0,0.0,0.0,0.0,0.0,0.0,0.0,0.0,0.0,0.0,0.0,0.0,0.0,0.0,0.0,0.0,0.0,0.0,0.0,0.0,0.0,0.0,0.0,0.0,0.0,0.0,0.0,0.0,0.0,0.0,0.0,0.0,0.0,0.0,0.0,0.0,0.0,0.0,0.0,0.0,0.0,0.0,0.0,0.0,0.0,0.0,0.0,0.0,0.0,0.0,0.0,0.0,0.0,0.0,0.0,0.0,0.0,0.0,0.0,0.0,0.0,0.0,0.0,0.0,0.0,0.0,0.0,0.0,0.0,0.0,0.0,0.0,0.0,0.0,0.0,0.0,0.0,0.0,0.0,0.0,0.0,0.0,0.0,0.0,0.0,0.0,0.0,0.0,0.0,0.0,0.0,0.0,0.0,0.0,0.0,0.0,0.0,0.0,0.0,0.0,0.0,0.0,0.0,0.0,0.0,0.0,0.0,0.0,0.0,0.0,0.0,0.0,0.0,0.0,0.0,0.0,0.0,0.0,0.0,0.0,0.0,0.0,0.0,0.0,0.0,0.0,0.0,0.0,0.0,0.0,0.0,0.0,0.0,0.0,0.0,0.0,0.0,0.0,0.0,0.0,0.0,0.0,0.0,0.0,0.0,0.0,0.0,0.0,0.0,0.0,0.0,0.0,0.0,0.0,0.0,0.0,0.0,0.0,0.0,0.0,0.0,0.0,0.0,0.0,0.0,0.0,0.0,0.0,0.0,0.0,0.0,0.0,0.0,0.0,0.0,0.0,0.0,0.0,0.0,0.0,0.0,0.0,0.0,0.0,0.0,0.0,0.0,0.0,0.0,0.0,0.0,0.0,0.0,0.0,0.0,0.0,0.0,0.0,0.0,0.0,0.0,0.0,0.0,0.0,-1.2238,0.0,0.0,0.0,0.0,0.0,0.0,0.0,0.0,0.0,0.0,0.0,0.0,0.0,0.0,0.0,0.0,0.0,0.0,0.0,0.0,0.0,0.0,0.0,0.0,0.0,0.0,0.0,0.0,0.0,0.0,0.0,0.0,0.0,0.0,0.0,0.0,0.0,0.0,0.0,0.0,0.0,0.0,0.0,0.0,0.0,0.0,0.0,0.0,0.0,0.0,0.0,0.0,0.0,0.0,0.0,0.0,0.0,0.0,0.0,0.0,0.0,0.0,0.0,0.0,0.0,0.0,0.0,0.0,0.0,0.0,0.0,0.0,0.0,0.0,0.0,0.0,0.0,0.0,0.0,0.0,0.0,0.0,0.0,0.0,0.0,0.0,0.0,0.0,0.0,0.0,0.0,0.0,0.0,0.0,0.0,0.0,0.0,0.0,0.0,0.0,0.0,0.0,0.0,0.0,0.0,0.0,0.0,0.0,0.0,0.0,-1.2305,-1.2305,-1.2305,-1.2305,-1.2305,0.0,0.0,0.0,0.0,0.0,0.0,0.0,0.0,0.0,0.0,0.0,0.0,0.0,0.0,0.0,0.0,0.0,0.0,0.0,0.0,0.0,0.0,0.0,0.0,0.0,0.0,0.0,0.0,0.0,0.0,0.0,0.0,0.0,0.0,0.0,0.0,0.0,0.0,0.0,0.0,0.0,0.0,0.0,0.0,0.0,0.0,0.0,0.0,0.0,0.0,0.0,0.0,0.0,0.0,0.0,0.0,0.0,0.0,0.0,0.0,0.0,0.0,0.0,0.0,0.0,0.0,0.0,0.0,0.0,0.0,0.0,0.0,0.0,0.0,0.0,0.0,0.0,0.0,0.0,0.0,0.0,0.0,0.0,0.0,0.0,0.0,0.0,0.0,0.0,0.0,0.0,0.0,0.0,0.0,0.0,0.0,0.0,0.0,0.0,0.0,0.0,0.0,0.0,0.0,0.0,0.0,0.0,0.0,0.0,0.0,0.0,0.0,-1.2505,-1.2478,-1.2398,0.0,0.0,0.0,0.0,0.0,0.0,0.0,0.0,0.0,0.0,0.0,0.0,0.0,0.0,0.0,0.0,0.0,0.0,0.0,0.0,0.0,0.0,0.0,0.0,0.0,0.0,0.0,0.0,0.0,0.0,0.0,0.0,0.0,0.0,0.0,0.0,0.0,0.0,0.0,0.0,0.0,0.0,0.0,0.0,0.0,0.0,0.0,0.0,0.0,0.0,0.0,0.0,0.0,0.0,0.0,0.0,0.0,0.0,0.0,0.0,0.0,0.0,0.0,0.0,0.0,0.0,0.0,0.0,0.0,0.0,0.0,0.0,0.0,0.0,0.0,0.0,0.0,0.0,0.0,0.0,0.0,0.0,0.0,0.0,0.0,0.0,0.0,0.0,0.0,0.0,0.0,0.0,0.0,0.0,0.0,0.0,0.0,0.0,0.0,0.0,0.0,0.0,0.0,0.0,0.0,0.0,0.0,0.0,0.0,0.0,-1.2839,-1.312,-1.312,0.0,-1.2795,0.0,0.0,0.0,0.0,0.0,0.0,0.0,0.0,0.0,0.0,0.0,0.0,0.0,0.0,0.0,0.0,0.0,0.0,0.0,0.0,0.0,0.0,0.0,0.0,0.0,0.0,0.0,0.0,0.0,0.0,0.0,0.0,0.0,0.0,0.0,0.0,0.0,0.0,0.0,0.0,0.0,0.0,0.0,0.0,0.0,0.0,0.0,0.0,0.0,0.0,0.0,0.0,0.0,0.0,0.0,0.0,0.0,0.0,0.0,0.0,0.0,0.0,0.0,0.0,0.0,0.0,0.0,0.0,0.0,0.0,0.0,0.0,0.0,0.0,0.0,0.0,0.0,0.0,0.0,0.0,0.0,0.0,0.0,0.0,0.0,0.0,0.0,0.0,0.0,0.0,0.0,0.0,0.0,0.0,0.0,0.0,0.0,0.0,0.0,0.0,0.0,0.0,0.0,0.0,0.0,0.0,0.0,0.0,0.0,0.0,-1.2893,-1.32,-1.3026,-1.2956,0.0,0.0,0.0,0.0,0.0,0.0,0.0,0.0,0.0,0.0,0.0,0.0,0.0,0.0,0.0,0.0,0.0,0.0,0.0,0.0,0.0,0.0,0.0,0.0,0.0,0.0,0.0,0.0,0.0,0.0,0.0,0.0,0.0,0.0,0.0,0.0,0.0,0.0,0.0,0.0,0.0,0.0,0.0,0.0,0.0,0.0,0.0,0.0,0.0,0.0,0.0,0.0,0.0,0.0,0.0,0.0,0.0,0.0,0.0,0.0,0.0,0.0,0.0,0.0,0.0,0.0,0.0,0.0,0.0,0.0,0.0,0.0,0.0,0.0,0.0,0.0,0.0,0.0,0.0,0.0,0.0,0.0,0.0,0.0,0.0,0.0,0.0,0.0,0.0,0.0,0.0,0.0,0.0,0.0,0.0,0.0,0.0,0.0,0.0,0.0,0.0,0.0,0.0,0.0,0.0,0.0,0.0,0.0,0.0,0.0,-1.2903,-1.3026,-1.3293,-1.3039,-1.2839,-1.2822,0.0,0.0,0.0,0.0,0.0,0.0,0.0,0.0,0.0,0.0,0.0,0.0,0.0,0.0,0.0,0.0,0.0,0.0,0.0,0.0,0.0,0.0,0.0,0.0,0.0,0.0,0.0,0.0,0.0,0.0,0.0,0.0,0.0,0.0,0.0,0.0,0.0,0.0,0.0,0.0,0.0,0.0,0.0,0.0,0.0,0.0,0.0,0.0,0.0,0.0,0.0,0.0,0.0,0.0,0.0,0.0,0.0,0.0,0.0,0.0,0.0,0.0,0.0,0.0,0.0,0.0,0.0,0.0,0.0,0.0,0.0,0.0,0.0,0.0,0.0,0.0,0.0,0.0,0.0,0.0,0.0,0.0,0.0,0.0,0.0,0.0,0.0,0.0,0.0,0.0,0.0,0.0,0.0,0.0,0.0,0.0,0.0,0.0,0.0,0.0,0.0,0.0,0.0,0.0,0.0,0.0,0.0,0.0,-1.2808,-1.3039,-1.3333,-1.3519,-1.3347,-1.3053,0.0,0.0,0.0,0.0,0.0,0.0,0.0,0.0,0.0,0.0,0.0,0.0,0.0,0.0,0.0,0.0,0.0,0.0,0.0,0.0,0.0,0.0,0.0,0.0,0.0,0.0,0.0,0.0,0.0,0.0,0.0,0.0,0.0,0.0,0.0,0.0,0.0,0.0,0.0,0.0,0.0,0.0,0.0,0.0,0.0,0.0,0.0,0.0,0.0,0.0,0.0,0.0,0.0,0.0,0.0,0.0,0.0,0.0,0.0,0.0,0.0,0.0,0.0,0.0,0.0,0.0,0.0,0.0,0.0,0.0,0.0,0.0,0.0,0.0,0.0,0.0,0.0,0.0,0.0,0.0,0.0,0.0,0.0,0.0,0.0,0.0,0.0,0.0,0.0,0.0,0.0,0.0,0.0,0.0,0.0,0.0,0.0,0.0,0.0,0.0,0.0,0.0,0.0,0.0,0.0,0.0,0.0,0.0,0.0,-1.2492,-1.3133,-1.3209,-1.2795,-1.3039,-1.2973,0.0,0.0,0.0,0.0,0.0,0.0,0.0,0.0,0.0,0.0,0.0,0.0,0.0,0.0,0.0,0.0,0.0,0.0,0.0,0.0,0.0,0.0,0.0,0.0,0.0,0.0,0.0,0.0,0.0,0.0,0.0,0.0,0.0,0.0,0.0,0.0,0.0,0.0,0.0,0.0,0.0,0.0,0.0,0.0,0.0,0.0,0.0,0.0,0.0,0.0,0.0,0.0,0.0,0.0,0.0,0.0,0.0,0.0,0.0,0.0,0.0,0.0,0.0,0.0,0.0,0.0,0.0,0.0,0.0,0.0,0.0,0.0,0.0,0.0,0.0,0.0,0.0,0.0,0.0,0.0,0.0,0.0,0.0,0.0,0.0,0.0,0.0,0.0,0.0,0.0,0.0,0.0,0.0,0.0,0.0,0.0,0.0,0.0,0.0,0.0,0.0,0.0,0.0,0.0,0.0,0.0,0.0,0.0,0.0,-1.2144,0.0,-1.2725,-1.1887,-1.2463,-1.2492,0.0,0.0,0.0,0.0,0.0,0.0,0.0,0.0,0.0,0.0,0.0,0.0,0.0,0.0,0.0,0.0,0.0,0.0,0.0,0.0,0.0,0.0,0.0,0.0,0.0,0.0,0.0,0.0,0.0,0.0,0.0,0.0,0.0,0.0,0.0,0.0,0.0,0.0,0.0,0.0,0.0,0.0,0.0,0.0,0.0,0.0,0.0,0.0,0.0,0.0,0.0,0.0,0.0,0.0,0.0,0.0,0.0,0.0,0.0,0.0,0.0,0.0,0.0,0.0,0.0,0.0,0.0,0.0,0.0,0.0,0.0,0.0,0.0,0.0,0.0,0.0,0.0,0.0,0.0,0.0,0.0,0.0,0.0,0.0,0.0,0.0,0.0,0.0,0.0,0.0,0.0,0.0,0.0,0.0,0.0,0.0,0.0,0.0,0.0,0.0,0.0,0.0,0.0,0.0,0.0,0.0,0.0,0.0,-1.2094,-1.1834,-1.2122,-1.1862,-1.0982,-1.1525,-1.1726,0.0,0.0,0.0,0.0,0.0,0.0,0.0,0.0,0.0,0.0,0.0,0.0,0.0,0.0,0.0,0.0,0.0,0.0,0.0,0.0,0.0,0.0,0.0,0.0,0.0,0.0,0.0,0.0,0.0,0.0,0.0,0.0,0.0,0.0,0.0,0.0,0.0,0.0,0.0,0.0,0.0,0.0,0.0,0.0,0.0,0.0,0.0,0.0,0.0,0.0,0.0,0.0,0.0,0.0,0.0,0.0,0.0,0.0,0.0,0.0,0.0,0.0,0.0,0.0,0.0,0.0,0.0,0.0,0.0,0.0,0.0,0.0,0.0,0.0,0.0,0.0,0.0,0.0,0.0,0.0,0.0,0.0,0.0,0.0,0.0,0.0,0.0,0.0,0.0,0.0,0.0,0.0,0.0,0.0,0.0,0.0,0.0,0.0,0.0,0.0,0.0,0.0,0.0,0.0,0.0,0.0,0.0,0.0,0.0,-1.1521,-1.1751,-1.1426,-1.0532,-1.1118,-1.1422,0.0,0.0,0.0,0.0,0.0,0.0,0.0,0.0,0.0,0.0,0.0,0.0,0.0,0.0,0.0,0.0,0.0,0.0,0.0,0.0,0.0,0.0,0.0,0.0,0.0,0.0,0.0,0.0,0.0,0.0,0.0,0.0,0.0,0.0,0.0,0.0,0.0,0.0,0.0,0.0,0.0,0.0,0.0,0.0,0.0,0.0,0.0,0.0,0.0,0.0,0.0,0.0,0.0,0.0,0.0,0.0,0.0,0.0,0.0,0.0,0.0,0.0,0.0,0.0,0.0,0.0,0.0,0.0,0.0,0.0,0.0,0.0,0.0,0.0,0.0,0.0,0.0,0.0,0.0,0.0,0.0,0.0,0.0,0.0,0.0,0.0,0.0,0.0,0.0,0.0,0.0,0.0,0.0,0.0,0.0,0.0,0.0,0.0,0.0,0.0,0.0,0.0,0.0,0.0,0.0,0.0,0.0,0.0,0.0,-1.1855,-1.1765,-1.1336,-1.0369,-1.0783,-1.1169,-1.1355,0.0,0.0,0.0,0.0,0.0,0.0,0.0,0.0,0.0,0.0,0.0,0.0,0.0,0.0,0.0,0.0,0.0,0.0,0.0,0.0,0.0,0.0,0.0,0.0,0.0,0.0,0.0,0.0,0.0,0.0,0.0,0.0,0.0,0.0,0.0,0.0,0.0,0.0,0.0,0.0,0.0,0.0,0.0,0.0,0.0,0.0,0.0,0.0,0.0,0.0,0.0,0.0,0.0,0.0,0.0,0.0,0.0,0.0,0.0,0.0,0.0,0.0,0.0,0.0,0.0,0.0,0.0,0.0,0.0,0.0,0.0,0.0,0.0,0.0,0.0,0.0,0.0,0.0,0.0,0.0,0.0,0.0,0.0,0.0,0.0,0.0,0.0,0.0,0.0,0.0,0.0,0.0,0.0,0.0,0.0,0.0,0.0,0.0,0.0,0.0,0.0,0.0,0.0,0.0,0.0,0.0,0.0,0.0,-1.2648,-1.2174,-1.1467,-1.0517,-1.0502,-1.0766,0.0,0.0,0.0,0.0,0.0,0.0,0.0,0.0,0.0,0.0,0.0,0.0,0.0,0.0,0.0,0.0,0.0,0.0,0.0,0.0,0.0,0.0,0.0,0.0,0.0,0.0,0.0,0.0,0.0,0.0,0.0,0.0,0.0,0.0,0.0,0.0,0.0,0.0,0.0,0.0,0.0,0.0,0.0,0.0,0.0,0.0,0.0,0.0,0.0,0.0,0.0,0.0,0.0,0.0,0.0,0.0,0.0,0.0,0.0,0.0,0.0,0.0,0.0,0.0,0.0,0.0,0.0,0.0,0.0,0.0,0.0,0.0,0.0,0.0,0.0,0.0,0.0,0.0,0.0,0.0,0.0,0.0,0.0,0.0,0.0,0.0,0.0,0.0,0.0,0.0,0.0,0.0,0.0,0.0,0.0,0.0,0.0,0.0,0.0,0.0,0.0,0.0,0.0,0.0,0.0,0.0,0.0,0.0,0.0,-1.3651,-1.3492,-1.2805,-1.1646,-1.12,-1.1009,0.0,0.0,0.0,0.0,0.0,0.0,0.0,0.0,0.0,0.0,0.0,0.0,0.0,0.0,0.0,0.0,0.0,0.0,0.0,0.0,0.0,0.0,0.0,0.0,0.0,0.0,0.0,0.0,0.0,0.0,0.0,0.0,0.0,0.0,0.0,0.0,0.0,0.0,0.0,0.0,0.0,0.0,0.0,0.0,0.0,0.0,0.0,0.0,0.0,0.0,0.0,0.0,0.0,0.0,0.0,0.0,0.0,0.0,0.0,0.0,0.0,0.0,0.0,0.0,0.0,0.0,0.0,0.0,0.0,0.0,0.0,0.0,0.0,0.0,0.0,0.0,0.0,0.0,0.0,0.0,0.0,0.0,0.0,0.0,0.0,0.0,0.0,0.0,0.0,0.0,0.0,0.0,0.0,0.0,0.0,0.0,0.0,0.0,0.0,0.0,0.0,0.0,0.0,0.0,0.0,0.0,0.0,0.0,-1.2101,-1.404,-1.4363,-1.4196,-1.3392,-1.2218,-1.1545,0.0,0.0,0.0,0.0,0.0,0.0,0.0,0.0,0.0,0.0,0.0,0.0,0.0,0.0,0.0,0.0,0.0,0.0,0.0,0.0,0.0,0.0,0.0,0.0,0.0,0.0,0.0,0.0,0.0,0.0,0.0,0.0,0.0,0.0,0.0,0.0,0.0,0.0,0.0,0.0,0.0,0.0,0.0,0.0,0.0,0.0,0.0,0.0,0.0,0.0,0.0,0.0,0.0,0.0,0.0,0.0,0.0,0.0,0.0,0.0,0.0,0.0,0.0,0.0,0.0,0.0,0.0,0.0,0.0,0.0,0.0,0.0,0.0,0.0,0.0,0.0,0.0,0.0,0.0,0.0,0.0,0.0,0.0,0.0,0.0,0.0,0.0,0.0,0.0,0.0,0.0,0.0,0.0,0.0,0.0,0.0,0.0,0.0,0.0,0.0,0.0,0.0,0.0,0.0,0.0,0.0,0.0,0.0,-1.2726,-1.3985,-1.5065,-1.5545,-1.5333,-1.3364,-1.2389,0.0,0.0,0.0,0.0,0.0,0.0,0.0,0.0,0.0,0.0,0.0,0.0,0.0,0.0,0.0,0.0,0.0,0.0,0.0,0.0,0.0,0.0,0.0,0.0,0.0,0.0,0.0,0.0,0.0,0.0,0.0,0.0,0.0,0.0,0.0,0.0,0.0,0.0,0.0,0.0,0.0,0.0,0.0,0.0,0.0,0.0,0.0,0.0,0.0,0.0,0.0,0.0,0.0,0.0,0.0,0.0,0.0,0.0,0.0,0.0,0.0,0.0,0.0,0.0,0.0,0.0,0.0,0.0,0.0,0.0,0.0,0.0,0.0,0.0,0.0,0.0,0.0,0.0,0.0,0.0,0.0,0.0,0.0,0.0,0.0,0.0,0.0,0.0,0.0,0.0,0.0,0.0,0.0,0.0,0.0,0.0,0.0,0.0,0.0,0.0,0.0,0.0,0.0,0.0,0.0,0.0,0.0,0.0,-1.3336,-1.4716,-1.5796,-1.6332,-1.6284,-1.4554,-1.3059,0.0,0.0,0.0,0.0,0.0,0.0,0.0,0.0,0.0,0.0,0.0,0.0,0.0,0.0,0.0,0.0,0.0,0.0,0.0,0.0,0.0,0.0,0.0,0.0,0.0,0.0,0.0,0.0,0.0,0.0,0.0,0.0,0.0,0.0,0.0,0.0,0.0,0.0,0.0,0.0,0.0,0.0,0.0,0.0,0.0,0.0,0.0,0.0,-1.2375,0.0,0.0,0.0,0.0,0.0,0.0,0.0,0.0,0.0,0.0,0.0,0.0,0.0,0.0,0.0,0.0,0.0,0.0,0.0,0.0,0.0,0.0,0.0,0.0,0.0,0.0,0.0,0.0,0.0,0.0,0.0,0.0,0.0,0.0,0.0,0.0,0.0,0.0,0.0,0.0,0.0,0.0,0.0,0.0,0.0,0.0,0.0,0.0,0.0,0.0,0.0,0.0,0.0,0.0,0.0,0.0,0.0,0.0,0.0,-1.3904,-1.5309,-1.6316,-1.6828,-1.6779,-1.5337,-1.393,0.0,0.0,0.0,0.0,0.0,0.0,0.0,0.0,0.0,0.0,0.0,0.0,0.0,0.0,0.0,0.0,0.0,0.0,0.0,0.0,0.0,0.0,0.0,0.0,0.0,0.0,0.0,0.0,0.0,0.0,0.0,0.0,0.0,0.0,0.0,0.0,0.0,0.0,0.0,0.0,0.0,0.0,0.0,0.0,0.0,0.0,0.0,0.0,0.0,0.0,0.0,0.0,0.0,0.0,0.0,0.0,0.0,0.0,0.0,0.0,0.0,0.0,0.0,0.0,0.0,0.0,0.0,0.0,0.0,0.0,0.0,0.0,0.0,0.0,0.0,0.0,0.0,0.0,0.0,0.0,0.0,0.0,0.0,0.0,0.0,0.0,0.0,0.0,0.0,0.0,0.0,0.0,0.0,0.0,0.0,0.0,0.0,0.0,0.0,0.0,0.0,0.0,0.0,0.0,0.0,0.0,0.0,-1.3285,-1.4481,-1.5861,-1.6795,-1.725,-1.7177,-1.5981,-1.4716,-1.3271,0.0,0.0,0.0,0.0,0.0,0.0,0.0,0.0,0.0,0.0,0.0,0.0,0.0,0.0,0.0,0.0,0.0,0.0,0.0,0.0,0.0,0.0,0.0,0.0,0.0,0.0,0.0,0.0,0.0,0.0,0.0,0.0,0.0,0.0,0.0,0.0,0.0,0.0,-1.4799,-1.5255,0.0,0.0,0.0,0.0,0.0,0.0,0.0,0.0,-1.2404,0.0,0.0,0.0,0.0,0.0,0.0,0.0,0.0,0.0,0.0,0.0,0.0,0.0,0.0,0.0,0.0,0.0,0.0,0.0,0.0,0.0,0.0,0.0,0.0,0.0,0.0,0.0,0.0,0.0,0.0,0.0,0.0,0.0,0.0,0.0,0.0,0.0,0.0,0.0,0.0,0.0,0.0,0.0,0.0,0.0,0.0,0.0,0.0,0.0,0.0,0.0,0.0,0.0,0.0,0.0,0.0,-1.3407,-1.4178,-1.5155,-1.6422,-1.7461,-1.7859,-1.7543,-1.6682,-1.5447,-1.3815,0.0,0.0,0.0,0.0,0.0,0.0,0.0,0.0,0.0,0.0,0.0,0.0,0.0,0.0,0.0,0.0,0.0,0.0,0.0,0.0,0.0,0.0,0.0,0.0,0.0,0.0,0.0,0.0,0.0,0.0,0.0,0.0,0.0,0.0,0.0,0.0,0.0,0.0,0.0,-1.6255,-1.6355,0.0,0.0,0.0,0.0,0.0,0.0,0.0,0.0,-1.1994,0.0,0.0,0.0,0.0,0.0,0.0,0.0,0.0,0.0,0.0,0.0,0.0,0.0,0.0,0.0,0.0,0.0,0.0,0.0,0.0,0.0,0.0,0.0,0.0,0.0,0.0,0.0,0.0,0.0,0.0,0.0,0.0,0.0,0.0,0.0,0.0,0.0,0.0,0.0,0.0,0.0,0.0,0.0,0.0,0.0,0.0,0.0,0.0,0.0,0.0,0.0,0.0,0.0,0.0,0.0,-1.3527,-1.4508,-1.5463,-1.6698,-1.7672,-1.8005,-1.764,-1.6687,-1.5281,0.0,0.0,0.0,0.0,0.0,0.0,0.0,0.0,0.0,0.0,0.0,0.0,0.0,0.0,0.0,0.0,0.0,0.0,0.0,0.0,0.0,0.0,0.0,0.0,0.0,0.0,0.0,0.0,0.0,0.0,0.0,0.0,0.0,0.0,0.0,0.0,0.0,0.0,0.0,0.0,-1.7432,-1.7553,-1.7425,0.0,0.0,0.0,0.0,0.0,0.0,-1.2128,-1.1108,0.0,0.0,0.0,0.0,0.0,0.0,0.0,0.0,0.0,0.0,0.0,0.0,0.0,0.0,0.0,0.0,0.0,0.0,0.0,0.0,0.0,0.0,0.0,0.0,0.0,0.0,0.0,0.0,0.0,0.0,0.0,0.0,0.0,0.0,0.0,0.0,0.0,0.0,0.0,0.0,0.0,0.0,0.0,0.0,0.0,0.0,0.0,0.0,0.0,0.0,0.0,0.0,0.0,0.0,0.0,-1.3906,-1.4683,-1.5731,-1.6933,-1.7827,-1.8079,-1.7648,-1.6602,-1.5168,0.0,0.0,0.0,0.0,0.0,0.0,0.0,0.0,0.0,0.0,0.0,0.0,0.0,0.0,0.0,0.0,0.0,0.0,0.0,0.0,0.0,0.0,0.0,0.0,0.0,0.0,0.0,0.0,0.0,0.0,0.0,0.0,0.0,0.0,0.0,0.0,0.0,0.0,0.0,0.0,0.0,-1.8648,-1.8752,-1.8391,0.0,0.0,0.0,0.0,-1.4309,-1.1927,0.0,0.0,0.0,0.0,0.0,0.0,0.0,0.0,0.0,0.0,0.0,0.0,0.0,0.0,0.0,0.0,0.0,0.0,0.0,0.0,0.0,0.0,0.0,0.0,0.0,0.0,0.0,0.0,0.0,0.0,0.0,0.0,0.0,0.0,0.0,0.0,0.0,0.0,0.0,0.0,0.0,0.0,0.0,0.0,0.0,0.0,0.0,0.0,0.0,0.0,0.0,0.0,0.0,0.0,0.0,0.0,-1.4693,-1.5455,-1.6211,-1.7299,-1.82,-1.8338,-1.7656,-1.695,-1.549,0.0,0.0,0.0,0.0,0.0,0.0,0.0,0.0,0.0,0.0,0.0,0.0,0.0,0.0,0.0,0.0,0.0,0.0,0.0,0.0,0.0,0.0,0.0,0.0,0.0,0.0,0.0,0.0,0.0,0.0,0.0,0.0,0.0,0.0,0.0,0.0,0.0,0.0,0.0,0.0,0.0,-1.9305,-1.9788,-1.9789,-1.9584,0.0,0.0,-1.4904,-1.5,-1.2387,0.0,0.0,0.0,0.0,0.0,0.0,0.0,0.0,0.0,0.0,0.0,0.0,0.0,0.0,0.0,0.0,0.0,0.0,0.0,0.0,0.0,0.0,0.0,0.0,0.0,0.0,0.0,0.0,0.0,0.0,0.0,0.0,0.0,0.0,0.0,0.0,0.0,0.0,0.0,0.0,0.0,0.0,0.0,0.0,0.0,0.0,0.0,0.0,0.0,0.0,0.0,0.0,0.0,0.0,0.0,-1.1637,-1.4019,-1.5259,-1.6341,-1.7502,-1.8314,-1.8428,-1.7811,-1.7006,-1.549,0.0,0.0,0.0,0.0,0.0,0.0,0.0,0.0,0.0,0.0,0.0,0.0,0.0,0.0,0.0,0.0,0.0,0.0,0.0,0.0,0.0,0.0,0.0,0.0,0.0,0.0,0.0,0.0,0.0,0.0,0.0,0.0,0.0,0.0,0.0,0.0,0.0,0.0,0.0,0.0,0.0,0.0,-1.9166,-1.9484,0.0,0.0,0.0,-1.5617,-1.4971,0.0,0.0,0.0,0.0,0.0,0.0,0.0,0.0,0.0,0.0,0.0,0.0,0.0,0.0,0.0,0.0,0.0,0.0,0.0,0.0,0.0,0.0,0.0,0.0,0.0,0.0,0.0,0.0,0.0,0.0,0.0,0.0,0.0,0.0,0.0,0.0,0.0,0.0,0.0,0.0,0.0,0.0,0.0,0.0,0.0,0.0,0.0,0.0,0.0,0.0,0.0,0.0,0.0,0.0,0.0,0.0,0.0,-1.3482,-1.5041,-1.6446,-1.7672,-1.8371,-1.8485,-1.7981,-1.6936,0.0,0.0,0.0,0.0,0.0,0.0,0.0,0.0,0.0,0.0,0.0,0.0,0.0,0.0,0.0,0.0,0.0,0.0,0.0,0.0,0.0,0.0,0.0,0.0,0.0,0.0,0.0,-0.9686,0.0,0.0,0.0,0.0,0.0,0.0,0.0,0.0,0.0,0.0,0.0,0.0,0.0,0.0,-1.8273,-1.8888,-1.9009,-1.8407,0.0,0.0,-1.579,-1.4806,-1.3049,-1.1839,0.0,0.0,0.0,0.0,0.0,0.0,0.0,0.0,0.0,0.0,0.0,0.0,0.0,0.0,0.0,0.0,0.0,0.0,0.0,0.0,0.0,0.0,0.0,0.0,0.0,0.0,0.0,0.0,0.0,0.0,0.0,0.0,0.0,0.0,0.0,0.0,0.0,0.0,0.0,0.0,0.0,0.0,0.0,0.0,0.0,0.0,0.0,0.0,0.0,0.0,0.0,0.0,0.0,0.0,0.0,-1.3831,-1.5293,-1.6633,-1.7859,-1.8444,-1.8541,-1.816,-1.6936,-1.5491,0.0,0.0,0.0,0.0,0.0,0.0,0.0,0.0,0.0,0.0,0.0,0.0,0.0,0.0,0.0,0.0,0.0,0.0,0.0,0.0,0.0,0.0,0.0,0.0,0.0,0.0,0.0,0.0,0.0,0.0,0.0,0.0,0.0,0.0,0.0,0.0,0.0,0.0,0.0,0.0,0.0,-1.867,-1.9702,-1.8732,-1.776,0.0,0.0,-1.5184,-1.5055,-1.3487,-1.2203,-1.1491,0.0,0.0,0.0,0.0,0.0,0.0,0.0,0.0,0.0,0.0,0.0,0.0,0.0,0.0,0.0,0.0,0.0,0.0,0.0,0.0,0.0,0.0,0.0,0.0,0.0,0.0,0.0,0.0,0.0,0.0,0.0,0.0,0.0,0.0,0.0,0.0,0.0,0.0,0.0,0.0,0.0,0.0,0.0,0.0,0.0,0.0,0.0,0.0,0.0,0.0,0.0,0.0,0.0,-1.1752,-1.3872,-1.5317,-1.6706,-1.8022,-1.8501,-1.8598,-1.8355,-1.7298,-1.5886,0.0,0.0,0.0,0.0,0.0,0.0,0.0,0.0,0.0,0.0,0.0,0.0,0.0,0.0,0.0,0.0,0.0,0.0,0.0,0.0,0.0,0.0,0.0,0.0,0.0,0.0,0.0,0.0,-1.1651,-1.2557,-1.2621,0.0,0.0,0.0,0.0,0.0,0.0,0.0,0.0,0.0,0.0,-1.604,-1.7006,-1.6973,0.0,0.0,-1.5483,-1.5459,-1.4259,-1.3318,-1.2866,-1.3367,-1.3485,0.0,0.0,0.0,0.0,0.0,0.0,0.0,0.0,0.0,0.0,0.0,0.0,0.0,0.0,0.0,0.0,0.0,0.0,0.0,0.0,0.0,0.0,0.0,0.0,0.0,0.0,0.0,0.0,0.0,0.0,0.0,0.0,0.0,0.0,0.0,0.0,0.0,0.0,0.0,0.0,0.0,0.0,0.0,0.0,0.0,0.0,0.0,0.0,0.0,0.0,0.0,0.0,-1.1857,-1.388,-1.5366,-1.6787,-1.8144,-1.8533,-1.8688,-1.859,-1.7555,-1.6422,0.0,0.0,0.0,0.0,0.0,0.0,0.0,0.0,0.0,0.0,0.0,0.0,0.0,0.0,0.0,0.0,0.0,0.0,0.0,0.0,0.0,0.0,0.0,0.0,0.0,0.0,0.0,0.0,-1.1793,-1.2654,-1.2816,0.0,0.0,0.0,0.0,0.0,0.0,0.0,0.0,0.0,0.0,-1.4597,-1.544,-1.5615,-1.516,-1.3878,-1.4652,-1.4922,-1.3672,-1.3227,-1.3275,-1.3806,0.0,0.0,0.0,0.0,0.0,0.0,0.0,0.0,0.0,0.0,0.0,0.0,0.0,0.0,0.0,0.0,0.0,0.0,0.0,0.0,0.0,0.0,0.0,0.0,0.0,0.0,0.0,0.0,0.0,0.0,-0.6211,0.0,0.0,0.0,0.0,0.0,0.0,0.0,0.0,0.0,0.0,0.0,0.0,0.0,0.0,0.0,0.0,0.0,0.0,0.0,0.0,0.0,0.0,-1.2101,-1.3888,-1.5488,-1.6909,-1.8135,-1.8533,-1.8801,-1.8931,-1.7723,-1.6761,-1.5835,0.0,0.0,0.0,0.0,0.0,0.0,0.0,0.0,0.0,0.0,0.0,0.0,0.0,0.0,0.0,0.0,0.0,0.0,0.0,0.0,0.0,0.0,0.0,0.0,0.0,0.0,-1.1352,-1.17,-1.2168,0.0,0.0,0.0,0.0,0.0,0.0,0.0,0.0,0.0,0.0,-1.488,-1.5096,-1.598,-1.4754,-1.3844,-1.3831,-1.3715,-1.3526,-1.3241,-1.318,-1.2915,0.0,0.0,0.0,0.0,0.0,0.0,0.0,0.0,0.0,0.0,0.0,0.0,0.0,0.0,0.0,0.0,0.0,0.0,0.0,0.0,0.0,0.0,0.0,0.0,0.0,0.0,0.0,-0.6805,-0.7193,0.0,0.0,0.0,0.0,0.0,0.0,0.0,0.0,0.0,0.0,0.0,-1.0586,-1.0596,0.0,0.0,0.0,0.0,0.0,0.0,0.0,0.0,0.0,0.0,0.0,0.0,-1.2223,-1.4213,-1.5723,-1.7096,-1.8322,-1.8712,-1.8923,-1.8972,-1.815,-1.6928,-1.4735,0.0,0.0,0.0,0.0,0.0,0.0,0.0,0.0,0.0,0.0,0.0,0.0,0.0,0.0,0.0,0.0,0.0,0.0,0.0,0.0,0.0,0.0,0.0,0.0,0.0,-1.1314,0.0,0.0,0.0,0.0,0.0,0.0,0.0,0.0,0.0,0.0,0.0,-1.3509,-1.393,-1.3633,-1.3677,-1.4369,-1.4173,-1.3926,0.0,0.0,0.0,0.0,0.0,0.0,0.0,0.0,0.0,0.0,0.0,0.0,0.0,0.0,-1.8084,-1.7043,-1.7346,-1.7754,-1.764,0.0,0.0,0.0,0.0,0.0,0.0,0.0,0.0,0.0,0.0,0.0,0.0,0.0,0.0,0.0,0.0,-0.6477,0.0,0.0,0.0,0.0,0.0,0.0,0.0,0.0,-1.0623,-1.1214,-1.1526,-1.1767,-1.1949,0.0,-1.1606,-1.056,0.0,0.0,0.0,0.0,0.0,0.0,0.0,0.0,-1.2629,-1.4497,-1.5999,-1.7315,-1.8403,-1.8801,-1.9013,-1.9061,-1.8371,-1.692,-1.4445,-1.2768,-1.1286,0.0,0.0,0.0,0.0,0.0,0.0,0.0,0.0,0.0,0.0,0.0,0.0,0.0,0.0,0.0,0.0,0.0,0.0,0.0,0.0,0.0,0.0,0.0,-1.0947,0.0,0.0,0.0,0.0,0.0,0.0,0.0,0.0,0.0,-1.3187,-1.2942,-1.2869,-1.3167,-1.2965,-1.3085,-1.3627,0.0,0.0,0.0,0.0,0.0,0.0,0.0,-1.3714,-1.437,-1.4139,-1.5047,-1.8306,-2.0748,-2.1853,-2.1095,0.0,0.0,-1.9422,-1.9608,-2.0132,-1.9876,-1.9554,-1.9512,-2.027,-1.9915,-1.9831,0.0,0.0,0.0,0.0,0.0,0.0,0.0,0.0,-0.9749,-0.8878,0.0,-0.7243,0.0,0.0,0.0,0.0,0.0,0.0,0.0,0.0,-1.1683,-1.2127,-1.1905,-1.276,-1.3036,-1.2751,-1.3125,-1.2626,-1.1255,-0.9463,0.0,0.0,0.0,0.0,0.0,0.0,-1.3295,-1.4749,-1.6324,-1.7559,-1.8436,-1.8809,-1.9077,-1.9216,-1.8233,-1.6824,-1.4954,-1.3959,-1.2474,-1.0713,-1.0158,0.0,0.0,0.0,0.0,0.0,0.0,0.0,0.0,0.0,0.0,0.0,0.0,0.0,0.0,0.0,0.0,0.0,0.0,0.0,0.0,-1.0649,0.0,0.0,0.0,0.0,0.0,0.0,0.0,0.0,0.0,0.0,-1.1882,-1.2757,-1.334,-1.2388,0.0,0.0,0.0,0.0,-1.3966,-1.4258,-1.4183,-1.4095,-1.4095,-1.4089,-1.3994,-1.3709,0.0,0.0,-1.8477,-2.1949,-2.4251,-2.4275,-2.4021,-2.2924,-2.0055,-2.0531,-2.1331,-2.1622,-2.1835,-2.2074,-2.2063,-2.2556,-2.3017,-0.6728,0.0,0.0,0.0,0.0,-0.9966,-1.0229,-1.0376,-0.9551,-0.8661,-0.79,-0.7906,0.0,0.0,0.0,0.0,0.0,0.0,-1.1106,-1.1659,-1.238,-1.3092,-1.3786,-1.3922,-1.4135,-1.4114,-1.376,-1.3069,-1.2071,-1.1101,-1.0343,-0.9866,0.0,0.0,0.0,0.0,-1.3904,-1.5439,-1.6803,-1.7867,-1.8631,-1.8996,-1.9142,-1.9061,-1.8517,-1.7461,-1.579,-1.4923,-1.3516,-1.1791,-1.1183,0.0,0.0,0.0,0.0,0.0,0.0,0.0,0.0,0.0,0.0,0.0,0.0,0.0,0.0,0.0,0.0,0.0,0.0,0.0,-1.1075,-1.0067,-0.9304,0.0,0.0,0.0,0.0,0.0,0.0,0.0,0.0,0.0,-1.2215,-1.2561,-1.3,0.0,0.0,-1.362,-1.396,-1.4095,-1.4238,-1.4421,0.0,0.0,0.0,-1.455,-1.4523,-1.4434,-1.6711,-1.8822,-1.9868,-2.3064,-2.5373,-2.5373,-2.5156,-2.4591,-2.3877,-2.3575,-2.3421,-2.3255,-2.3458,-2.3686,-2.3773,-2.3766,-2.3781,-0.5556,-0.5527,-0.6943,-0.8722,-1.0732,-1.0996,-1.126,-1.1358,-0.9941,-0.9101,-0.8879,-0.8188,-0.7944,-0.8231,-0.9464,0.0,0.0,0.0,-1.1913,-1.2345,-1.3028,-1.3516,-1.4098,-1.4311,-1.4393,-1.4497,-1.4147,-1.3656,-1.2877,-1.2268,-1.1818,-1.1315,0.0,0.0,-1.2306,-1.3522,-1.4692,-1.6073,-1.725,-1.8168,-1.8818,-1.911,-1.9134,-1.8883,-1.8407,-1.7553,-1.6144,-1.528,-1.4037,-1.2601,-1.2045,-1.1401,0.0,0.0,0.0,0.0,0.0,0.0,0.0,0.0,0.0,0.0,0.0,-1.0936,-1.1235,0.0,0.0,0.0,-1.1404,-1.0988,-1.0456,-0.9916,0.0,0.0,0.0,0.0,0.0,0.0,0.0,-1.2515,-1.3197,-1.342,-1.2793,-1.3047,-1.3267,-1.3397,-1.3702,-1.4,-1.4299,0.0,-1.4563,-1.4828,-1.495,-1.5025,-1.5086,-1.5092,-1.5099,-1.5092,-1.7675,-1.9692,-1.9876,-2.2011,-2.3785,-2.3742,-2.3688,-2.3631,-2.4338,-2.4175,-2.4164,-2.422,-2.4486,-2.4674,-2.4772,-2.4644,-2.4411,-0.376,-0.5533,-0.8597,-1.039,-1.1286,-1.1965,-1.2223,-1.2233,-1.0791,-1.0063,-1.0041,-0.8191,-0.8094,-0.916,-1.0477,0.0,-1.1559,-1.2302,-1.2698,-1.286,-1.3429,-1.3624,-1.3631,-1.4224,-1.4458,-1.4315,-1.4499,-1.4266,-1.3639,-1.3354,-1.3127,-1.2796,-1.2396,-1.2414,-1.2998,-1.4388,-1.5577,-1.6633,-1.7681,-1.8485,-1.9013,-1.9191,-1.911,-1.8761,-1.8169,-1.7181,-1.5988,-1.5133,-1.4251,-1.315,-1.2878,-1.2219,-1.1254,0.0,0.0,0.0,0.0,0.0,0.0,0.0,0.0,0.0,0.0,0.0,0.0,0.0,0.0,0.0,-1.2072,0.0,-1.0127,-1.0154,0.0,0.0,0.0,-1.0708,-1.3252,-1.2896,-1.2814,-1.3619,0.0,0.0,-1.3549,0.0,-1.4095,-1.3966,-1.4183,-1.4462,-1.4753,-1.4794,-1.495,-1.5364,-1.5438,-1.5499,-1.5615,-1.5649,-1.5642,-1.5642,-1.7381,-1.8671,-1.9212,-2.044,-2.1149,-2.1471,-2.0982,-2.1432,-2.3051,-2.3553,-2.3919,-2.4973,-2.5156,-2.5216,-2.5397,-2.5458,-2.5063,-0.5923,-0.7735,-0.9899,-1.0558,-1.0679,-1.2108,-1.2895,-1.3132,-1.2677,-1.1049,-0.857,-0.923,-0.884,-0.7646,-0.9303,-1.0053,-1.037,-1.203,-1.2979,-1.3308,-1.3569,-1.3999,-1.4428,-1.4557,-1.4572,-1.4643,-1.4664,-1.4154,-1.3638,-1.3887,-1.3711,-1.313,-1.4087,-1.4338,-1.4221,-1.4979,-1.5917,-1.7185,-1.8119,-1.885,-1.9362,-1.9427,-1.9281,-1.8931,-1.8615,-1.7616,-1.6333,-1.5889,-1.4967,-1.3619,-1.3603,-1.3031,-1.2155,-1.1447,0.0,0.0,0.0,0.0,0.0,0.0,0.0,0.0,0.0,-1.1003,-1.0619,0.0,-1.1403,0.0,-1.1233,-1.1276,-1.1043,-1.107,0.0,0.0,-1.1097,-1.1351,-1.2071,-1.228,-1.2501,-1.2874,-1.3472,-1.3832,-1.3871,-1.4407,-1.4787,-1.4848,-1.4828,-1.4916,-1.5201,-1.5248,-1.5364,-1.5669,-1.5744,-1.5805,-1.594,-1.5974,-1.5967,-1.5974,-1.7434,-1.927,-2.0807,-2.2378,-2.3582,-2.3757,-2.4657,-2.5014,-2.3881,-2.5003,-2.5971,-2.6162,-2.6085,-2.5953,-2.6025,-2.6025,-2.5595,-0.5027,-0.6244,-0.7881,-0.8415,-0.8599,-1.2017,-1.3587,-1.3797,-1.2936,-1.1412,-0.9548,-0.9352,-0.8623,-0.7428,-0.8335,-0.9327,-1.0249,-1.1534,-1.2548,-1.36,-1.3756,-1.4119,-1.452,-1.45,-1.4717,-1.497,-1.4646,-1.4319,-1.4173,-1.4089,-1.3803,-1.3471,-1.4294,-1.4821,-1.4877,-1.5809,-1.6872,-1.7859,-1.8663,-1.9183,-1.9386,-1.9321,-1.9029,-1.8525,-1.8054,-1.7222,-1.5843,-1.5493,-1.4691,-1.3632,-1.377,-1.3535,-1.2819,-1.2051,-1.1265,0.0,0.0,0.0,0.0,0.0,0.0,0.0,0.0,0.0,0.0,0.0,-1.1362,-1.084,-1.1191,-1.1605,-1.1762,-1.1789,-1.1789,-1.1789,-1.185,-1.2006,-1.2305,-1.2603,-1.2901,-1.3193,-1.3641,-1.4041,-1.434,-1.4774,-1.5147,-1.535,-1.5371,-1.5425,-1.5567,-1.5608,-1.5689,-1.5913,-1.6008,-1.6083,-1.6171,-1.6123,-1.6083,-1.6275,-1.699,-1.8097,-1.9257,-1.9992,-2.053,-2.062,-2.1198,-2.1772,-2.15,-2.2954,-2.4569,-2.5377,-2.6139,-2.6544,-2.6435,-2.5677,-2.4665,-0.3825,-0.4369,-0.5864,-0.6519,-0.7269,-1.2125,-1.4048,-1.3794,-1.2544,-1.1715,-1.1066,-0.8468,-0.7245,-0.712,-0.7604,-0.8826,-1.046,-1.0976,-1.224,-1.3933,-1.4082,-1.4224,-1.436,-1.4482,-1.4723,-1.5075,-1.4592,-1.4462,-1.4682,-1.4194,-1.3953,-1.396,-1.4263,-1.4659,-1.5492,-1.679,-1.7875,-1.8582,-1.9224,-1.9467,-1.9297,-1.9086,-1.8448,-1.758,-1.697,-1.5933,-1.463,-1.4266,-1.3778,-1.3312,-1.3498,-1.349,-1.3161,-1.2664,-1.2085,0.0,-1.0712,0.0,0.0,0.0,0.0,0.0,0.0,0.0,0.0,-1.1905,-1.1759,-1.1592,-1.1803,-1.2094,-1.2372,-1.242,-1.244,-1.2461,-1.2569,-1.2766,-1.3071,-1.3349,-1.362,-1.3892,-1.4197,-1.4496,-1.476,-1.5059,-1.5357,-1.5608,-1.5764,-1.5845,-1.5879,-1.5879,-1.592,-1.6069,-1.6212,-1.6286,-1.6313,-1.6232,-1.6144,-1.6123,-1.6316,-1.6302,-1.6857,-1.6721,-1.6384,-1.6451,-1.6847,-1.7238,-1.8208,-2.0214,-2.2218,-2.4419,-2.5878,-2.6918,-2.6558,-2.5588,-2.3465,-0.7575,-1.0437,-1.0737,-1.1726,-1.3041,-1.4088,-1.3649,-1.2304,-1.3506,-1.2284,-0.9181,-0.5444,-0.3782,-0.4122,-0.6862,-0.8598,-0.9215,-1.2226,-1.3892,-1.4387,-1.4543,-1.4631,-1.4658,-1.4685,-1.4699,-1.4699,-1.4672,-1.4645,-1.4792,-1.4944,-1.4931,-1.457,-1.5319,-1.6029,-1.6532,0.0,0.0,0.0,-1.9589,-1.9646,-1.9467,-1.9151,-1.7865,-1.5888,-1.4917,0.0,-1.2785,-1.2372,-1.2344,-1.2984,-1.3221,0.0,0.0,0.0,0.0,0.0,0.0,0.0,0.0,0.0,0.0,0.0,-1.2327,-1.2007,-1.1254,-1.1539,-1.1969,-1.2244,-1.2569,-1.2813,-1.299,-1.3119,-1.3241,-1.3363,-1.3397,-1.3532,-1.3831,-1.4021,-1.4197,-1.4367,-1.4652,-1.4903,-1.5079,-1.5364,-1.5615,-1.5778,-1.594,-1.6035,-1.6035,-1.6029,-1.6049,-1.609,-1.6225,-1.6354,-1.6463,-1.6449,-1.6374,-1.6307,-1.6266,-1.6813,-1.8069,-1.8301,-1.8177,-1.8114,-1.9387,-2.01,-2.0609,-2.2152,-2.3892,-2.6106,-2.6664,-2.7015,-2.6966,-2.658,-2.5309,-0.8067,0.0,-0.9798,-0.9703,0.0,-1.0554,-0.996,-0.9165,-1.2091,-1.1141,-0.725,-0.4261,-0.2953,-0.312,-0.4898,-0.6332,-0.7269,-0.926,-1.0735,-1.1699,-1.1759,-1.1819,-1.1879,-1.1879,-1.1879,-1.2247,-1.2996,-1.3334,-1.3632,-1.4551,-1.4922,-1.4746,-1.525,-1.581,-1.6052,-1.7009,-1.8167,-1.9508,-1.9695,-1.9613,-1.9264,-1.8988,-1.7512,-1.4929,0.0,0.0,0.0,0.0,0.0,0.0,0.0,0.0,0.0,0.0,0.0,-1.3401,-1.3279,-1.3149,-1.2994,-1.3239,-1.3177,-1.3001,-1.3028,-1.2543,-1.1719,-1.2148,-1.2515,-1.2807,-1.3112,-1.3349,-1.3485,-1.3573,-1.3682,-1.3824,-1.3919,-1.4048,-1.4258,-1.4428,-1.457,-1.4726,-1.4936,-1.5133,-1.5282,-1.556,-1.5757,-1.5845,-1.5988,-1.6083,-1.6083,-1.6083,-1.6123,-1.6266,-1.6286,-1.6388,-1.6578,-1.6564,-1.6503,-1.6429,-1.6354,-1.6682,-1.7592,-1.7635,-1.7501,-1.7607,-1.8214,-1.8847,-2.0061,-2.1582,-2.3303,-2.5341,-2.637,-2.7039,-2.7027,-2.6288,-2.4807,-0.7589,-0.9336,-0.7635,-0.6797,-0.6776,-0.6773,-0.639,-0.6384,0.0,0.0,0.0,-0.3968,-0.3009,-0.2984,-0.3345,-0.4267,-0.5755,-0.6126,-0.7243,-0.8736,-0.8752,-0.8796,-0.8868,-0.8868,-0.924,-0.962,-1.0746,-1.1823,-1.2477,-1.3776,-1.452,-1.4923,-1.5147,-1.5337,-1.5705,-1.6821,-1.7896,-1.9075,-1.9444,-1.9508,-1.9045,-1.8834,-1.7185,-1.4223,-1.4102,-1.3172,-1.1322,-1.1541,-1.2292,-1.3723,-1.4027,-1.4431,-1.475,-1.4774,-1.4646,-1.4489,-1.4489,-1.4348,-1.4324,-1.4182,-1.4136,-1.3833,-1.3563,-1.3078,-1.2562,-1.2868,-1.3139,-1.3281,-1.3566,-1.3797,-1.3912,-1.3973,-1.4048,-1.4177,-1.4306,-1.4441,-1.4611,-1.474,-1.4889,-1.5059,-1.5201,-1.5323,-1.5479,-1.5696,-1.5872,-1.5906,-1.6008,-1.6083,-1.6083,-1.6083,-1.6185,-1.6429,-1.6422,-1.6456,-1.6693,-1.67,-1.6598,-1.6564,-1.6442,-1.6347,-1.6293,-1.6185,-1.6042,-1.6124,-1.5879,-1.676,-1.8568,-2.0286,-2.2034,-2.409,-2.5972,-2.7099,-2.6905,-2.5753,-2.4064,-0.775,-0.9436,-0.9213,-0.8917,-0.8783,-0.8783,-0.7813,-0.6256,-0.6824,-0.6621,-0.6037,-0.4061,-0.3082,-0.3268,-0.4717,-0.5641,-0.6063,-0.776,-0.8747,0.0,-0.908,-0.9124,-0.9132,-0.9132,-0.9136,-0.9326,-0.9519,-1.0482,-1.2213,-1.2593,-1.3566,-1.5314,-1.5554,-1.5842,-1.6593,-1.7724,-1.8244,-1.7908,-1.8467,-1.9052,-1.9224,-1.8899,-1.6715,-1.2858,-1.3313,-1.2443,-0.9997,-1.0613,-1.191,-1.3739,-1.3893,-1.4363,-1.5144,-1.5278,-1.544,-1.5577,-1.5369,-1.5069,-1.4937,-1.4906,-1.4666,-1.4315,-1.4055,-1.3661,-1.3464,-1.3498,-1.3593,-1.3743,-1.4014,-1.4211,-1.4251,-1.4448,-1.459,-1.4631,-1.4665,-1.4787,-1.5045,-1.5106,-1.5221,-1.5479,-1.556,-1.5622,-1.5744,-1.5825,-1.5913,-1.6015,-1.6062,-1.6083,-1.6096,-1.6083,-1.6205,-1.6442,-1.651,-1.6619,-1.6849,-1.6931,-1.6842,-1.6734,-1.6592,-1.6456,-1.6341,-1.6205,-1.609,-1.6049,-1.5947,-1.6636,-1.8527,-2.0289,-2.2266,-2.4324,-2.6039,-2.7193,-2.7365,-2.6647,-2.5195,-0.7622,-0.9397,-0.8378,-0.7911,-0.7608,-0.6379,-0.5374,-0.4581,-0.4581,-0.4555,-0.4512,-0.3518,-0.3122,-0.3119,-0.4056,-0.4434,-0.4453,-0.5418,-0.5817,-0.5843,-0.5868,-0.5879,-0.5876,-0.5879,-0.5876,-0.5876,-0.7049,-0.8607,-1.075,-1.1921,-1.3485,-1.5448,-1.5716,-1.6028,-1.6376,-1.6999,-1.7428,-1.7275,-1.8429,-1.898,-1.8725,-1.8753,-1.6714,-1.2544,-1.2731,-1.1947,-1.0059,-1.0254,-1.1675,-1.4465,-1.4465,-1.4798,-1.5315,-1.5554,-1.5516,-1.5524,-1.5409,-1.5217,-1.5226,-1.4931,-1.465,-1.4534,-1.438,-1.4217,-1.4231,-1.4007,-1.3933,-1.4082,-1.4292,-1.4448,-1.4529,-1.4658,-1.4801,-1.4964,-1.4984,-1.5106,-1.5371,-1.5432,-1.5486,-1.5622,-1.571,-1.5784,-1.5845,-1.5927,-1.5995,-1.6069,-1.6083,-1.611,-1.6191,-1.6212,-1.6279,-1.6483,-1.6592,-1.6734,-1.6937,-1.6978,-1.6951,-1.6883,-1.6748,-1.6598,-1.6449,-1.63,-1.6185,-1.6096,-1.6015,-1.6764,-1.8505,-2.0492,-2.2489,-2.4557,-2.6291,-2.7469,-2.7421,-2.5925,-2.3344,-0.666,-0.8093,-0.6439,-0.5783,-0.5517,-0.3857,-0.3236,-0.3231,-0.3236,-0.3215,-0.3175,-0.316,-0.3153,-0.3152,-0.3146,-0.3146,-0.3153,-0.3153,-0.3156,-0.3163,-0.3163,-0.3165,-0.3172,-0.3172,-0.3176,-0.3381,-0.477,-0.6745,-0.872,-1.0867,-1.3222,-1.5407,-1.59,-1.6029,-1.6178,-1.6501,-1.6703,-1.6992,-1.8297,-1.8804,-1.8278,-1.8849,-1.6926,-1.2802,-1.3078,-1.2361,-1.0483,-1.0926,-1.2471,-1.5082,-1.5191,-1.5334,-1.5861,-1.5831,-1.5757,-1.5637,-1.5447,-1.5221,-1.5119,-1.4856,-1.4673,-1.4536,-1.4563,-1.4611,-1.4692,-1.4462,-1.4306,-1.4401,-1.457,-1.4719,-1.4828,-1.4923,-1.5038,-1.5255,-1.5282,-1.5391,-1.5635,-1.5689,-1.5703,-1.5744,-1.5839,-1.5906,-1.5927,-1.6008,-1.609,-1.613,-1.6137,-1.6198,-1.6327,-1.6381,-1.6463,-1.6551,-1.6673,-1.6802,-1.6944,-1.6978,-1.6978,-1.6978,-1.6849,-1.6707,-1.6571,-1.6435,-1.6286,-1.6164,-1.6103,-1.6665,-1.8221,-1.9885,-2.192,-2.383,-2.5582,-2.7122,-2.7601,-2.5186,-2.2211,-0.3808,-0.3993,-0.3782,-0.3743,-0.3688,-0.3478,-0.3257,-0.3238,-0.326,-0.3269,-0.3255,-0.3208,-0.3185,-0.318,-0.3157,-0.316,-0.3183,-0.3185,-0.3197,-0.3219,-0.3221,-0.3236,-0.3258,-0.3261,-0.3277,-0.3298,-0.3504,-0.4935,-0.6979,-0.9174,-1.2181,-1.5843,-1.6266,-1.6334,-1.6463,-1.6905,-1.6905,-1.6476,-1.7712,-1.8374,-1.8457,-1.9034,-1.6947,-1.2247,-1.5185,-1.4724,-1.0698,-1.3292,-1.5133,-1.5856,-1.5782,-1.6,-1.672,-1.6408,-1.6325,-1.6672,-1.5941,-1.5216,-1.4833,-1.4672,-1.4685,-1.4713,-1.4733,-1.4746,-1.4774,-1.4841,-1.4828,-1.4787,-1.4964,-1.5099,-1.516,-1.5364,-1.5513,-1.5554,-1.5581,-1.5662,-1.5798,-1.5832,-1.5886,-1.6029,-1.6029,-1.6062,-1.6062,-1.6096,-1.6151,-1.6273,-1.6286,-1.6341,-1.6483,-1.6592,-1.668,-1.6714,-1.6754,-1.6815,-1.6944,-1.6978,-1.6978,-1.6971,-1.6856,-1.6761,-1.6673,-1.651,-1.63,-1.6259,-1.6178,-1.6302,-1.6864,-1.8023,-2.0158,-2.2644,-2.4438,-2.5984,-2.7134,-2.5716,-2.3738,-0.3404,-0.3393,-0.3393,-0.3369,-0.3537,-0.4753,-0.4528,-0.3491,-0.4734,-0.4537,-0.3298,-0.3258,-0.3239,-0.3238,-0.3208,-0.3202,-0.3213,-0.3213,-0.3219,-0.3231,-0.3249,-0.3264,-0.3276,-0.3294,-0.331,-0.332,-0.3321,-0.4356,-0.6831,-1.0095,-1.3355,-1.6022,-1.6435,-1.6463,-1.6524,-1.6817,-1.6824,-1.653,-1.7639,-1.8391,-1.8389,-1.856,-1.73,-1.5214,-1.5623,-1.5163,-1.3228,-1.3899,-1.4781,-1.5863,-1.5664,-1.5927,-1.6678,-1.6241,-1.5938,-1.6324,-1.5661,-1.5059,-1.4882,-1.4957,-1.5038,-1.5126,-1.5133,-1.5174,-1.5262,-1.533,-1.5337,-1.5296,-1.5303,-1.535,-1.5452,-1.5567,-1.5669,-1.5744,-1.5764,-1.5825,-1.5967,-1.5988,-1.6022,-1.6076,-1.6083,-1.6123,-1.6205,-1.6293,-1.6361,-1.6422,-1.6435,-1.6497,-1.6632,-1.6714,-1.6781,-1.6863,-1.689,-1.691,-1.6971,-1.6978,-1.6978,-1.6971,-1.6931,-1.6876,-1.6748,-1.668,-1.653,-1.6354,-1.6259,-1.6171,-1.609,-1.7848,-1.9798,-2.193,-2.5238,-2.7401,-2.79,-2.5549,-2.3164,-0.3411,-0.3411,-0.3411,-0.3395,-0.3575,-0.584,-0.5816,-0.4565,-0.6024,-0.5823,-0.4369,-0.3722,-0.33,-0.3294,-0.3251,-0.323,-0.3231,-0.3239,-0.3242,-0.3246,-0.3273,-0.3292,-0.3302,-0.3322,-0.3337,-0.3344,-0.3347,-0.4383,-0.6657,-1.0376,-1.3476,-1.534,-1.6168,-1.6605,-1.6653,-1.6761,-1.6761,-1.6673,-1.759,-1.8004,-1.8306,-1.8085,-1.7419,-1.6503,-1.6095,-1.5437,-1.4524,-1.4434,-1.4925,-1.5981,-1.5839,-1.5932,-1.6472,-1.5856,-1.5732,-1.5906,-1.5403,-1.5153,-1.5153,-1.5248,-1.5357,-1.5459,-1.5472,-1.552,-1.5622,-1.5676,-1.5716,-1.575,-1.5696,-1.571,-1.5737,-1.5798,-1.5872,-1.5961,-1.5974,-1.6029,-1.6123,-1.6144,-1.6157,-1.6191,-1.6232,-1.6239,-1.6354,-1.6449,-1.6517,-1.6571,-1.6585,-1.6639,-1.6768,-1.6822,-1.6856,-1.6965,-1.6978,-1.6978,-1.6978,-1.6978,-1.6978,-1.6978,-1.6971,-1.6931,-1.6822,-1.6795,-1.6734,-1.6524,-1.6402,-1.6286,-1.6191,-1.7724,-1.9413,-2.2144,-2.5066,-2.7372,-2.7187,-2.464,-2.2837,-0.3411,-0.3411,-0.3411,-0.3396,-0.3576,-0.5876,-0.6681,-0.6439,-0.6895,-0.6709,-0.6292,-0.4197,-0.336,-0.3352,-0.3272,-0.3232,-0.3236,-0.3261,-0.3273,-0.3276,-0.3305,-0.3335,-0.3362,-0.3365,-0.3378,-0.3399,-0.3399,-0.4444,-0.6717,-0.9012,-1.1304,-1.3592,-1.5691,-1.6809,-1.6917,-1.6944,-1.6965,-1.6931,-1.7154,-1.758,-1.8402,-1.7573,-1.6795,-1.6134,-1.7334,-1.6735,-1.4855,-1.5679,-1.6429,-1.6293,-1.6137,-1.6192,-1.6447,-1.5911,-1.5635,-1.5615,-1.5608,-1.5608,-1.5601,-1.5628,-1.5649,-1.5649,-1.5689,-1.5655,-1.5723,-1.5825,-1.594,-1.6049,-1.6157,-1.6178,-1.611,-1.6171,-1.6239,-1.6266,-1.6279,-1.6286,-1.6293,-1.63,-1.6368,-1.6449,-1.6476,-1.649,-1.651,-1.6517,-1.6612,-1.67,-1.6741,-1.6788,-1.6904,-1.6951,-1.6965,-1.6971,-1.6978,-1.6978,-1.6978,-1.6978,-1.6978,-1.6978,-1.6978,-1.6971,-1.6924,-1.6863,-1.6781,-1.6666,-1.6483,-1.6354,-1.6293,-1.7199,-1.8663,-2.0978,-2.3511,-2.5217,-2.556,-2.5625,-2.3615,-0.3411,-0.3411,-0.3411,-0.3405,-0.3819,-0.7408,-0.8233,-0.6952,-0.8447,-0.8038,-0.6552,-0.4426,-0.3367,-0.3363,-0.3311,-0.3288,-0.329,-0.33,-0.3305,-0.3309,-0.3336,-0.3356,-0.3367,-0.3385,-0.34,-0.341,-0.3411,-0.4467,-0.6777,-0.9089,-1.1199,-1.351,-1.5838,-1.6931,-1.6971,-1.6978,-1.6978,-1.6978,-1.7398,-1.7811,-1.8432,-1.8222,-1.7531,-1.658,-1.7425,-1.7633,-1.6996,-1.712,-1.7051,-1.6592,-1.6361,-1.6405,-1.6729,-1.6504,-1.6168,-1.5784,-1.5866,-1.592,-1.594,-1.6096,-1.6205,-1.6205,-1.6205,-1.6185,-1.6212,-1.6252,-1.6307,-1.6361,-1.6402,-1.6442,-1.6497,-1.6476,-1.6442,-1.6449,-1.6442,-1.6449,-1.6442,-1.6442,-1.6463,-1.6524,-1.6598,-1.6666,-1.6686,-1.6754,-1.6836,-1.6883,-1.6897,-1.6917,-1.6958,-1.6978,-1.6978,-1.6978,-1.6978,-1.6978,-1.6978,-1.6978,-1.6978,-1.6978,-1.6978,-1.6978,-1.6944,-1.6937,-1.6876,-1.6761,-1.6571,-1.6415,-1.6347,-1.7178,-1.8655,-1.9798,-2.234,-2.3316,-2.3511,-2.3121,-2.1557,-0.4048,-0.3411,-0.3411,-0.3411,-0.3837,-0.7444,-0.8289,-0.7016,-0.8501,-0.8289,-0.6584,-0.4446,-0.3381,-0.3378,-0.3359,-0.3351,-0.335,-0.334,-0.3336,-0.3339,-0.3367,-0.3381,-0.3385,-0.3401,-0.3411,-0.3411,-0.3411,-0.4261,-0.5957,-0.8713,-1.1037,-1.252,-1.5487,-1.6978,-1.6978,-1.6978,-1.6978,-1.6978,-1.7398,-1.7811,-1.8222,-1.823,-1.7587,-1.6735,-1.6741,-1.6531,-1.6525,-1.6432,-1.6152,-1.5679,-1.6141,-1.6632,-1.6759,-1.6785,-1.6474,-1.6083,-1.6164,-1.6225,-1.6246,-1.6415,-1.6517,-1.6517,-1.6517,-1.6517,-1.6517,-1.6517,-1.6544,-1.6578,-1.6598,-1.6659,-1.6761,-1.6734,-1.6653,-1.6612,-1.6592,-1.6592,-1.6592,-1.6592,-1.6619,-1.6686,-1.6768,-1.6815,-1.6836,-1.6917,-1.6958,-1.6978,-1.6978,-1.6978,-1.6978,-1.6978,-1.6978,-1.6978,-1.6978,-1.6978,-1.6978,-1.6978,-1.6978,-1.6978,-1.6978,-1.6978,-1.6978,-1.6978,-1.6944,-1.6829,-1.6686,-1.6524,-1.6759,-1.7577,-1.8275,-1.9026,-1.9995,-2.1165,-2.0969,-2.0389,-1.9216,-0.5322,-0.3624,-0.3411,-0.3411,-0.3837,-0.6169,-0.6804,-0.6804,-0.7016,-0.7016,-0.6592,-0.4471,-0.3407,-0.3408,-0.3403,-0.3407,-0.3399,-0.3377,-0.3367,-0.337,-0.3396,-0.3408,-0.3408,-0.341,-0.3415,-0.3416,-0.3415,-0.3416,-0.3846,-0.789,-1.0432,-1.1051,-1.4874,-1.6998,-1.6978,-1.6978,-1.6978,-1.6978,-1.6978,-1.7398,-1.7601,-1.7398,-1.6755,-1.5889,-1.4844,-1.3575,-1.1887,-1.3148,-1.3934,-1.3839,-1.5691,-1.6666,-1.6524,-1.6469,-1.649,-1.6469,-1.6503,-1.6517,-1.6517,-1.6537,-1.6571,-1.6571,-1.6544,-1.6571,-1.6585,-1.6571,-1.6619,-1.672,-1.6754,-1.6809,-1.6931,-1.6944,-1.6883,-1.6781,-1.6754,-1.6754,-1.6754,-1.6754,-1.6802,-1.691,-1.6951,-1.6971,-1.6971,-1.6971,-1.6978,-1.6978,-1.6978,-1.6978,-1.6978,-1.6978,-1.6978,-1.6978,-1.6978,-1.6978,-1.6978,-1.6978,-1.6978,-1.6978,-1.6978,-1.6978,-1.6978,-1.6978,-1.6978,-1.6883,-1.672,-1.6551,-1.6354,-1.6985,-1.729,-1.8038,-1.8821,-1.9216,-1.8821,-1.8434,-1.8046,-0.4048,-0.3411,-0.3411,-0.3411,-0.3624,-0.5744,-0.6804,-0.6804,-0.6804,-0.6804,-0.6379,-0.4474,-0.3411,-0.3411,-0.3411,-0.3411,-0.3411,-0.3401,-0.3397,-0.3399,-0.3407,-0.3412,-0.3412,-0.3412,-0.3423,-0.3444,-0.3464,-0.3474,-0.4338,-0.8219,-1.0351,-1.1152,-1.4774,-1.6855,-1.6992,-1.6978,-1.6978,-1.6978,-1.6978,-1.7188,-1.7811,-1.7188,-1.5914,-1.3364,-1.2093,-0.9984,-0.7228,-1.146,-1.3769,-1.3515,-1.5541,-1.668,-1.6558,-1.6517,-1.6517,-1.653,-1.6625,-1.668,-1.6693,-1.6775,-1.6829,-1.6836,-1.6836,-1.6836,-1.6836,-1.6829,-1.6849,-1.6904,-1.691,-1.6937,-1.6965,-1.6978,-1.6951,-1.6917,-1.691,-1.6897,-1.6897,-1.6904,-1.6931,-1.6965,-1.6978,-1.6978,-1.6978,-1.6978,-1.6978,-1.6978,-1.6978,-1.6978,-1.6978,-1.6978,-1.6978,-1.6978,-1.6978,-1.6978,-1.6978,-1.6978,-1.6978,-1.6978,-1.6978,-1.6978,-1.6978,-1.6978,-1.6978,-1.6917,-1.6754,-1.6578,-1.6374,-1.6426,-1.6736,-1.6871,-1.7261,-1.7253,-1.7062,-1.6864,-1.6672,-0.4261,-0.3411,-0.3411,-0.3411,-0.3624,-0.4898,-0.5534,-0.5534,-0.5534,-0.5534,-0.5109,-0.4048,-0.3411,-0.3411,-0.3411,-0.3411,-0.3411,-0.3411,-0.3411,-0.3411,-0.3411,-0.3416,-0.3429,-0.3441,-0.3454,-0.3474,-0.3494,-0.3504,-0.3721,-0.807,-1.0432,-1.103,-1.4903,-1.7202,-1.7073,-1.706,-1.7039,-1.6992,-1.6978,-1.7188,-1.7405,-1.7243,-1.5754,-1.2963,-1.1285,-0.8741,-0.6174,-0.9557,-1.1882,-1.2721,-1.5191,-1.6788,-1.67,-1.67,-1.6693,-1.6714,-1.6775,-1.6836,-1.6849,-1.6917,-1.7012,-1.7039,-1.706,-1.7087,-1.7114,-1.7107,-1.706,-1.706,-1.7005,-1.6978,-1.6978,-1.6978,-1.6978,-1.6978,-1.6971,-1.6978,-1.6978,-1.6978,-1.6978,-1.6978,-1.6978,-1.6978,-1.6978,-1.6978,-1.6978,-1.6978,-1.6978,-1.6978,-1.6978,-1.6978,-1.6978,-1.6978,-1.6978,-1.6978,-1.6978,-1.6978,-1.6978,-1.6978,-1.6978,-1.6978,-1.6978,-1.6978,-1.6978,-1.6931,-1.6802,-1.6646,-1.6449,-1.63,-1.6392,-1.6144,-1.6083,-1.6275,-1.6474,-1.6474,-1.6275,-0.5539,-0.3415,-0.3416,-0.3419,-0.3416,-0.363,-0.3628,-0.3625,-0.3624,-0.3624,-0.3624,-0.3411,-0.3411,-0.3411,-0.3411,-0.3411,-0.3412,-0.3418,-0.3419,-0.342,-0.3423,-0.3438,-0.346,-0.3486,-0.3501,-0.3505,-0.351,-0.3512,-0.3735,-0.8326,-1.0469,-1.0904,-1.5026,-1.7351,-1.7236,-1.7209,-1.7141,-1.7026,-1.7005,-1.7005,-1.7012,-1.7114,-1.6286,-1.4269,-1.1788,-0.9446,-0.7696,-0.7473,-0.8518,-1.0623,-1.4633,-1.6525,-1.6965,-1.6978,-1.6951,-1.6937,-1.6971,-1.6965,-1.6971,-1.6971,-1.7032,-1.7148,-1.7175,-1.7256,-1.7331,-1.727,-1.7188,-1.7161,-1.7073,-1.6998,-1.6992,-1.6978,-1.6978,-1.6978,-1.6978,-1.6978,-1.6978,-1.6978,-1.6978,-1.6978,-1.6978,-1.6978,-1.6978,-1.6978,-1.6978,-1.6978,-1.6978,-1.6978,-1.6978,-1.6978,-1.6978,-1.6978,-1.6978,-1.6978,-1.6978,-1.6978,-1.6978,-1.6978,-1.6978,-1.6978,-1.6978,-1.6978,-1.6978,-1.6931,-1.6856,-1.67,-1.6537,-1.6368,-1.6218,-1.6123,-1.6083,-1.6083,-1.6083,-1.6083,-1.6083,-0.5587,-0.3448,-0.3469,-0.3465,-0.3448,-0.3445,-0.3433,-0.3414,-0.3412,-0.3416,-0.3412,-0.3411,-0.3414,-0.3412,-0.3412,-0.3411,-0.3418,-0.3435,-0.3445,-0.3449,-0.3471,-0.3482,-0.3495,-0.352,-0.3534,-0.3536,-0.3554,-0.3566,-0.401,-0.8218,-1.0404,-1.0778,-1.4948,-1.7514,-1.7385,-1.7365,-1.7283,-1.7161,-1.7134,-1.7134,-1.7141,-1.7175,-1.615,-1.4062,-1.1708,-0.9331,-0.7587,-0.6937,-0.8821,-1.2319,-1.358,-1.5277,-1.6775,-1.6985,-1.6978,-1.6978,-1.6985,-1.6985,-1.6985,-1.6992,-1.7053,-1.7168,-1.7222,-1.7263,-1.7399,-1.7385,-1.7304,-1.7222,-1.7148,-1.7087,-1.7005,-1.6978,-1.6978,-1.6978,-1.6978,-1.6978,-1.6978,-1.6978,-1.6978,-1.6978,-1.6978,-1.6978,-1.6978,-1.6978,-1.6978,-1.6978,-1.6978,-1.6978,-1.6978,-1.6978,-1.6978,-1.6978,-1.6978,-1.6978,-1.6978,-1.6978,-1.6978,-1.6978,-1.6978,-1.6985,-1.6985,-1.6978,-1.6978,-1.6965,-1.6876,-1.6741,-1.6571,-1.6395,-1.6259,-1.6144,-1.609,-1.6083,-1.6083,-1.6083,-1.6083,-0.4747,-0.346,-0.349,-0.3493,-0.3478,-0.3476,-0.3465,-0.3452,-0.345,-0.345,-0.3448,-0.3435,-0.3431,-0.343,-0.3431,-0.3431,-0.3435,-0.3463,-0.3475,-0.3482,-0.3506,-0.3519,-0.3527,-0.355,-0.3564,-0.3568,-0.3595,-0.3607,-0.4283,-0.7426,-0.9415,-1.1155,-1.4437,-1.6557,-1.7528,-1.7514,-1.7439,-1.7317,-1.729,-1.7283,-1.729,-1.7351,-1.6068,-1.3955,-1.1795,-0.9197,-0.6122,-0.5462,-0.7599,-1.1388,-1.3046,-1.4721,-1.6848,-1.7005,-1.6978,-1.6985,-1.7032,-1.7073,-1.708,-1.7121,-1.7236,-1.7351,-1.7385,-1.746,-1.7548,-1.7514,-1.7365,-1.7311,-1.7188,-1.7073,-1.7005,-1.6978,-1.6978,-1.6978,-1.6978,-1.6978,-1.6978,-1.6978,-1.6978,-1.6978,-1.6978,-1.6978,-1.6978,-1.6978,-1.6978,-1.6978,-1.6978,-1.6978,-1.6978,-1.6978,-1.6985,-1.6998,-1.6998,-1.7005,-1.7012,-1.7019,-1.7032,-1.7032,-1.708,-1.7066,-1.7026,-1.7012,-1.6985,-1.6965,-1.689,-1.6788,-1.6632,-1.6483,-1.6368,-1.6259,-1.6164,-1.609,-1.6083,-1.6144,-1.6137,-0.3678,-0.3465,-0.3498,-0.351,-0.3508,-0.3506,-0.3502,-0.3501,-0.3497,-0.3497,-0.3493,-0.3472,-0.3463,-0.3461,-0.3461,-0.3463,-0.3464,-0.3493,-0.3508,-0.352,-0.3538,-0.355,-0.3553,-0.358,-0.3598,-0.3606,-0.3629,-0.3639,-0.4317,-0.6126,-0.8604,-1.082,-1.3217,-1.5581,-1.7246,-1.767,-1.7589,-1.7473,-1.7446,-1.7446,-1.746,-1.7534,-1.6685,-1.4914,-1.1896,-0.8381,-0.5281,-0.4173,-0.6355,-1.049,-1.2336,-1.4429,-1.6557,-1.7087,-1.7046,-1.7066,-1.7161,-1.7216,-1.7229,-1.7324,-1.7467,-1.7575,-1.7616,-1.7711,-1.7751,-1.7636,-1.75,-1.7446,-1.7188,-1.7073,-1.6985,-1.6978,-1.6978,-1.6978,-1.6978,-1.6978,-1.6978,-1.6978,-1.6978,-1.6978,-1.6978,-1.6978,-1.6978,-1.6978,-1.6978,-1.6978,-1.6978,-1.6978,-1.6978,-1.6978,-1.7005,-1.7046,-1.7039,-1.7032,-1.7046,-1.7066,-1.7087,-1.7107,-1.7188,-1.7202,-1.7134,-1.7093,-1.7026,-1.6971,-1.6924,-1.6849,-1.6734,-1.6598,-1.6463,-1.6341,-1.6218,-1.6144,-1.6103,-1.6212,-1.6252,-0.5232,-0.3497,-0.3549,-0.3557,-0.3538,-0.3535,-0.3524,-0.3505,-0.3505,-0.3508,-0.3502,-0.3495,-0.3493,-0.3493,-0.3493,-0.3493,-0.3497,-0.3524,-0.3547,-0.3572,-0.3576,-0.358,-0.3587,-0.3611,-0.3636,-0.3651,-0.3664,-0.367,-0.4351,-0.5922,-0.8381,-1.0861,-1.2815,-1.5401,-1.7385,-1.7799,-1.7745,-1.7623,-1.7595,-1.7602,-1.7602,-1.7636,-1.7246,-1.5961,-1.268,-0.8246,-0.5131,-0.535,-0.7792,-0.9974,-1.14,-1.3475,-1.6492,-1.7324,-1.7297,-1.7304,-1.7338,-1.7372,-1.7378,-1.7419,-1.7494,-1.7636,-1.7677,-1.7711,-1.784,-1.7799,-1.7697,-1.7602,-1.7433,-1.7216,-1.7032,-1.6985,-1.6978,-1.6978,-1.6978,-1.6978,-1.6978,-1.6978,-1.6978,-1.6978,-1.6978,-1.6978,-1.6978,-1.6978,-1.6978,-1.6978,-1.6978,-1.6978,-1.6992,-1.6998,-1.706,-1.7127,-1.7154,-1.7168,-1.7202,-1.7222,-1.7236,-1.7263,-1.7331,-1.7365,-1.7297,-1.7195,-1.7134,-1.706,-1.6978,-1.6897,-1.6836,-1.6659,-1.651,-1.6395,-1.63,-1.6239,-1.6232,-1.6313,-1.6361,-0.5462,-0.3509,-0.3565,-0.358,-0.3568,-0.3565,-0.3557,-0.3546,-0.3543,-0.3543,-0.354,-0.3529,-0.3523,-0.3523,-0.3523,-0.3523,-0.3534,-0.3568,-0.3595,-0.3609,-0.3611,-0.3619,-0.3633,-0.3643,-0.3656,-0.3649,-0.3669,-0.3679,-0.4136,-0.5055,-0.7343,-1.0748,-1.2213,-1.4619,-1.7497,-1.7901,-1.7826,-1.7772,-1.7751,-1.7751,-1.7751,-1.7751,-1.6218,-1.4503,-1.0953,-0.7166,-0.4259,-0.5826,-0.8281,-1.0261,-1.1744,-1.3856,-1.664,-1.746,-1.7426,-1.7426,-1.75,-1.7521,-1.7534,-1.7595,-1.767,-1.7738,-1.7751,-1.7785,-1.7819,-1.7806,-1.7738,-1.7636,-1.75,-1.7317,-1.7107,-1.7005,-1.6992,-1.6978,-1.6985,-1.6978,-1.6978,-1.6978,-1.6978,-1.6978,-1.6978,-1.6978,-1.6978,-1.6978,-1.6985,-1.6992,-1.6992,-1.6998,-1.71,-1.7121,-1.7188,-1.7249,-1.7283,-1.7317,-1.7365,-1.7399,-1.7419,-1.7453,-1.7507,-1.7528,-1.75,-1.7378,-1.7256,-1.7148,-1.7032,-1.7032,-1.6958,-1.6761,-1.6639,-1.6653,-1.6585,-1.6429,-1.6368,-1.6449,-1.6463,-0.5462,-0.3508,-0.3565,-0.3589,-0.3589,-0.3588,-0.3587,-0.3588,-0.3589,-0.3583,-0.3585,-0.3561,-0.3551,-0.3551,-0.3551,-0.3551,-0.3565,-0.3594,-0.3618,-0.3629,-0.363,-0.3645,-0.3666,-0.367,-0.3659,-0.3614,-0.3673,-0.3699,-0.3707,-0.3944,-0.6486,-1.0172,-1.0967,-1.3603,-1.7188,-1.7982,-1.7907,-1.7901,-1.786,-1.784,-1.7846,-1.7846,-1.5844,-1.2511,-0.9839,-0.7166,-0.5605,-0.6729,-0.8747,-1.0751,-1.3445,-1.5622,-1.7059,-1.7582,-1.7487,-1.75,-1.7623,-1.767,-1.7697,-1.7772,-1.784,-1.786,-1.786,-1.7853,-1.7833,-1.7785,-1.7731,-1.7663,-1.7561,-1.7412,-1.7243,-1.7161,-1.7087,-1.7066,-1.706,-1.7046,-1.7046,-1.7046,-1.706,-1.6978,-1.6978,-1.6978,-1.6978,-1.6978,-1.6992,-1.7005,-1.7012,-1.706,-1.7168,-1.7249,-1.7324,-1.7399,-1.7439,-1.7514,-1.7568,-1.7589,-1.7609,-1.7636,-1.769,-1.7711,-1.7711,-1.7677,-1.7541,-1.7222,-1.7107,-1.7093,-1.7019,-1.6836,-1.6788,-1.689,-1.6836,-1.6653,-1.6598,-1.6598,-1.6612,-0.5683,-0.3508,-0.3565,-0.3589,-0.3589,-0.3589,-0.3589,-0.3589,-0.3589,-0.3589,-0.3588,-0.3584,-0.358,-0.3581,-0.3581,-0.3581,-0.3583,-0.3602,-0.3615,-0.3633,-0.3639,-0.3655,-0.3675,-0.3685,-0.3674,-0.3686,-0.372,-0.3746,-0.3741,-0.3972,-0.652,-0.996,-1.1029,-1.3483,-1.6872,-1.8138,-1.805,-1.8036,-1.7968,-1.7914,-1.7907,-1.7686,-1.657,-1.344,-1.0987,-0.8747,-0.7634,-0.8784,-1.0612,-1.1295,-1.5219,-1.7233,-1.7793,-1.7867,-1.7792,-1.7758,-1.7779,-1.7799,-1.7812,-1.784,-1.786,-1.786,-1.786,-1.786,-1.7853,-1.7833,-1.7806,-1.7772,-1.7677,-1.7541,-1.7399,-1.7324,-1.7338,-1.7338,-1.7317,-1.7311,-1.7317,-1.7297,-1.7222,-1.708,-1.7026,-1.7012,-1.7053,-1.7087,-1.7107,-1.7141,-1.7161,-1.7236,-1.7344,-1.7405,-1.7453,-1.7534,-1.7609,-1.7697,-1.7785,-1.7792,-1.7812,-1.7819,-1.7867,-1.7928,-1.7948,-1.7996,-1.7846,-1.7521,-1.7229,-1.7093,-1.6992,-1.6897,-1.687,-1.691,-1.6883,-1.6849,-1.6849,-1.6842,-1.6917,-0.6551,-0.3508,-0.3565,-0.3589,-0.3589,-0.3589,-0.3589,-0.3589,-0.3589,-0.3589,-0.3589,-0.3589,-0.3589,-0.3589,-0.3589,-0.3589,-0.3592,-0.3609,-0.3621,-0.3637,-0.3651,-0.3664,-0.3684,-0.3694,-0.3703,-0.3715,-0.3749,-0.3763,-0.375,-0.3752,-0.6544,-1.0019,-1.111,-1.3593,-1.7244,-1.8287,-1.8219,-1.8186,-1.8131,-1.8091,-1.8091,-1.8091,-1.6734,-1.4472,-1.2213,-0.9741,-0.8165,-0.9766,-1.0926,-1.1847,-1.5758,-1.7808,-1.8206,-1.8138,-1.803,-1.7907,-1.7874,-1.7867,-1.786,-1.786,-1.786,-1.786,-1.786,-1.786,-1.786,-1.786,-1.786,-1.7833,-1.7738,-1.7623,-1.7548,-1.748,-1.7426,-1.7419,-1.7426,-1.7433,-1.7426,-1.7426,-1.7338,-1.7229,-1.7243,-1.7249,-1.7236,-1.7256,-1.7256,-1.7277,-1.7304,-1.7399,-1.7521,-1.7555,-1.7589,-1.7677,-1.7751,-1.7819,-1.7894,-1.7894,-1.7901,-1.7935,-1.7982,-1.8043,-1.8084,-1.8091,-1.8016,-1.7812,-1.7528,-1.7283,-1.7134,-1.71,-1.7019,-1.6951,-1.6992,-1.7032,-1.706,-1.71,-1.7154,-0.719,-0.3508,-0.3558,-0.3808,-0.4261,-0.3814,-0.4038,-0.4262,-0.3814,-0.3589,-0.3589,-0.3589,-0.3589,-0.3589,-0.3589,-0.3589,-0.3592,-0.3615,-0.3625,-0.3639,-0.3655,-0.3671,-0.3688,-0.3708,-0.3723,-0.3726,-0.3754,-0.3759,-0.3985,-0.4461,-0.7286,-1.0307,-1.1416,-1.3935,-1.762,-1.8437,-1.8382,-1.8355,-1.8328,-1.8321,-1.8321,-1.8088,-1.7401,-1.5322,-1.2574,-1.0045,-0.8893,-1.0056,-1.098,-1.2369,-1.5384,-1.8403,-1.8375,-1.8362,-1.8233,-1.8009,-1.7928,-1.7901,-1.7867,-1.786,-1.786,-1.786,-1.786,-1.786,-1.786,-1.786,-1.786,-1.784,-1.7779,-1.7704,-1.7677,-1.7589,-1.7534,-1.7528,-1.7534,-1.7521,-1.7541,-1.7555,-1.7568,-1.7514,-1.7507,-1.7453,-1.7399,-1.7365,-1.7358,-1.7439,-1.7467,-1.7548,-1.765,-1.7684,-1.7731,-1.7819,-1.7894,-1.7941,-1.7968,-1.7948,-1.7941,-1.7935,-1.7989,-1.8057,-1.8097,-1.8124,-1.807,-1.807,-1.7914,-1.7677,-1.7494,-1.7283,-1.7175,-1.7134,-1.7175,-1.7209,-1.7229,-1.727,-1.7317,-0.5857,-0.3505,-0.3536,-0.4676,-0.6269,-0.4709,-0.4933,-0.6274,-0.4485,-0.3589,-0.3589,-0.3589,-0.3589,-0.3589,-0.3589,-0.3589,-0.3592,-0.3596,-0.3611,-0.3629,-0.3641,-0.3658,-0.3681,-0.3712,-0.3723,-0.3726,-0.3752,-0.3768,-0.3998,-0.5645,-0.8227,-1.1024,-1.312,-1.5913,-1.8218,-1.8572,-1.8511,-1.8484,-1.8389,-1.8328,-1.8328,-1.8328,-1.8088,-1.6683,-1.3891,-1.0898,-1.0238,-1.0736,-1.0992,-1.1698,-1.601,-1.8383,-1.8538,-1.8504,-1.8423,-1.828,-1.8145,-1.8009,-1.7907,-1.7867,-1.786,-1.786,-1.786,-1.786,-1.786,-1.786,-1.786,-1.786,-1.7833,-1.7819,-1.7812,-1.7806,-1.7799,-1.7779,-1.7745,-1.7758,-1.7772,-1.769,-1.7704,-1.7717,-1.769,-1.7582,-1.75,-1.7473,-1.746,-1.7555,-1.7643,-1.7711,-1.7758,-1.7779,-1.7792,-1.786,-1.7941,-1.8002,-1.8023,-1.8002,-1.7989,-1.7955,-1.7975,-1.805,-1.8118,-1.8192,-1.8375,-1.8335,-1.8192,-1.8036,-1.7819,-1.7602,-1.7385,-1.7311,-1.7351,-1.7365,-1.7378,-1.7433,-1.75,-0.6236,-0.543,-0.6816,-0.7968,-0.8889,-0.8039,-0.7387,-0.6945,-0.605,-0.4933,-0.3814,-0.3589,-0.3589,-0.3589,-0.3589,-0.3589,-0.3589,-0.3589,-0.3595,-0.3614,-0.3626,-0.3641,-0.3658,-0.3686,-0.3705,-0.3722,-0.3726,-0.3741,-0.4225,-0.518,-0.7289,-1.1036,-1.2667,-1.4772,-1.8039,-1.8694,-1.8667,-1.862,-1.8531,-1.845,-1.8423,-1.8362,-1.8321,-1.8088,-1.4823,-1.2522,-1.1166,-1.0967,-1.0996,-1.1702,-1.4825,-1.7204,-1.8112,-1.8593,-1.8599,-1.8443,-1.8301,-1.8158,-1.8016,-1.7914,-1.7874,-1.786,-1.786,-1.786,-1.786,-1.786,-1.786,-1.786,-1.786,-1.786,-1.786,-1.786,-1.786,-1.786,-1.786,-1.786,-1.786,-1.786,-1.7833,-1.7853,-1.7867,-1.7779,-1.7711,-1.7711,-1.7697,-1.7717,-1.7772,-1.7806,-1.7826,-1.7833,-1.784,-1.7853,-1.7941,-1.803,-1.8043,-1.8043,-1.8036,-1.8002,-1.7907,-1.7996,-1.8138,-1.826,-1.8416,-1.8552,-1.8498,-1.8328,-1.8131,-1.7894,-1.7656,-1.7575,-1.7521,-1.7541,-1.7568,-1.7643,-1.7684,-0.7893,-0.8593,-0.9813,-1.0774,-1.1255,-1.0891,-0.9598,-0.8281,-0.739,-0.5826,-0.4036,-0.3589,-0.3589,-0.3589,-0.3589,-0.3589,-0.3589,-0.3589,-0.3589,-0.3599,-0.361,-0.3621,-0.3637,-0.3659,-0.3693,-0.3715,-0.3723,-0.3737,-0.376,-0.4476,-0.6587,-1.1032,-1.2398,-1.4259,-1.6817,-1.8396,-1.8593,-1.8579,-1.8498,-1.8457,-1.8437,-1.8369,-1.8328,-1.7388,-1.5537,-1.2782,-1.1191,-1.0045,-1.0045,-1.0555,-1.3389,-1.601,-1.7211,-1.8212,-1.866,-1.8525,-1.8375,-1.8233,-1.8077,-1.7955,-1.788,-1.786,-1.786,-1.786,-1.786,-1.786,-1.786,-1.786,-1.786,-1.786,-1.786,-1.786,-1.786,-1.786,-1.786,-1.786,-1.7874,-1.7907,-1.7948,-1.7982,-1.8002,-1.8036,-1.7989,-1.7982,-1.7962,-1.7921,-1.7914,-1.7914,-1.7907,-1.7901,-1.788,-1.788,-1.7901,-1.7975,-1.7989,-1.8009,-1.803,-1.8023,-1.7928,-1.7948,-1.8091,-1.8233,-1.8382,-1.8518,-1.8654,-1.862,-1.843,-1.8179,-1.7935,-1.784,-1.7758,-1.7738,-1.7765,-1.7833,-1.7833,-1.1258,-1.2963,-1.1166,-1.1745,-1.3669,-1.1479,-1.0653,-1.0062,-0.8057,-0.605,-0.3814,-0.3589,-0.3589,-0.3589,-0.3589,-0.3589,-0.3589,-0.3589,-0.3589,-0.3591,-0.3594,-0.3598,-0.3614,-0.3647,-0.3681,-0.3696,-0.3715,-0.3746,-0.3768,-0.3764,-0.6817,-1.0794,-1.1915,-1.3945,-1.5762,-1.69,-1.8,-1.8208,-1.8369,-1.8335,-1.8328,-1.8294,-1.828,-1.7117,-1.4086,-1.1095,-1.0869,-0.9066,-0.818,-0.8232,-1.1745,-1.4349,-1.5094,-1.6579,-1.7236,-1.7811,-1.7673,-1.7762,-1.7867,-1.7955,-1.788,-1.786,-1.786,-1.786,-1.786,-1.786,-1.786,-1.786,-1.786,-1.786,-1.786,-1.786,-1.786,-1.786,-1.7874,-1.7894,-1.7935,-1.8009,-1.805,-1.8097,-1.8131,-1.8158,-1.8179,-1.8152,-1.8124,-1.8084,-1.8009,-1.8002,-1.8002,-1.7989,-1.7935,-1.7907,-1.7874,-1.7887,-1.788,-1.7907,-1.7941,-1.7948,-1.7894,-1.7941,-1.8043,-1.8192,-1.8362,-1.8484,-1.8613,-1.8681,-1.8715,-1.8457,-1.8233,-1.8084,-1.8002,-1.7982,-1.7894,-1.7867,-1.7874,-1.1464,-1.358,-1.4058,-1.5082,-1.5983,-1.5184,-1.3297,-1.0722,-0.9616,-0.7166,-0.3589,-0.3589,-0.3589,-0.3589,-0.3589,-0.3589,-0.3589,-0.3589,-0.3589,-0.3589,-0.3589,-0.3589,-0.3607,-0.3632,-0.3662,-0.3684,-0.3711,-0.3742,-0.3768,-0.3759,-0.5632,-0.8434,-1.0059,-1.1225,-1.2812,-1.5033,-1.6825,-1.8141,-1.8274,-1.8186,-1.8158,-1.8077,-1.736,-1.5547,-1.4854,-1.1227,-0.9216,-0.7873,-0.7441,-0.7706,-0.9615,-1.1033,-1.2452,-1.3909,-1.5061,-1.611,-1.6211,-1.6803,-1.7853,-1.7955,-1.7867,-1.786,-1.786,-1.786,-1.786,-1.786,-1.786,-1.786,-1.786,-1.786,-1.786,-1.786,-1.786,-1.786,-1.7887,-1.7921,-1.7996,-1.8084,-1.8172,-1.8233,-1.8253,-1.8274,-1.8287,-1.8294,-1.8267,-1.824,-1.8158,-1.8097,-1.8111,-1.8091,-1.8043,-1.7968,-1.7935,-1.7894,-1.7894,-1.788,-1.7867,-1.7867,-1.7867,-1.7928,-1.8016,-1.8199,-1.8355,-1.847,-1.8572,-1.8654,-1.8687,-1.8647,-1.8525,-1.8348,-1.8267,-1.8233,-1.8111,-1.7941,-1.7887,-1.252,-1.4639,-1.6341,-1.7154,-1.7419,-1.7534,-1.548,-1.2052,-1.0953,-0.8057,-0.3589,-0.3589,-0.3589,-0.3589,-0.3589,-0.3589,-0.3589,-0.3589,-0.3589,-0.3594,-0.3599,-0.3602,-0.3617,-0.3644,-0.3684,-0.3693,-0.3708,-0.3739,-0.3768,-0.3749,-0.4925,-0.5877,-0.6584,-0.7981,-1.0266,-1.2525,-1.5218,-1.7654,-1.8233,-1.8091,-1.8077,-1.8009,-1.6881,-1.4871,-1.3537,-1.1037,-0.8113,-0.6535,-0.586,-0.6331,-0.727,-0.8432,-0.9597,-1.0992,-1.2401,-1.37,-1.4752,-1.5594,-1.7327,-1.7941,-1.7867,-1.786,-1.786,-1.786,-1.786,-1.786,-1.786,-1.786,-1.786,-1.786,-1.786,-1.786,-1.786,-1.7867,-1.7955,-1.8002,-1.8097,-1.8186,-1.8287,-1.8369,-1.8409,-1.8484,-1.8491,-1.8504,-1.8443,-1.8437,-1.8443,-1.8362,-1.8294,-1.8253,-1.8172,-1.8091,-1.8009,-1.7975,-1.7941,-1.7962,-1.7968,-1.7894,-1.7894,-1.7901,-1.7996,-1.8172,-1.8301,-1.8382,-1.8491,-1.862,-1.862,-1.8545,-1.8572,-1.8599,-1.847,-1.8308,-1.8206,-1.8036,-1.7901,-1.485,-1.6768,-1.6985,-1.7154,-1.7412,-1.7419,-1.6051,-1.3595,-1.1394,-0.7834,-0.3814,-0.3589,-0.3589,-0.3589,-0.3589,-0.3589,-0.3589,-0.3589,-0.3592,-0.36,-0.3615,-0.3629,-0.3654,-0.3682,-0.3708,-0.3729,-0.3742,-0.3759,-0.3772,-0.3765,-0.4003,-0.424,-0.471,-0.5634,-0.7671,-0.9902,-1.3463,-1.7227,-1.7682,-1.7669,-1.7663,-1.7419,-1.6109,-1.3428,-1.1851,-0.932,-0.7035,-0.5208,-0.4529,-0.4536,-0.5895,-0.6824,-0.7303,-0.9141,-1.1182,-1.3808,-1.4022,-1.5312,-1.7666,-1.7874,-1.7867,-1.786,-1.786,-1.786,-1.786,-1.786,-1.786,-1.786,-1.786,-1.786,-1.786,-1.786,-1.786,-1.7894,-1.7975,-1.8091,-1.8179,-1.8301,-1.8403,-1.8504,-1.864,-1.8742,-1.8735,-1.8715,-1.864,-1.8633,-1.8694,-1.8633,-1.8491,-1.8369,-1.826,-1.8213,-1.8124,-1.8111,-1.8084,-1.8084,-1.8063,-1.7975,-1.7935,-1.7955,-1.7975,-1.8084,-1.8192,-1.828,-1.8375,-1.8484,-1.8464,-1.8423,-1.847,-1.8504,-1.843,-1.8301,-1.8219,-1.8104,-1.7948,-1.4856,-1.6992,-1.708,-1.7236,-1.7405,-1.7419,-1.6219,-1.3727,-1.0031,-0.6495,-0.4036,-0.3589,-0.3589,-0.3589,-0.3589,-0.3589,-0.3589,-0.3591,-0.3595,-0.3621,-0.3634,-0.3648,-0.3674,-0.3704,-0.3727,-0.3734,-0.3754,-0.3772,-0.3772,-0.3772,-0.3772,-0.3772,-0.4006,-0.5173,-0.7018,-0.8824,-1.0836,-1.4934,-1.5793,-1.5735,-1.5735,-1.5508,-1.3937,-1.0322,-0.9182,-0.7567,-0.5491,-0.388,-0.3643,-0.364,-0.4998,-0.5223,-0.5225,-0.6589,-0.8394,-1.1032,-1.2121,-1.3896,-1.6533,-1.7867,-1.786,-1.7867,-1.7867,-1.7867,-1.786,-1.786,-1.786,-1.786,-1.786,-1.786,-1.786,-1.786,-1.7867,-1.7894,-1.7982,-1.8131,-1.8253,-1.8403,-1.8531,-1.8633,-1.8755,-1.8762,-1.8762,-1.8762,-1.8708,-1.8667,-1.8694,-1.8654,-1.8531,-1.8409,-1.8301,-1.8294,-1.8253,-1.8247,-1.824,-1.824,-1.8219,-1.8152,-1.8084,-1.8043,-1.8063,-1.8077,-1.8111,-1.8219,-1.8274,-1.8328,-1.8308,-1.8301,-1.8362,-1.8369,-1.8301,-1.824,-1.8158,-1.805,-1.7914,-1.5729,-1.706,-1.7154,-1.7283,-1.7419,-1.748,-1.6263,-1.3733,-1.0039,-0.7166,-0.5157,-0.4036,-0.3589,-0.3589,-0.3589,-0.3589,-0.3591,-0.3603,-0.361,-0.3639,-0.3662,-0.3679,-0.3703,-0.3724,-0.3744,-0.3748,-0.3757,-0.3772,-0.3772,-0.3772,-0.3772,-0.3772,-0.3772,-0.471,-0.6103,-0.7249,-0.9301,-1.2502,-1.3359,-1.334,-1.334,-1.2887,-1.1525,-0.8789,-0.7178,-0.6248,-0.4385,-0.3678,-0.366,-0.3655,-0.3648,-0.3641,-0.3633,-0.4085,-0.6124,-0.9236,-1.2975,-1.4753,-1.719,-1.786,-1.7887,-1.7955,-1.7901,-1.7867,-1.786,-1.786,-1.786,-1.786,-1.7867,-1.7867,-1.7874,-1.7874,-1.7907,-1.7935,-1.8084,-1.8233,-1.8369,-1.8518,-1.8626,-1.8735,-1.8762,-1.8762,-1.8762,-1.8762,-1.8742,-1.8708,-1.8687,-1.8633,-1.8599,-1.8511,-1.843,-1.843,-1.8409,-1.8389,-1.8389,-1.8389,-1.8362,-1.8321,-1.8267,-1.8199,-1.8138,-1.8152,-1.8145,-1.8124,-1.8138,-1.8152,-1.8158,-1.8179,-1.8213,-1.8219,-1.8192,-1.8138,-1.8091,-1.7989,-1.7874,-1.7066,-1.7182,-1.7195,-1.729,-1.7446,-1.7595,-1.6401,-1.4065,-1.1839,-0.9393,-0.6943,-0.4709,-0.3814,-0.3589,-0.3589,-0.3589,-0.3595,-0.3618,-0.3634,-0.3655,-0.3689,-0.3711,-0.3733,-0.3753,-0.376,-0.3767,-0.3772,-0.3772,-0.3772,-0.3772,-0.3772,-0.3772,-0.3772,-0.4242,-0.4943,-0.6108,-0.8183,-1.024,-1.0916,-1.0904,-1.0904,-1.0904,-0.9311,-0.7477,-0.6558,-0.5608,-0.4429,-0.3716,-0.3701,-0.369,-0.3678,-0.3678,-0.3678,-0.3679,-0.6624,-1.0426,-1.4826,-1.6595,-1.7713,-1.7948,-1.7989,-1.807,-1.7989,-1.7914,-1.7907,-1.7935,-1.7921,-1.7901,-1.7894,-1.7887,-1.7887,-1.7928,-1.7962,-1.8084,-1.8233,-1.8369,-1.8498,-1.8613,-1.8701,-1.8762,-1.8762,-1.8762,-1.8762,-1.8762,-1.8762,-1.8749,-1.8721,-1.8721,-1.8694,-1.8701,-1.8633,-1.8633,-1.8606,-1.8545,-1.8538,-1.8538,-1.8525,-1.8491,-1.8457,-1.8396,-1.8314,-1.8233,-1.8219,-1.8165,-1.8009,-1.7975,-1.8016,-1.803,-1.803,-1.8036,-1.8057,-1.805,-1.8002,-1.7948,-1.786,-1.7066,-1.7202,-1.7311,-1.7446,-1.7595,-1.7738,-1.6489,-1.4292,-1.3404,-1.1176,-0.7169,-0.6498,-0.5155,-0.3589,-0.3589,-0.3589,-0.36,-0.3621,-0.3648,-0.3675,-0.3701,-0.3733,-0.3752,-0.3763,-0.3769,-0.3771,-0.3771,-0.3772,-0.3772,-0.3772,-0.3772,-0.3772,-0.3772,-0.3772,-0.4006,-0.4476,-0.6575,-0.7964,-0.8422,-0.8422,-0.8422,-0.8422,-0.7041,-0.5879,-0.518,-0.4464,-0.399,-0.3737,-0.3722,-0.3716,-0.3693,-0.3682,-0.3681,-0.3911,-0.573,-1.0508,-1.3886,-1.6145,-1.7735,-1.8186,-1.8199,-1.8233,-1.8199,-1.8206,-1.8165,-1.8097,-1.8043,-1.8009,-1.7968,-1.7968,-1.8009,-1.8043,-1.8111,-1.8233,-1.8369,-1.8464,-1.8579,-1.866,-1.8749,-1.8762,-1.8762,-1.8762,-1.8762,-1.8762,-1.8762,-1.8762,-1.8762,-1.8769,-1.8762,-1.8762,-1.8762,-1.8749,-1.8728,-1.8654,-1.8667,-1.8674,-1.8667,-1.8654,-1.8606,-1.8552,-1.847,-1.8389,-1.8321,-1.8213,-1.807,-1.7962,-1.7894,-1.7928,-1.7996,-1.7935,-1.7948,-1.7935,-1.7921,-1.7894,-1.7867,-1.71,-1.7283,-1.7378,-1.7541,-1.7731,-1.7826,-1.6969,-1.5634,-1.4736,-1.2511,-1.0066,-0.806,-0.6274,-0.5157,-0.4262,-0.3591,-0.3594,-0.3621,-0.3644,-0.3659,-0.3697,-0.3711,-0.3731,-0.3749,-0.3752,-0.3756,-0.3765,-0.3772,-0.3772,-0.3772,-0.3772,-0.3772,-0.3772,-0.3772,-0.4008,-0.4006,-0.4711,-0.5649,-0.6117,-0.6119,-0.6119,-0.6119,-0.4947,-0.4242,-0.3772,-0.3772,-0.3771,-0.3749,-0.3745,-0.3744,-0.3722,-0.3718,-0.3946,-0.4633,-0.6463,-1.0812,-1.3285,-1.5782,-1.7828,-1.8294,-1.8342,-1.8389,-1.8409,-1.8443,-1.8396,-1.8321,-1.824,-1.8172,-1.8118,-1.8084,-1.8138,-1.8192,-1.8287,-1.8389,-1.847,-1.8552,-1.8633,-1.8708,-1.8742,-1.8755,-1.8762,-1.8762,-1.8762,-1.8762,-1.8769,-1.8782,-1.8803,-1.8823,-1.8796,-1.8762,-1.8762,-1.8755,-1.8755,-1.8735,-1.8762,-1.8762,-1.8735,-1.8715,-1.8694,-1.864,-1.8593,-1.8504,-1.8389,-1.8267,-1.8138,-1.8043,-1.7968,-1.7968,-1.8002,-1.7975,-1.7996,-1.8036,-1.8016,-1.7907,-1.7887,-1.7154,-1.7419,-1.7446,-1.7623,-1.784,-1.786,-1.786,-1.7639,-1.5628,-1.4292,-1.3182,-0.9397,-0.739,-0.6274,-0.4709,-0.3595,-0.3607,-0.3632,-0.3654,-0.3644,-0.3684,-0.3704,-0.3708,-0.3709,-0.3726,-0.3737,-0.3749,-0.3763,-0.3771,-0.3772,-0.3772,-0.3772,-0.3772,-0.3772,-0.3772,-0.3772,-0.4242,-0.4242,-0.4476,-0.4477,-0.4242,-0.4006,-0.3772,-0.3772,-0.3772,-0.3772,-0.3772,-0.3771,-0.3772,-0.3771,-0.3769,-0.3765,-0.4456,-0.5376,-0.7677,-0.9743,-1.201,-1.4525,-1.6584,-1.7504,-1.7771,-1.7817,-1.8322,-1.8139,-1.7876,-1.8228,-1.8355,-1.8314,-1.826,-1.8253,-1.8294,-1.8335,-1.8409,-1.8504,-1.8586,-1.8647,-1.8694,-1.8742,-1.8749,-1.8762,-1.8762,-1.8762,-1.8762,-1.8762,-1.881,-1.8816,-1.885,-1.8884,-1.8864,-1.881,-1.8789,-1.8789,-1.8762,-1.8762,-1.8762,-1.8762,-1.8762,-1.8749,-1.8742,-1.8735,-1.8681,-1.8572,-1.8443,-1.8335,-1.8226,-1.8152,-1.8091,-1.8097,-1.8131,-1.8186,-1.8199,-1.8206,-1.8138,-1.8023,-1.7955,-1.7154,-1.7439,-1.7663,-1.7806,-1.786,-1.786,-1.786,-1.786,-1.7418,-1.6077,-1.407,-1.1176,-0.8727,-0.7166,-0.4709,-0.3598,-0.3622,-0.3637,-0.3678,-0.3686,-0.3701,-0.3692,-0.3704,-0.3693,-0.3705,-0.3722,-0.3737,-0.3754,-0.3768,-0.3772,-0.3772,-0.3772,-0.3772,-0.3772,-0.3772,-0.3772,-0.3772,-0.3772,-0.3772,-0.3772,-0.3772,-0.3772,-0.3772,-0.3772,-0.3772,-0.3772,-0.3772,-0.3772,-0.3772,-0.3772,-0.3772,-0.3771,-0.4005,-0.4466,-0.5867,-0.7964,-0.9339,-1.188,-1.4654,-1.5814,-1.6069,-1.6561,-1.6829,-1.6853,-1.7054,-1.7863,-1.8249,-1.845,-1.8437,-1.8437,-1.8457,-1.8484,-1.8525,-1.862,-1.8694,-1.8728,-1.8762,-1.8762,-1.8762,-1.8762,-1.8762,-1.8762,-1.8762,-1.8782,-1.883,-1.8884,-1.8932,-1.8966,-1.8959,-1.8925,-1.8884,-1.8857,-1.8776,-1.8762,-1.8776,-1.8762,-1.8762,-1.8762,-1.8749,-1.8755,-1.8769,-1.8735,-1.8667,-1.8464,-1.8328,-1.8287,-1.8253,-1.8233,-1.8274,-1.8362,-1.8375,-1.8369,-1.8321,-1.8219,-1.8138,-1.7154,-1.7446,-1.7738,-1.786,-1.786,-1.786,-1.786,-1.786,-1.786,-1.7197,-1.5407,-1.2511,-0.9843,-0.8057,-0.5157,-0.3598,-0.3619,-0.3629,-0.3648,-0.3671,-0.3686,-0.3671,-0.367,-0.3675,-0.3684,-0.37,-0.3737,-0.376,-0.3769,-0.3772,-0.3772,-0.3772,-0.3772,-0.3772,-0.3772,-0.3772,-0.3772,-0.3772,-0.3772,-0.3772,-0.3772,-0.3772,-0.3772,-0.3772,-0.3772,-0.3772,-0.3772,-0.3772,-0.3772,-0.3772,-0.3772,-0.3772,-0.3772,-0.4005,-0.5178,-0.6819,-0.8221,-0.9162,-1.2205,-1.4072,-1.4077,-1.4544,-1.5709,-1.5709,-1.43,-1.5149,-1.7473,-1.7685,-1.8606,-1.8613,-1.862,-1.8647,-1.8654,-1.8715,-1.8735,-1.8749,-1.8762,-1.8762,-1.8762,-1.8762,-1.8762,-1.8762,-1.8762,-1.8762,-1.881,-1.883,-1.8905,-1.9,-1.9006,-1.9067,-1.902,-1.8952,-1.8884,-1.8857,-1.8884,-1.883,-1.8762,-1.8762,-1.8762,-1.8816,-1.8857,-1.8925,-1.8898,-1.866,-1.8511,-1.8491,-1.8457,-1.8396,-1.8457,-1.8559,-1.8545,-1.8518,-1.8464,-1.8409,-1.8321,-1.7154,-1.7446,-1.7717,-1.7846,-1.786,-1.786,-1.786,-1.786,-1.786,-1.786,-1.6969,-1.2738,-1.0957,-0.9174,-0.605,-0.4488,-0.3604,-0.3629,-0.3636,-0.3648,-0.3639,-0.3663,-0.3667,-0.3654,-0.3674,-0.3705,-0.3742,-0.376,-0.3772,-0.3772,-0.3772,-0.3772,-0.3772,-0.3772,-0.3772,-0.3772,-0.3772,-0.3772,-0.3772,-0.3772,-0.3772,-0.3772,-0.3772,-0.3772,-0.3772,-0.3772,-0.3772,-0.3772,-0.3772,-0.3772,-0.3772,-0.3772,-0.3772,-0.3772,-0.4711,-0.6119,-0.6354,-0.7993,-1.033,-1.22,-1.1971,-1.1967,-1.3606,-1.3606,-1.2205,-1.3134,-1.547,-1.7104,-1.7807,-1.8742,-1.8749,-1.8749,-1.8755,-1.8762,-1.8762,-1.8762,-1.8762,-1.8762,-1.8762,-1.8762,-1.8762,-1.8762,-1.8762,-1.8762,-1.8782,-1.881,-1.8877,-1.8959,-1.9054,-1.9169,-1.9203,-1.9122,-1.904,-1.902,-1.8986,-1.8918,-1.8823,-1.8762,-1.8776,-1.8857,-1.8932,-1.8966,-1.8938,-1.8816,-1.8701,-1.8667,-1.8599,-1.8531,-1.8626,-1.8701,-1.8674,-1.8626,-1.8606,-1.8545,-1.8477,-1.7154,-1.7433,-1.7616,-1.7751,-1.7853,-1.786,-1.786,-1.786,-1.786,-1.786,-1.6748,-1.3182,-1.073,-1.0508,-0.5824,-0.3596,-0.3615,-0.3633,-0.3675,-0.3703,-0.3674,-0.369,-0.3696,-0.3678,-0.3693,-0.372,-0.3749,-0.3767,-0.3772,-0.3772,-0.3772,-0.3772,-0.3772,-0.3772,-0.3772,-0.3772,-0.3772,-0.3772,-0.3772,-0.3772,-0.3772,-0.3772,-0.3772,-0.3772,-0.3772,-0.3772,-0.3772,-0.3772,-0.3772,-0.3772,-0.3772,-0.3772,-0.3772,-0.3772,-0.4477,-0.4711,-0.5182,-0.6119,-0.7993,-0.9396,-0.9162,-0.8693,-1.0099,-1.0802,-1.0099,-1.0564,-1.2901,-1.5005,-1.6174,-1.8284,-1.8523,-1.8755,-1.8762,-1.8762,-1.8762,-1.8762,-1.8762,-1.8762,-1.8762,-1.8762,-1.8762,-1.8762,-1.8762,-1.8776,-1.8816,-1.8877,-1.9006,-1.9081,-1.9135,-1.925,-1.9373,-1.9305,-1.921,-1.9088,-1.9013,-1.8986,-1.8905,-1.883,-1.8796,-1.8898,-1.8966,-1.8979,-1.8938,-1.8898,-1.8857,-1.883,-1.8755,-1.8396,-1.845,-1.8503,-1.8742,-1.8728,-1.8708,-1.8667,-1.8586]}]]